<?xml version="1.0" encoding="UTF-8" standalone="no" ?>
<gpx xmlns="http://www.topografix.com/GPX/1/1" xmlns:xsi="http://www.w3.org/2001/XMLSchema-instance" xsi:schemaLocation="http://www.topografix.com/GPX/1/1 http://www.topografix.com/GPX/1/1/gpx.xsd" version="1.1" creator="VisuGPX - https://www.visugpx.com">
  <metadata>
    <name>Digne les bains / papy rider</name>
  </metadata>
  <trk>
    <name><![CDATA[Digne les bains / papy rider]]></name>
    <trkseg>
      <trkpt lat="44.08939" lon="6.23758">
        <ele>600.68774237934</ele>
        <time>2021-10-04T19:01:54.000Z</time>
      </trkpt>
      <trkpt lat="44.0897" lon="6.23765">
        <ele>600.32599830564</ele>
        <time>2021-10-04T19:01:54.006Z</time>
      </trkpt>
      <trkpt lat="44.08984" lon="6.23769">
        <ele>599.76133160895</ele>
        <time>2021-10-04T19:01:54.015Z</time>
      </trkpt>
      <trkpt lat="44.08984" lon="6.23769">
        <ele>599.25927949885</ele>
        <time>2021-10-04T19:01:54.024Z</time>
      </trkpt>
      <trkpt lat="44.08981" lon="6.23787">
        <ele>598.90104707052</ele>
        <time>2021-10-04T19:01:54.036Z</time>
      </trkpt>
      <trkpt lat="44.08975" lon="6.23807">
        <ele>598.67150559006</ele>
        <time>2021-10-04T19:01:54.051Z</time>
      </trkpt>
      <trkpt lat="44.08972" lon="6.23824">
        <ele>598.59025614638</ele>
        <time>2021-10-04T19:01:54.068Z</time>
      </trkpt>
      <trkpt lat="44.08962" lon="6.23905">
        <ele>598.76048562693</ele>
        <time>2021-10-04T19:01:54.097Z</time>
      </trkpt>
      <trkpt lat="44.08956" lon="6.2392">
        <ele>599.09634564894</ele>
        <time>2021-10-04T19:01:54.129Z</time>
      </trkpt>
      <trkpt lat="44.08956" lon="6.23938">
        <ele>599.59242421498</ele>
        <time>2021-10-04T19:01:54.163Z</time>
      </trkpt>
      <trkpt lat="44.08964" lon="6.23931">
        <ele>600.17996691188</ele>
        <time>2021-10-04T19:01:54.199Z</time>
      </trkpt>
      <trkpt lat="44.08967" lon="6.23931">
        <ele>600.86925866756</ele>
        <time>2021-10-04T19:01:54.236Z</time>
      </trkpt>
      <trkpt lat="44.08969" lon="6.23974">
        <ele>601.78753200854</ele>
        <time>2021-10-04T19:01:54.279Z</time>
      </trkpt>
      <trkpt lat="44.08969" lon="6.23974">
        <ele>602.74019882764</ele>
        <time>2021-10-04T19:01:54.322Z</time>
      </trkpt>
      <trkpt lat="44.0897" lon="6.23982">
        <ele>603.75500984258</ele>
        <time>2021-10-04T19:01:54.366Z</time>
      </trkpt>
      <trkpt lat="44.08979" lon="6.24037">
        <ele>604.83870303368</ele>
        <time>2021-10-04T19:01:54.418Z</time>
      </trkpt>
      <trkpt lat="44.08991" lon="6.24072">
        <ele>605.93576290275</ele>
        <time>2021-10-04T19:01:54.476Z</time>
      </trkpt>
      <trkpt lat="44.0902" lon="6.24128">
        <ele>607.01774722845</ele>
        <time>2021-10-04T19:01:54.544Z</time>
      </trkpt>
      <trkpt lat="44.0902" lon="6.24128">
        <ele>608.19406649157</ele>
        <time>2021-10-04T19:01:54.612Z</time>
      </trkpt>
      <trkpt lat="44.0902" lon="6.24128">
        <ele>609.46069679456</ele>
        <time>2021-10-04T19:01:54.680Z</time>
      </trkpt>
      <trkpt lat="44.09086" lon="6.24256">
        <ele>611.18467884507</ele>
        <time>2021-10-04T19:01:54.770Z</time>
      </trkpt>
      <trkpt lat="44.09112" lon="6.24309">
        <ele>613.22141546626</ele>
        <time>2021-10-04T19:01:54.870Z</time>
      </trkpt>
      <trkpt lat="44.09117" lon="6.24323">
        <ele>615.25669434709</ele>
        <time>2021-10-04T19:01:54.972Z</time>
      </trkpt>
      <trkpt lat="44.09119" lon="6.24338">
        <ele>617.23817223499</ele>
        <time>2021-10-04T19:01:55.076Z</time>
      </trkpt>
      <trkpt lat="44.09119" lon="6.24344">
        <ele>619.06189406515</ele>
        <time>2021-10-04T19:01:55.181Z</time>
      </trkpt>
      <trkpt lat="44.09112" lon="6.2441">
        <ele>620.67331292164</ele>
        <time>2021-10-04T19:01:55.296Z</time>
      </trkpt>
      <trkpt lat="44.0912" lon="6.24417">
        <ele>622.3366037137</ele>
        <time>2021-10-04T19:01:55.413Z</time>
      </trkpt>
      <trkpt lat="44.09127" lon="6.24426">
        <ele>623.89023541365</ele>
        <time>2021-10-04T19:01:55.531Z</time>
      </trkpt>
      <trkpt lat="44.09131" lon="6.24441">
        <ele>625.30551579924</ele>
        <time>2021-10-04T19:01:55.652Z</time>
      </trkpt>
      <trkpt lat="44.09148" lon="6.24558">
        <ele>626.2622835761</ele>
        <time>2021-10-04T19:01:55.790Z</time>
      </trkpt>
      <trkpt lat="44.09148" lon="6.24587">
        <ele>627.07172445174</ele>
        <time>2021-10-04T19:01:55.932Z</time>
      </trkpt>
      <trkpt lat="44.09147" lon="6.24612">
        <ele>627.80397265324</ele>
        <time>2021-10-04T19:01:56.078Z</time>
      </trkpt>
      <trkpt lat="44.09134" lon="6.2468">
        <ele>628.31223875101</ele>
        <time>2021-10-04T19:01:56.234Z</time>
      </trkpt>
      <trkpt lat="44.09122" lon="6.24739">
        <ele>628.70924284442</ele>
        <time>2021-10-04T19:01:56.399Z</time>
      </trkpt>
      <trkpt lat="44.09113" lon="6.24771">
        <ele>629.06243694164</ele>
        <time>2021-10-04T19:01:56.569Z</time>
      </trkpt>
      <trkpt lat="44.091" lon="6.24803">
        <ele>629.3271608505</ele>
        <time>2021-10-04T19:01:56.744Z</time>
      </trkpt>
      <trkpt lat="44.09075" lon="6.24851">
        <ele>629.72458193277</ele>
        <time>2021-10-04T19:01:56.927Z</time>
      </trkpt>
      <trkpt lat="44.09047" lon="6.24894">
        <ele>630.10287352978</ele>
        <time>2021-10-04T19:01:57.119Z</time>
      </trkpt>
      <trkpt lat="44.09027" lon="6.24917">
        <ele>630.25678039308</ele>
        <time>2021-10-04T19:01:57.316Z</time>
      </trkpt>
      <trkpt lat="44.09017" lon="6.24933">
        <ele>630.31768059111</ele>
        <time>2021-10-04T19:01:57.516Z</time>
      </trkpt>
      <trkpt lat="44.0901" lon="6.24955">
        <ele>630.78960862219</ele>
        <time>2021-10-04T19:01:57.720Z</time>
      </trkpt>
      <trkpt lat="44.09007" lon="6.24975">
        <ele>631.33768636015</ele>
        <time>2021-10-04T19:01:57.927Z</time>
      </trkpt>
      <trkpt lat="44.09" lon="6.25">
        <ele>631.8790720017</ele>
        <time>2021-10-04T19:01:58.137Z</time>
      </trkpt>
      <trkpt lat="44.08982" lon="6.25038">
        <ele>632.16101284309</ele>
        <time>2021-10-04T19:01:58.354Z</time>
      </trkpt>
      <trkpt lat="44.08974" lon="6.25066">
        <ele>632.85102330715</ele>
        <time>2021-10-04T19:01:58.575Z</time>
      </trkpt>
      <trkpt lat="44.08941" lon="6.25215">
        <ele>633.61018077692</ele>
        <time>2021-10-04T19:01:58.819Z</time>
      </trkpt>
      <trkpt lat="44.08939" lon="6.25239">
        <ele>634.27424420738</ele>
        <time>2021-10-04T19:01:59.066Z</time>
      </trkpt>
      <trkpt lat="44.08939" lon="6.25239">
        <ele>634.89704216809</ele>
        <time>2021-10-04T19:01:59.313Z</time>
      </trkpt>
      <trkpt lat="44.08939" lon="6.25239">
        <ele>635.48132005432</ele>
        <time>2021-10-04T19:01:59.560Z</time>
      </trkpt>
      <trkpt lat="44.08936" lon="6.25264">
        <ele>636.10211308325</ele>
        <time>2021-10-04T19:01:59.811Z</time>
      </trkpt>
      <trkpt lat="44.08935" lon="6.25388">
        <ele>636.50054550105</ele>
        <time>2021-10-04T19:02:00.080Z</time>
      </trkpt>
      <trkpt lat="44.08935" lon="6.25388">
        <ele>636.92380540682</ele>
        <time>2021-10-04T19:02:00.349Z</time>
      </trkpt>
      <trkpt lat="44.08934" lon="6.25406">
        <ele>637.24492771452</ele>
        <time>2021-10-04T19:02:00.620Z</time>
      </trkpt>
      <trkpt lat="44.08939" lon="6.25427">
        <ele>637.5395344872</ele>
        <time>2021-10-04T19:02:00.895Z</time>
      </trkpt>
      <trkpt lat="44.08959" lon="6.25466">
        <ele>637.84199089415</ele>
        <time>2021-10-04T19:02:01.177Z</time>
      </trkpt>
      <trkpt lat="44.09006" lon="6.25529">
        <ele>638.26998981421</ele>
        <time>2021-10-04T19:02:01.471Z</time>
      </trkpt>
      <trkpt lat="44.09026" lon="6.25566">
        <ele>638.54290515112</ele>
        <time>2021-10-04T19:02:01.772Z</time>
      </trkpt>
      <trkpt lat="44.0903" lon="6.25594">
        <ele>638.6680089955</ele>
        <time>2021-10-04T19:02:02.077Z</time>
      </trkpt>
      <trkpt lat="44.0903" lon="6.25594">
        <ele>638.78439545668</ele>
        <time>2021-10-04T19:02:02.382Z</time>
      </trkpt>
      <trkpt lat="44.09033" lon="6.25656">
        <ele>638.68387625532</ele>
        <time>2021-10-04T19:02:02.696Z</time>
      </trkpt>
      <trkpt lat="44.09038" lon="6.25681">
        <ele>638.66635300038</ele>
        <time>2021-10-04T19:02:03.014Z</time>
      </trkpt>
      <trkpt lat="44.09048" lon="6.25695">
        <ele>638.6885593594</ele>
        <time>2021-10-04T19:02:03.335Z</time>
      </trkpt>
      <trkpt lat="44.0906" lon="6.25711">
        <ele>638.71652941931</ele>
        <time>2021-10-04T19:02:03.659Z</time>
      </trkpt>
      <trkpt lat="44.09068" lon="6.25734">
        <ele>638.6470410829</ele>
        <time>2021-10-04T19:02:03.987Z</time>
      </trkpt>
      <trkpt lat="44.09069" lon="6.25787">
        <ele>638.41618573852</ele>
        <time>2021-10-04T19:02:04.323Z</time>
      </trkpt>
      <trkpt lat="44.09066" lon="6.25842">
        <ele>638.04708161806</ele>
        <time>2021-10-04T19:02:04.666Z</time>
      </trkpt>
      <trkpt lat="44.09058" lon="6.2587">
        <ele>637.59538318271</ele>
        <time>2021-10-04T19:02:05.014Z</time>
      </trkpt>
      <trkpt lat="44.09048" lon="6.25892">
        <ele>636.91163597135</ele>
        <time>2021-10-04T19:02:05.366Z</time>
      </trkpt>
      <trkpt lat="44.09036" lon="6.25916">
        <ele>636.13410358489</ele>
        <time>2021-10-04T19:02:05.722Z</time>
      </trkpt>
      <trkpt lat="44.09015" lon="6.25942">
        <ele>635.33461912341</ele>
        <time>2021-10-04T19:02:06.083Z</time>
      </trkpt>
      <trkpt lat="44.09001" lon="6.25969">
        <ele>634.66027953809</ele>
        <time>2021-10-04T19:02:06.449Z</time>
      </trkpt>
      <trkpt lat="44.08992" lon="6.25998">
        <ele>633.98855547408</ele>
        <time>2021-10-04T19:02:06.820Z</time>
      </trkpt>
      <trkpt lat="44.08979" lon="6.26053">
        <ele>633.3662019656</ele>
        <time>2021-10-04T19:02:07.199Z</time>
      </trkpt>
      <trkpt lat="44.08966" lon="6.26108">
        <ele>632.90547838672</ele>
        <time>2021-10-04T19:02:07.586Z</time>
      </trkpt>
      <trkpt lat="44.0896" lon="6.26124">
        <ele>632.60603355625</ele>
        <time>2021-10-04T19:02:07.976Z</time>
      </trkpt>
      <trkpt lat="44.08926" lon="6.26169">
        <ele>632.52735356022</ele>
        <time>2021-10-04T19:02:08.375Z</time>
      </trkpt>
      <trkpt lat="44.08897" lon="6.26206">
        <ele>632.7072530105</ele>
        <time>2021-10-04T19:02:08.782Z</time>
      </trkpt>
      <trkpt lat="44.0888" lon="6.26245">
        <ele>633.04798504707</ele>
        <time>2021-10-04T19:02:09.196Z</time>
      </trkpt>
      <trkpt lat="44.0885" lon="6.2634">
        <ele>633.57207343577</ele>
        <time>2021-10-04T19:02:09.625Z</time>
      </trkpt>
      <trkpt lat="44.08849" lon="6.26411">
        <ele>634.38273071748</ele>
        <time>2021-10-04T19:02:10.064Z</time>
      </trkpt>
      <trkpt lat="44.08869" lon="6.26486">
        <ele>635.21117764983</ele>
        <time>2021-10-04T19:02:10.515Z</time>
      </trkpt>
      <trkpt lat="44.08945" lon="6.26717">
        <ele>636.74324591131</ele>
        <time>2021-10-04T19:02:11.002Z</time>
      </trkpt>
      <trkpt lat="44.08998" lon="6.26829">
        <ele>638.35860429204</ele>
        <time>2021-10-04T19:02:11.509Z</time>
      </trkpt>
      <trkpt lat="44.09026" lon="6.26882">
        <ele>639.73055953856</ele>
        <time>2021-10-04T19:02:12.025Z</time>
      </trkpt>
      <trkpt lat="44.09038" lon="6.26913">
        <ele>640.98526864251</ele>
        <time>2021-10-04T19:02:12.546Z</time>
      </trkpt>
      <trkpt lat="44.09042" lon="6.26953">
        <ele>642.2321626675</ele>
        <time>2021-10-04T19:02:13.073Z</time>
      </trkpt>
      <trkpt lat="44.09047" lon="6.27127">
        <ele>643.69793730361</ele>
        <time>2021-10-04T19:02:13.625Z</time>
      </trkpt>
      <trkpt lat="44.09042" lon="6.27153">
        <ele>645.21224914245</ele>
        <time>2021-10-04T19:02:14.181Z</time>
      </trkpt>
      <trkpt lat="44.09032" lon="6.27184">
        <ele>646.77564865224</ele>
        <time>2021-10-04T19:02:14.742Z</time>
      </trkpt>
      <trkpt lat="44.08994" lon="6.27298">
        <ele>648.39444605459</ele>
        <time>2021-10-04T19:02:15.321Z</time>
      </trkpt>
      <trkpt lat="44.08964" lon="6.27404">
        <ele>650.04152459764</ele>
        <time>2021-10-04T19:02:15.916Z</time>
      </trkpt>
      <trkpt lat="44.08944" lon="6.27477">
        <ele>651.85269836785</ele>
        <time>2021-10-04T19:02:16.523Z</time>
      </trkpt>
      <trkpt lat="44.08944" lon="6.27477">
        <ele>653.61242972334</ele>
        <time>2021-10-04T19:02:17.130Z</time>
      </trkpt>
      <trkpt lat="44.08896" lon="6.27657">
        <ele>655.54789777948</ele>
        <time>2021-10-04T19:02:17.764Z</time>
      </trkpt>
      <trkpt lat="44.08893" lon="6.27717">
        <ele>657.37917135897</ele>
        <time>2021-10-04T19:02:18.407Z</time>
      </trkpt>
      <trkpt lat="44.08942" lon="6.2785">
        <ele>659.42691736546</ele>
        <time>2021-10-04T19:02:19.072Z</time>
      </trkpt>
      <trkpt lat="44.08956" lon="6.27926">
        <ele>661.61403918543</ele>
        <time>2021-10-04T19:02:19.748Z</time>
      </trkpt>
      <trkpt lat="44.0896" lon="6.27966">
        <ele>663.55547907585</ele>
        <time>2021-10-04T19:02:20.430Z</time>
      </trkpt>
      <trkpt lat="44.0896" lon="6.27992">
        <ele>665.1608875317</ele>
        <time>2021-10-04T19:02:21.115Z</time>
      </trkpt>
      <trkpt lat="44.08956" lon="6.28008">
        <ele>666.6004010549</ele>
        <time>2021-10-04T19:02:21.803Z</time>
      </trkpt>
      <trkpt lat="44.08953" lon="6.28013">
        <ele>667.88228101628</ele>
        <time>2021-10-04T19:02:22.492Z</time>
      </trkpt>
      <trkpt lat="44.08953" lon="6.28013">
        <ele>669.06015816138</ele>
        <time>2021-10-04T19:02:23.181Z</time>
      </trkpt>
      <trkpt lat="44.08929" lon="6.28046">
        <ele>669.89693498304</ele>
        <time>2021-10-04T19:02:23.876Z</time>
      </trkpt>
      <trkpt lat="44.08904" lon="6.28085">
        <ele>670.84122432867</ele>
        <time>2021-10-04T19:02:24.579Z</time>
      </trkpt>
      <trkpt lat="44.08896" lon="6.28107">
        <ele>671.79771811383</ele>
        <time>2021-10-04T19:02:25.286Z</time>
      </trkpt>
      <trkpt lat="44.08895" lon="6.28121">
        <ele>672.69655365825</ele>
        <time>2021-10-04T19:02:25.995Z</time>
      </trkpt>
      <trkpt lat="44.08895" lon="6.28134">
        <ele>673.55545278161</ele>
        <time>2021-10-04T19:02:26.705Z</time>
      </trkpt>
      <trkpt lat="44.089" lon="6.28159">
        <ele>674.52482545251</ele>
        <time>2021-10-04T19:02:27.419Z</time>
      </trkpt>
      <trkpt lat="44.08944" lon="6.28253">
        <ele>675.80090089359</ele>
        <time>2021-10-04T19:02:28.149Z</time>
      </trkpt>
      <trkpt lat="44.08949" lon="6.28284">
        <ele>676.61619628159</ele>
        <time>2021-10-04T19:02:28.884Z</time>
      </trkpt>
      <trkpt lat="44.08936" lon="6.28306">
        <ele>677.5244932483</ele>
        <time>2021-10-04T19:02:29.623Z</time>
      </trkpt>
      <trkpt lat="44.08914" lon="6.28334">
        <ele>678.57384813347</ele>
        <time>2021-10-04T19:02:30.368Z</time>
      </trkpt>
      <trkpt lat="44.08878" lon="6.28342">
        <ele>679.60097009352</ele>
        <time>2021-10-04T19:02:31.120Z</time>
      </trkpt>
      <trkpt lat="44.08865" lon="6.28355">
        <ele>680.68154276535</ele>
        <time>2021-10-04T19:02:31.876Z</time>
      </trkpt>
      <trkpt lat="44.08851" lon="6.28395">
        <ele>681.89798383526</ele>
        <time>2021-10-04T19:02:32.638Z</time>
      </trkpt>
      <trkpt lat="44.08847" lon="6.28429">
        <ele>683.09349179999</ele>
        <time>2021-10-04T19:02:33.405Z</time>
      </trkpt>
      <trkpt lat="44.08848" lon="6.28437">
        <ele>684.26176499784</ele>
        <time>2021-10-04T19:02:34.173Z</time>
      </trkpt>
      <trkpt lat="44.0886" lon="6.28462">
        <ele>685.54703192551</ele>
        <time>2021-10-04T19:02:34.945Z</time>
      </trkpt>
      <trkpt lat="44.08866" lon="6.2849">
        <ele>686.83713484597</ele>
        <time>2021-10-04T19:02:35.722Z</time>
      </trkpt>
      <trkpt lat="44.08856" lon="6.28568">
        <ele>688.03805760047</ele>
        <time>2021-10-04T19:02:36.510Z</time>
      </trkpt>
      <trkpt lat="44.08857" lon="6.286">
        <ele>689.22846711642</ele>
        <time>2021-10-04T19:02:37.303Z</time>
      </trkpt>
      <trkpt lat="44.08857" lon="6.28621">
        <ele>690.22833933337</ele>
        <time>2021-10-04T19:02:38.099Z</time>
      </trkpt>
      <trkpt lat="44.08869" lon="6.28641">
        <ele>691.25907303731</ele>
        <time>2021-10-04T19:02:38.898Z</time>
      </trkpt>
      <trkpt lat="44.0889" lon="6.28657">
        <ele>692.35732530464</ele>
        <time>2021-10-04T19:02:39.702Z</time>
      </trkpt>
      <trkpt lat="44.08914" lon="6.28683">
        <ele>693.34441394166</ele>
        <time>2021-10-04T19:02:40.512Z</time>
      </trkpt>
      <trkpt lat="44.0894" lon="6.28692">
        <ele>694.35445884198</ele>
        <time>2021-10-04T19:02:41.328Z</time>
      </trkpt>
      <trkpt lat="44.08945" lon="6.287">
        <ele>695.21075570698</ele>
        <time>2021-10-04T19:02:42.145Z</time>
      </trkpt>
      <trkpt lat="44.08947" lon="6.28711">
        <ele>695.96716895996</ele>
        <time>2021-10-04T19:02:42.964Z</time>
      </trkpt>
      <trkpt lat="44.08941" lon="6.28721">
        <ele>696.68775506787</ele>
        <time>2021-10-04T19:02:43.785Z</time>
      </trkpt>
      <trkpt lat="44.08933" lon="6.28729">
        <ele>697.41722672661</ele>
        <time>2021-10-04T19:02:44.608Z</time>
      </trkpt>
      <trkpt lat="44.08922" lon="6.28774">
        <ele>698.38718292729</ele>
        <time>2021-10-04T19:02:45.438Z</time>
      </trkpt>
      <trkpt lat="44.08906" lon="6.28799">
        <ele>699.30310229768</ele>
        <time>2021-10-04T19:02:46.272Z</time>
      </trkpt>
      <trkpt lat="44.08906" lon="6.28799">
        <ele>700.26386325446</ele>
        <time>2021-10-04T19:02:47.106Z</time>
      </trkpt>
      <trkpt lat="44.08906" lon="6.28799">
        <ele>701.31319490587</ele>
        <time>2021-10-04T19:02:47.940Z</time>
      </trkpt>
      <trkpt lat="44.08899" lon="6.28808">
        <ele>702.47255621312</ele>
        <time>2021-10-04T19:02:48.776Z</time>
      </trkpt>
      <trkpt lat="44.08875" lon="6.28856">
        <ele>703.83658346794</ele>
        <time>2021-10-04T19:02:49.621Z</time>
      </trkpt>
      <trkpt lat="44.08871" lon="6.28876">
        <ele>705.28796601514</ele>
        <time>2021-10-04T19:02:50.469Z</time>
      </trkpt>
      <trkpt lat="44.08884" lon="6.28909">
        <ele>706.98202913142</ele>
        <time>2021-10-04T19:02:51.322Z</time>
      </trkpt>
      <trkpt lat="44.08889" lon="6.28938">
        <ele>708.67784732885</ele>
        <time>2021-10-04T19:02:52.179Z</time>
      </trkpt>
      <trkpt lat="44.08904" lon="6.28986">
        <ele>710.49300092295</ele>
        <time>2021-10-04T19:02:53.044Z</time>
      </trkpt>
      <trkpt lat="44.08905" lon="6.29011">
        <ele>712.3180050648</ele>
        <time>2021-10-04T19:02:53.913Z</time>
      </trkpt>
      <trkpt lat="44.08933" lon="6.29126">
        <ele>714.35636698282</ele>
        <time>2021-10-04T19:02:54.799Z</time>
      </trkpt>
      <trkpt lat="44.08941" lon="6.29144">
        <ele>716.3816916335</ele>
        <time>2021-10-04T19:02:55.688Z</time>
      </trkpt>
      <trkpt lat="44.08966" lon="6.29154">
        <ele>718.65142154935</ele>
        <time>2021-10-04T19:02:56.582Z</time>
      </trkpt>
      <trkpt lat="44.08987" lon="6.29176">
        <ele>720.89300324592</ele>
        <time>2021-10-04T19:02:57.482Z</time>
      </trkpt>
      <trkpt lat="44.08994" lon="6.29193">
        <ele>722.97496539688</ele>
        <time>2021-10-04T19:02:58.384Z</time>
      </trkpt>
      <trkpt lat="44.08995" lon="6.29212">
        <ele>724.89010256387</ele>
        <time>2021-10-04T19:02:59.289Z</time>
      </trkpt>
      <trkpt lat="44.09004" lon="6.29228">
        <ele>727.09711574673</ele>
        <time>2021-10-04T19:03:00.197Z</time>
      </trkpt>
      <trkpt lat="44.08998" lon="6.29249">
        <ele>729.04415504682</ele>
        <time>2021-10-04T19:03:01.108Z</time>
      </trkpt>
      <trkpt lat="44.09001" lon="6.29279">
        <ele>731.22439196021</ele>
        <time>2021-10-04T19:03:02.024Z</time>
      </trkpt>
      <trkpt lat="44.09027" lon="6.2942">
        <ele>733.73296284944</ele>
        <time>2021-10-04T19:03:02.961Z</time>
      </trkpt>
      <trkpt lat="44.09027" lon="6.29431">
        <ele>735.82659966708</ele>
        <time>2021-10-04T19:03:03.899Z</time>
      </trkpt>
      <trkpt lat="44.09037" lon="6.29439">
        <ele>737.97909458659</ele>
        <time>2021-10-04T19:03:04.840Z</time>
      </trkpt>
      <trkpt lat="44.09076" lon="6.29487">
        <ele>740.25819485167</ele>
        <time>2021-10-04T19:03:05.791Z</time>
      </trkpt>
      <trkpt lat="44.09092" lon="6.2951">
        <ele>742.11994872496</ele>
        <time>2021-10-04T19:03:06.747Z</time>
      </trkpt>
      <trkpt lat="44.091" lon="6.29527">
        <ele>743.8309745298</ele>
        <time>2021-10-04T19:03:07.706Z</time>
      </trkpt>
      <trkpt lat="44.09113" lon="6.29539">
        <ele>745.63617114861</ele>
        <time>2021-10-04T19:03:08.668Z</time>
      </trkpt>
      <trkpt lat="44.09121" lon="6.29543">
        <ele>747.32199674472</ele>
        <time>2021-10-04T19:03:09.632Z</time>
      </trkpt>
      <trkpt lat="44.09118" lon="6.29563">
        <ele>748.69373451552</ele>
        <time>2021-10-04T19:03:10.598Z</time>
      </trkpt>
      <trkpt lat="44.0912" lon="6.29588">
        <ele>750.10774381587</ele>
        <time>2021-10-04T19:03:11.568Z</time>
      </trkpt>
      <trkpt lat="44.09139" lon="6.29642">
        <ele>751.67402258913</ele>
        <time>2021-10-04T19:03:12.547Z</time>
      </trkpt>
      <trkpt lat="44.09179" lon="6.29707">
        <ele>753.05870851294</ele>
        <time>2021-10-04T19:03:13.538Z</time>
      </trkpt>
      <trkpt lat="44.09196" lon="6.29731">
        <ele>754.32661446504</ele>
        <time>2021-10-04T19:03:14.534Z</time>
      </trkpt>
      <trkpt lat="44.09216" lon="6.29748">
        <ele>755.65040267745</ele>
        <time>2021-10-04T19:03:15.535Z</time>
      </trkpt>
      <trkpt lat="44.09212" lon="6.29775">
        <ele>756.7953343147</ele>
        <time>2021-10-04T19:03:16.540Z</time>
      </trkpt>
      <trkpt lat="44.09184" lon="6.29759">
        <ele>758.15204201716</ele>
        <time>2021-10-04T19:03:17.551Z</time>
      </trkpt>
      <trkpt lat="44.0915" lon="6.29724">
        <ele>759.49072717648</ele>
        <time>2021-10-04T19:03:18.570Z</time>
      </trkpt>
      <trkpt lat="44.09137" lon="6.29715">
        <ele>761.03016101537</ele>
        <time>2021-10-04T19:03:19.592Z</time>
      </trkpt>
      <trkpt lat="44.0911" lon="6.29689">
        <ele>762.65899207012</ele>
        <time>2021-10-04T19:03:20.620Z</time>
      </trkpt>
      <trkpt lat="44.09098" lon="6.29687">
        <ele>764.43810433242</ele>
        <time>2021-10-04T19:03:21.651Z</time>
      </trkpt>
      <trkpt lat="44.0909" lon="6.29698">
        <ele>766.37868413193</ele>
        <time>2021-10-04T19:03:22.684Z</time>
      </trkpt>
      <trkpt lat="44.09076" lon="6.29726">
        <ele>768.55219575209</ele>
        <time>2021-10-04T19:03:23.722Z</time>
      </trkpt>
      <trkpt lat="44.09071" lon="6.29744">
        <ele>770.68158280175</ele>
        <time>2021-10-04T19:03:24.763Z</time>
      </trkpt>
      <trkpt lat="44.09066" lon="6.29789">
        <ele>772.88317843102</ele>
        <time>2021-10-04T19:03:25.810Z</time>
      </trkpt>
      <trkpt lat="44.09087" lon="6.29867">
        <ele>775.18654631314</ele>
        <time>2021-10-04T19:03:26.869Z</time>
      </trkpt>
      <trkpt lat="44.09102" lon="6.29887">
        <ele>777.49506186751</ele>
        <time>2021-10-04T19:03:27.933Z</time>
      </trkpt>
      <trkpt lat="44.09122" lon="6.29908">
        <ele>779.82087770177</ele>
        <time>2021-10-04T19:03:29.002Z</time>
      </trkpt>
      <trkpt lat="44.09137" lon="6.29935">
        <ele>782.08328231877</ele>
        <time>2021-10-04T19:03:30.076Z</time>
      </trkpt>
      <trkpt lat="44.09146" lon="6.29948">
        <ele>784.26752035171</ele>
        <time>2021-10-04T19:03:31.152Z</time>
      </trkpt>
      <trkpt lat="44.09172" lon="6.2997">
        <ele>786.47688567586</ele>
        <time>2021-10-04T19:03:32.234Z</time>
      </trkpt>
      <trkpt lat="44.09209" lon="6.30007">
        <ele>788.63715445445</ele>
        <time>2021-10-04T19:03:33.325Z</time>
      </trkpt>
      <trkpt lat="44.09237" lon="6.30025">
        <ele>790.68663337967</ele>
        <time>2021-10-04T19:03:34.422Z</time>
      </trkpt>
      <trkpt lat="44.09246" lon="6.30047">
        <ele>792.57332542407</ele>
        <time>2021-10-04T19:03:35.523Z</time>
      </trkpt>
      <trkpt lat="44.09246" lon="6.30069">
        <ele>794.43356281062</ele>
        <time>2021-10-04T19:03:36.627Z</time>
      </trkpt>
      <trkpt lat="44.09242" lon="6.30088">
        <ele>796.22406825099</ele>
        <time>2021-10-04T19:03:37.734Z</time>
      </trkpt>
      <trkpt lat="44.09232" lon="6.301">
        <ele>797.93147747364</ele>
        <time>2021-10-04T19:03:38.844Z</time>
      </trkpt>
      <trkpt lat="44.09217" lon="6.30108">
        <ele>799.46881905835</ele>
        <time>2021-10-04T19:03:39.957Z</time>
      </trkpt>
      <trkpt lat="44.09202" lon="6.30106">
        <ele>800.83998949085</ele>
        <time>2021-10-04T19:03:41.073Z</time>
      </trkpt>
      <trkpt lat="44.09161" lon="6.30081">
        <ele>802.05358411247</ele>
        <time>2021-10-04T19:03:42.198Z</time>
      </trkpt>
      <trkpt lat="44.09151" lon="6.30072">
        <ele>803.18548619281</ele>
        <time>2021-10-04T19:03:43.325Z</time>
      </trkpt>
      <trkpt lat="44.09124" lon="6.30067">
        <ele>804.42797017265</ele>
        <time>2021-10-04T19:03:44.458Z</time>
      </trkpt>
      <trkpt lat="44.09111" lon="6.30062">
        <ele>805.52322987333</ele>
        <time>2021-10-04T19:03:45.593Z</time>
      </trkpt>
      <trkpt lat="44.09077" lon="6.30037">
        <ele>806.50965655712</ele>
        <time>2021-10-04T19:03:46.736Z</time>
      </trkpt>
      <trkpt lat="44.09069" lon="6.30036">
        <ele>807.50476147098</ele>
        <time>2021-10-04T19:03:47.881Z</time>
      </trkpt>
      <trkpt lat="44.09062" lon="6.30042">
        <ele>808.54272531368</ele>
        <time>2021-10-04T19:03:49.027Z</time>
      </trkpt>
      <trkpt lat="44.09062" lon="6.30056">
        <ele>809.55789704595</ele>
        <time>2021-10-04T19:03:50.175Z</time>
      </trkpt>
      <trkpt lat="44.09057" lon="6.30063">
        <ele>810.51036401512</ele>
        <time>2021-10-04T19:03:51.325Z</time>
      </trkpt>
      <trkpt lat="44.09051" lon="6.30064">
        <ele>811.45349121927</ele>
        <time>2021-10-04T19:03:52.476Z</time>
      </trkpt>
      <trkpt lat="44.09044" lon="6.30057">
        <ele>812.36892693681</ele>
        <time>2021-10-04T19:03:53.629Z</time>
      </trkpt>
      <trkpt lat="44.09034" lon="6.30024">
        <ele>813.11844266038</ele>
        <time>2021-10-04T19:03:54.787Z</time>
      </trkpt>
      <trkpt lat="44.09027" lon="6.30013">
        <ele>814.16617679482</ele>
        <time>2021-10-04T19:03:55.947Z</time>
      </trkpt>
      <trkpt lat="44.09017" lon="6.3001">
        <ele>815.42820875007</ele>
        <time>2021-10-04T19:03:57.109Z</time>
      </trkpt>
      <trkpt lat="44.09007" lon="6.30015">
        <ele>816.86097915006</ele>
        <time>2021-10-04T19:03:58.273Z</time>
      </trkpt>
      <trkpt lat="44.09004" lon="6.30024">
        <ele>818.43548617831</ele>
        <time>2021-10-04T19:03:59.439Z</time>
      </trkpt>
      <trkpt lat="44.09008" lon="6.3005">
        <ele>820.24703587318</ele>
        <time>2021-10-04T19:04:00.608Z</time>
      </trkpt>
      <trkpt lat="44.0901" lon="6.30084">
        <ele>822.22294381945</ele>
        <time>2021-10-04T19:04:01.782Z</time>
      </trkpt>
      <trkpt lat="44.09004" lon="6.30113">
        <ele>824.23376269328</ele>
        <time>2021-10-04T19:04:02.961Z</time>
      </trkpt>
      <trkpt lat="44.08992" lon="6.30142">
        <ele>826.28585094776</ele>
        <time>2021-10-04T19:04:04.144Z</time>
      </trkpt>
      <trkpt lat="44.08975" lon="6.30168">
        <ele>828.38758532255</ele>
        <time>2021-10-04T19:04:05.332Z</time>
      </trkpt>
      <trkpt lat="44.08963" lon="6.3018">
        <ele>830.4425091106</ele>
        <time>2021-10-04T19:04:06.523Z</time>
      </trkpt>
      <trkpt lat="44.08944" lon="6.30185">
        <ele>832.45707465013</ele>
        <time>2021-10-04T19:04:07.718Z</time>
      </trkpt>
      <trkpt lat="44.08934" lon="6.30184">
        <ele>834.356749673</ele>
        <time>2021-10-04T19:04:08.915Z</time>
      </trkpt>
      <trkpt lat="44.08922" lon="6.30176">
        <ele>836.1877052123</ele>
        <time>2021-10-04T19:04:10.115Z</time>
      </trkpt>
      <trkpt lat="44.08872" lon="6.30166">
        <ele>838.12627640244</ele>
        <time>2021-10-04T19:04:11.325Z</time>
      </trkpt>
      <trkpt lat="44.08854" lon="6.30166">
        <ele>839.93198711212</ele>
        <time>2021-10-04T19:04:12.539Z</time>
      </trkpt>
      <trkpt lat="44.08834" lon="6.30171">
        <ele>841.64134694827</ele>
        <time>2021-10-04T19:04:13.757Z</time>
      </trkpt>
      <trkpt lat="44.08834" lon="6.30171">
        <ele>843.29568027719</ele>
        <time>2021-10-04T19:04:14.975Z</time>
      </trkpt>
      <trkpt lat="44.08823" lon="6.3018">
        <ele>844.94516191375</ele>
        <time>2021-10-04T19:04:16.195Z</time>
      </trkpt>
      <trkpt lat="44.08817" lon="6.30193">
        <ele>846.6200316392</ele>
        <time>2021-10-04T19:04:17.418Z</time>
      </trkpt>
      <trkpt lat="44.08817" lon="6.30199">
        <ele>848.23480346382</ele>
        <time>2021-10-04T19:04:18.641Z</time>
      </trkpt>
      <trkpt lat="44.08824" lon="6.30205">
        <ele>849.82243604925</ele>
        <time>2021-10-04T19:04:19.866Z</time>
      </trkpt>
      <trkpt lat="44.08839" lon="6.30212">
        <ele>851.40364296627</ele>
        <time>2021-10-04T19:04:21.094Z</time>
      </trkpt>
      <trkpt lat="44.08844" lon="6.30218">
        <ele>852.97542466832</ele>
        <time>2021-10-04T19:04:22.324Z</time>
      </trkpt>
      <trkpt lat="44.08844" lon="6.30226">
        <ele>854.55030426122</ele>
        <time>2021-10-04T19:04:23.555Z</time>
      </trkpt>
      <trkpt lat="44.08839" lon="6.3023">
        <ele>856.09234360321</ele>
        <time>2021-10-04T19:04:24.787Z</time>
      </trkpt>
      <trkpt lat="44.08824" lon="6.30231">
        <ele>857.60180376462</ele>
        <time>2021-10-04T19:04:26.022Z</time>
      </trkpt>
      <trkpt lat="44.08804" lon="6.30243">
        <ele>859.17528755707</ele>
        <time>2021-10-04T19:04:27.261Z</time>
      </trkpt>
      <trkpt lat="44.08793" lon="6.3026">
        <ele>860.79578284787</ele>
        <time>2021-10-04T19:04:28.503Z</time>
      </trkpt>
      <trkpt lat="44.08782" lon="6.3027">
        <ele>862.37581774009</ele>
        <time>2021-10-04T19:04:29.748Z</time>
      </trkpt>
      <trkpt lat="44.08771" lon="6.30269">
        <ele>863.83502428262</ele>
        <time>2021-10-04T19:04:30.995Z</time>
      </trkpt>
      <trkpt lat="44.08758" lon="6.30272">
        <ele>865.30786302262</ele>
        <time>2021-10-04T19:04:32.245Z</time>
      </trkpt>
      <trkpt lat="44.08752" lon="6.30284">
        <ele>866.79713209667</ele>
        <time>2021-10-04T19:04:33.497Z</time>
      </trkpt>
      <trkpt lat="44.08753" lon="6.30298">
        <ele>868.19173010431</ele>
        <time>2021-10-04T19:04:34.751Z</time>
      </trkpt>
      <trkpt lat="44.08752" lon="6.30308">
        <ele>869.46863305858</ele>
        <time>2021-10-04T19:04:36.007Z</time>
      </trkpt>
      <trkpt lat="44.08745" lon="6.30314">
        <ele>870.65491407329</ele>
        <time>2021-10-04T19:04:37.264Z</time>
      </trkpt>
      <trkpt lat="44.08737" lon="6.30312">
        <ele>871.74249062174</ele>
        <time>2021-10-04T19:04:38.523Z</time>
      </trkpt>
      <trkpt lat="44.0873" lon="6.30303">
        <ele>872.74966261123</ele>
        <time>2021-10-04T19:04:39.784Z</time>
      </trkpt>
      <trkpt lat="44.08722" lon="6.30306">
        <ele>873.7566478422</ele>
        <time>2021-10-04T19:04:41.046Z</time>
      </trkpt>
      <trkpt lat="44.08717" lon="6.30315">
        <ele>874.73989352127</ele>
        <time>2021-10-04T19:04:42.310Z</time>
      </trkpt>
      <trkpt lat="44.08712" lon="6.30333">
        <ele>875.72764513883</ele>
        <time>2021-10-04T19:04:43.577Z</time>
      </trkpt>
      <trkpt lat="44.08712" lon="6.30345">
        <ele>876.64313222675</ele>
        <time>2021-10-04T19:04:44.846Z</time>
      </trkpt>
      <trkpt lat="44.08727" lon="6.30387">
        <ele>877.58353789903</ele>
        <time>2021-10-04T19:04:46.121Z</time>
      </trkpt>
      <trkpt lat="44.08731" lon="6.30402">
        <ele>878.52602273837</ele>
        <time>2021-10-04T19:04:47.399Z</time>
      </trkpt>
      <trkpt lat="44.08732" lon="6.30415">
        <ele>879.48758563564</ele>
        <time>2021-10-04T19:04:48.678Z</time>
      </trkpt>
      <trkpt lat="44.08728" lon="6.3042">
        <ele>880.47384390862</ele>
        <time>2021-10-04T19:04:49.959Z</time>
      </trkpt>
      <trkpt lat="44.08722" lon="6.30418">
        <ele>881.46473927348</ele>
        <time>2021-10-04T19:04:51.241Z</time>
      </trkpt>
      <trkpt lat="44.087" lon="6.30397">
        <ele>882.49513233342</ele>
        <time>2021-10-04T19:04:52.528Z</time>
      </trkpt>
      <trkpt lat="44.08691" lon="6.30403">
        <ele>883.73953020553</ele>
        <time>2021-10-04T19:04:53.817Z</time>
      </trkpt>
      <trkpt lat="44.08689" lon="6.30411">
        <ele>885.09236022083</ele>
        <time>2021-10-04T19:04:55.107Z</time>
      </trkpt>
      <trkpt lat="44.08695" lon="6.30435">
        <ele>886.63764810102</ele>
        <time>2021-10-04T19:04:56.401Z</time>
      </trkpt>
      <trkpt lat="44.08707" lon="6.3044">
        <ele>888.19312784077</ele>
        <time>2021-10-04T19:04:57.697Z</time>
      </trkpt>
      <trkpt lat="44.08712" lon="6.30453">
        <ele>889.9887402126</ele>
        <time>2021-10-04T19:04:58.995Z</time>
      </trkpt>
      <trkpt lat="44.08705" lon="6.30464">
        <ele>891.94412361328</ele>
        <time>2021-10-04T19:05:00.295Z</time>
      </trkpt>
      <trkpt lat="44.08695" lon="6.30463">
        <ele>893.95904440431</ele>
        <time>2021-10-04T19:05:01.597Z</time>
      </trkpt>
      <trkpt lat="44.08685" lon="6.30474">
        <ele>896.17998485897</ele>
        <time>2021-10-04T19:05:02.902Z</time>
      </trkpt>
      <trkpt lat="44.08686" lon="6.30485">
        <ele>898.48777338245</ele>
        <time>2021-10-04T19:05:04.209Z</time>
      </trkpt>
      <trkpt lat="44.08695" lon="6.30506">
        <ele>900.9184294626</ele>
        <time>2021-10-04T19:05:05.519Z</time>
      </trkpt>
      <trkpt lat="44.08728" lon="6.30554">
        <ele>903.54727948106</ele>
        <time>2021-10-04T19:05:06.839Z</time>
      </trkpt>
      <trkpt lat="44.08752" lon="6.30598">
        <ele>906.20665398802</ele>
        <time>2021-10-04T19:05:08.167Z</time>
      </trkpt>
      <trkpt lat="44.08761" lon="6.30609">
        <ele>908.66035553944</ele>
        <time>2021-10-04T19:05:09.497Z</time>
      </trkpt>
      <trkpt lat="44.08768" lon="6.30608">
        <ele>911.02692526018</ele>
        <time>2021-10-04T19:05:10.829Z</time>
      </trkpt>
      <trkpt lat="44.08776" lon="6.30602">
        <ele>913.34530855082</ele>
        <time>2021-10-04T19:05:12.162Z</time>
      </trkpt>
      <trkpt lat="44.08788" lon="6.30588">
        <ele>915.56433034836</ele>
        <time>2021-10-04T19:05:13.498Z</time>
      </trkpt>
      <trkpt lat="44.08825" lon="6.30553">
        <ele>917.81270419031</ele>
        <time>2021-10-04T19:05:14.843Z</time>
      </trkpt>
      <trkpt lat="44.08833" lon="6.30553">
        <ele>919.87205042902</ele>
        <time>2021-10-04T19:05:16.190Z</time>
      </trkpt>
      <trkpt lat="44.08859" lon="6.30572">
        <ele>921.97669980054</ele>
        <time>2021-10-04T19:05:17.543Z</time>
      </trkpt>
      <trkpt lat="44.08869" lon="6.30578">
        <ele>923.83932090858</ele>
        <time>2021-10-04T19:05:18.898Z</time>
      </trkpt>
      <trkpt lat="44.08879" lon="6.30578">
        <ele>925.55899596139</ele>
        <time>2021-10-04T19:05:20.255Z</time>
      </trkpt>
      <trkpt lat="44.08889" lon="6.30573">
        <ele>927.14070552488</ele>
        <time>2021-10-04T19:05:21.614Z</time>
      </trkpt>
      <trkpt lat="44.08906" lon="6.30567">
        <ele>928.62550989966</ele>
        <time>2021-10-04T19:05:22.977Z</time>
      </trkpt>
      <trkpt lat="44.08948" lon="6.30572">
        <ele>930.18269177241</ele>
        <time>2021-10-04T19:05:24.348Z</time>
      </trkpt>
      <trkpt lat="44.08953" lon="6.30579">
        <ele>931.52415426437</ele>
        <time>2021-10-04T19:05:25.720Z</time>
      </trkpt>
      <trkpt lat="44.08955" lon="6.30587">
        <ele>932.77665033111</ele>
        <time>2021-10-04T19:05:27.094Z</time>
      </trkpt>
      <trkpt lat="44.08954" lon="6.30594">
        <ele>933.93607717238</ele>
        <time>2021-10-04T19:05:28.469Z</time>
      </trkpt>
      <trkpt lat="44.08948" lon="6.30598">
        <ele>935.01995399591</ele>
        <time>2021-10-04T19:05:29.845Z</time>
      </trkpt>
      <trkpt lat="44.08931" lon="6.30597">
        <ele>936.01644736263</ele>
        <time>2021-10-04T19:05:31.224Z</time>
      </trkpt>
      <trkpt lat="44.08922" lon="6.306">
        <ele>936.99621561986</ele>
        <time>2021-10-04T19:05:32.605Z</time>
      </trkpt>
      <trkpt lat="44.08913" lon="6.30611">
        <ele>938.01337895487</ele>
        <time>2021-10-04T19:05:33.989Z</time>
      </trkpt>
      <trkpt lat="44.08905" lon="6.30629">
        <ele>939.12229276643</ele>
        <time>2021-10-04T19:05:35.376Z</time>
      </trkpt>
      <trkpt lat="44.08894" lon="6.30662">
        <ele>940.32685334291</ele>
        <time>2021-10-04T19:05:36.768Z</time>
      </trkpt>
      <trkpt lat="44.08895" lon="6.30677">
        <ele>941.47716083732</ele>
        <time>2021-10-04T19:05:38.162Z</time>
      </trkpt>
      <trkpt lat="44.08901" lon="6.3071">
        <ele>942.7283198879</ele>
        <time>2021-10-04T19:05:39.561Z</time>
      </trkpt>
      <trkpt lat="44.08905" lon="6.30733">
        <ele>943.95563737314</ele>
        <time>2021-10-04T19:05:40.964Z</time>
      </trkpt>
      <trkpt lat="44.08905" lon="6.30755">
        <ele>945.18266434692</ele>
        <time>2021-10-04T19:05:42.370Z</time>
      </trkpt>
      <trkpt lat="44.08898" lon="6.30776">
        <ele>946.41619122453</ele>
        <time>2021-10-04T19:05:43.779Z</time>
      </trkpt>
      <trkpt lat="44.08897" lon="6.30791">
        <ele>947.70655418907</ele>
        <time>2021-10-04T19:05:45.190Z</time>
      </trkpt>
      <trkpt lat="44.08903" lon="6.30831">
        <ele>949.12426187449</ele>
        <time>2021-10-04T19:05:46.607Z</time>
      </trkpt>
      <trkpt lat="44.08903" lon="6.30844">
        <ele>950.47102699773</ele>
        <time>2021-10-04T19:05:48.026Z</time>
      </trkpt>
      <trkpt lat="44.08898" lon="6.30853">
        <ele>951.80025434848</ele>
        <time>2021-10-04T19:05:49.446Z</time>
      </trkpt>
      <trkpt lat="44.08893" lon="6.30859">
        <ele>953.11319861315</ele>
        <time>2021-10-04T19:05:50.868Z</time>
      </trkpt>
      <trkpt lat="44.08865" lon="6.30867">
        <ele>954.43983905971</ele>
        <time>2021-10-04T19:05:52.295Z</time>
      </trkpt>
      <trkpt lat="44.08857" lon="6.30877">
        <ele>955.77771933729</ele>
        <time>2021-10-04T19:05:53.725Z</time>
      </trkpt>
      <trkpt lat="44.08841" lon="6.30931">
        <ele>957.36974483816</ele>
        <time>2021-10-04T19:05:55.163Z</time>
      </trkpt>
      <trkpt lat="44.08835" lon="6.30948">
        <ele>958.68251400735</ele>
        <time>2021-10-04T19:05:56.604Z</time>
      </trkpt>
      <trkpt lat="44.08825" lon="6.30954">
        <ele>959.88859973516</ele>
        <time>2021-10-04T19:05:58.047Z</time>
      </trkpt>
      <trkpt lat="44.08817" lon="6.30955">
        <ele>961.05182457423</ele>
        <time>2021-10-04T19:05:59.492Z</time>
      </trkpt>
      <trkpt lat="44.08808" lon="6.3095">
        <ele>962.16448359313</ele>
        <time>2021-10-04T19:06:00.938Z</time>
      </trkpt>
      <trkpt lat="44.08794" lon="6.30932">
        <ele>963.18694031589</ele>
        <time>2021-10-04T19:06:02.388Z</time>
      </trkpt>
      <trkpt lat="44.08786" lon="6.30927">
        <ele>964.28792549805</ele>
        <time>2021-10-04T19:06:03.840Z</time>
      </trkpt>
      <trkpt lat="44.08778" lon="6.30927">
        <ele>965.40262687367</ele>
        <time>2021-10-04T19:06:05.294Z</time>
      </trkpt>
      <trkpt lat="44.08773" lon="6.30933">
        <ele>966.53672869273</ele>
        <time>2021-10-04T19:06:06.749Z</time>
      </trkpt>
      <trkpt lat="44.08771" lon="6.30991">
        <ele>967.88420534385</ele>
        <time>2021-10-04T19:06:08.212Z</time>
      </trkpt>
      <trkpt lat="44.08766" lon="6.31003">
        <ele>969.03564843793</ele>
        <time>2021-10-04T19:06:09.677Z</time>
      </trkpt>
      <trkpt lat="44.08761" lon="6.31011">
        <ele>970.16221443544</ele>
        <time>2021-10-04T19:06:11.144Z</time>
      </trkpt>
      <trkpt lat="44.08758" lon="6.31022">
        <ele>971.28843372622</ele>
        <time>2021-10-04T19:06:12.613Z</time>
      </trkpt>
      <trkpt lat="44.08758" lon="6.31059">
        <ele>972.4601000459</ele>
        <time>2021-10-04T19:06:14.087Z</time>
      </trkpt>
      <trkpt lat="44.08761" lon="6.31089">
        <ele>973.5850904269</ele>
        <time>2021-10-04T19:06:15.565Z</time>
      </trkpt>
      <trkpt lat="44.0876" lon="6.31108">
        <ele>974.64199268061</ele>
        <time>2021-10-04T19:06:17.046Z</time>
      </trkpt>
      <trkpt lat="44.08756" lon="6.3113">
        <ele>975.72359723299</ele>
        <time>2021-10-04T19:06:18.530Z</time>
      </trkpt>
      <trkpt lat="44.08749" lon="6.31145">
        <ele>976.765825815</ele>
        <time>2021-10-04T19:06:20.017Z</time>
      </trkpt>
      <trkpt lat="44.08738" lon="6.31174">
        <ele>977.83302154519</ele>
        <time>2021-10-04T19:06:21.509Z</time>
      </trkpt>
      <trkpt lat="44.08731" lon="6.31184">
        <ele>978.7704100077</ele>
        <time>2021-10-04T19:06:23.003Z</time>
      </trkpt>
      <trkpt lat="44.08721" lon="6.31189">
        <ele>979.62391757858</ele>
        <time>2021-10-04T19:06:24.499Z</time>
      </trkpt>
      <trkpt lat="44.08707" lon="6.31194">
        <ele>980.44098508865</ele>
        <time>2021-10-04T19:06:25.998Z</time>
      </trkpt>
      <trkpt lat="44.08701" lon="6.31201">
        <ele>981.34646002402</ele>
        <time>2021-10-04T19:06:27.498Z</time>
      </trkpt>
      <trkpt lat="44.08701" lon="6.3121">
        <ele>982.30381234794</ele>
        <time>2021-10-04T19:06:28.999Z</time>
      </trkpt>
      <trkpt lat="44.08705" lon="6.31216">
        <ele>983.30142288197</ele>
        <time>2021-10-04T19:06:30.502Z</time>
      </trkpt>
      <trkpt lat="44.08715" lon="6.31216">
        <ele>984.34446528245</ele>
        <time>2021-10-04T19:06:32.007Z</time>
      </trkpt>
      <trkpt lat="44.08756" lon="6.3119">
        <ele>985.4879480885</ele>
        <time>2021-10-04T19:06:33.521Z</time>
      </trkpt>
      <trkpt lat="44.08782" lon="6.31162">
        <ele>986.54045410899</ele>
        <time>2021-10-04T19:06:35.041Z</time>
      </trkpt>
      <trkpt lat="44.08792" lon="6.31159">
        <ele>987.72749335931</ele>
        <time>2021-10-04T19:06:36.563Z</time>
      </trkpt>
      <trkpt lat="44.08806" lon="6.31162">
        <ele>988.99271018689</ele>
        <time>2021-10-04T19:06:38.088Z</time>
      </trkpt>
      <trkpt lat="44.08824" lon="6.31172">
        <ele>990.33501005921</ele>
        <time>2021-10-04T19:06:39.617Z</time>
      </trkpt>
      <trkpt lat="44.08842" lon="6.31185">
        <ele>991.78154555366</ele>
        <time>2021-10-04T19:06:41.150Z</time>
      </trkpt>
      <trkpt lat="44.08867" lon="6.312">
        <ele>993.3086788676</ele>
        <time>2021-10-04T19:06:42.688Z</time>
      </trkpt>
      <trkpt lat="44.08924" lon="6.31219">
        <ele>994.965094323</ele>
        <time>2021-10-04T19:06:44.238Z</time>
      </trkpt>
      <trkpt lat="44.08929" lon="6.31228">
        <ele>996.54132206435</ele>
        <time>2021-10-04T19:06:45.790Z</time>
      </trkpt>
      <trkpt lat="44.08941" lon="6.31277">
        <ele>998.28772568856</ele>
        <time>2021-10-04T19:06:47.349Z</time>
      </trkpt>
      <trkpt lat="44.08941" lon="6.31294">
        <ele>999.92468725706</ele>
        <time>2021-10-04T19:06:48.911Z</time>
      </trkpt>
      <trkpt lat="44.08928" lon="6.31324">
        <ele>1001.5895528356</ele>
        <time>2021-10-04T19:06:50.478Z</time>
      </trkpt>
      <trkpt lat="44.08914" lon="6.31344">
        <ele>1003.1658114967</ele>
        <time>2021-10-04T19:06:52.049Z</time>
      </trkpt>
      <trkpt lat="44.08901" lon="6.31348">
        <ele>1004.6549754511</ele>
        <time>2021-10-04T19:06:53.622Z</time>
      </trkpt>
      <trkpt lat="44.08879" lon="6.31344">
        <ele>1006.1025338711</ele>
        <time>2021-10-04T19:06:55.200Z</time>
      </trkpt>
      <trkpt lat="44.0886" lon="6.31335">
        <ele>1007.5068691907</ele>
        <time>2021-10-04T19:06:56.782Z</time>
      </trkpt>
      <trkpt lat="44.08854" lon="6.31336">
        <ele>1008.8651447891</ele>
        <time>2021-10-04T19:06:58.365Z</time>
      </trkpt>
      <trkpt lat="44.08849" lon="6.31338">
        <ele>1010.1791368284</ele>
        <time>2021-10-04T19:06:59.949Z</time>
      </trkpt>
      <trkpt lat="44.08848" lon="6.3135">
        <ele>1011.4758896177</ele>
        <time>2021-10-04T19:07:01.535Z</time>
      </trkpt>
      <trkpt lat="44.08849" lon="6.31359">
        <ele>1012.735440087</ele>
        <time>2021-10-04T19:07:03.122Z</time>
      </trkpt>
      <trkpt lat="44.08853" lon="6.31364">
        <ele>1013.9535992642</ele>
        <time>2021-10-04T19:07:04.710Z</time>
      </trkpt>
      <trkpt lat="44.08868" lon="6.31373">
        <ele>1015.1397617174</ele>
        <time>2021-10-04T19:07:06.302Z</time>
      </trkpt>
      <trkpt lat="44.0888" lon="6.31381">
        <ele>1016.295357025</ele>
        <time>2021-10-04T19:07:07.896Z</time>
      </trkpt>
      <trkpt lat="44.08909" lon="6.31418">
        <ele>1017.5340286525</ele>
        <time>2021-10-04T19:07:09.498Z</time>
      </trkpt>
      <trkpt lat="44.08922" lon="6.31425">
        <ele>1018.6627682993</ele>
        <time>2021-10-04T19:07:11.103Z</time>
      </trkpt>
      <trkpt lat="44.08938" lon="6.31428">
        <ele>1019.7139959064</ele>
        <time>2021-10-04T19:07:12.711Z</time>
      </trkpt>
      <trkpt lat="44.08982" lon="6.31421">
        <ele>1020.6043484209</ele>
        <time>2021-10-04T19:07:14.328Z</time>
      </trkpt>
      <trkpt lat="44.09026" lon="6.31439">
        <ele>1021.5361662661</ele>
        <time>2021-10-04T19:07:15.954Z</time>
      </trkpt>
      <trkpt lat="44.09043" lon="6.31435">
        <ele>1022.2870026718</ele>
        <time>2021-10-04T19:07:17.584Z</time>
      </trkpt>
      <trkpt lat="44.09056" lon="6.31428">
        <ele>1022.9954924848</ele>
        <time>2021-10-04T19:07:19.216Z</time>
      </trkpt>
      <trkpt lat="44.09056" lon="6.31428">
        <ele>1023.6436739562</ele>
        <time>2021-10-04T19:07:20.848Z</time>
      </trkpt>
      <trkpt lat="44.09097" lon="6.31398">
        <ele>1024.1488217205</ele>
        <time>2021-10-04T19:07:22.490Z</time>
      </trkpt>
      <trkpt lat="44.0911" lon="6.31395">
        <ele>1024.6339664621</ele>
        <time>2021-10-04T19:07:24.134Z</time>
      </trkpt>
      <trkpt lat="44.09125" lon="6.31407">
        <ele>1025.0657775252</ele>
        <time>2021-10-04T19:07:25.782Z</time>
      </trkpt>
      <trkpt lat="44.09137" lon="6.31451">
        <ele>1025.6420780883</ele>
        <time>2021-10-04T19:07:27.437Z</time>
      </trkpt>
      <trkpt lat="44.09145" lon="6.31459">
        <ele>1025.9390107479</ele>
        <time>2021-10-04T19:07:29.093Z</time>
      </trkpt>
      <trkpt lat="44.09188" lon="6.31486">
        <ele>1026.1577428323</ele>
        <time>2021-10-04T19:07:30.759Z</time>
      </trkpt>
      <trkpt lat="44.09219" lon="6.31487">
        <ele>1026.1339841282</ele>
        <time>2021-10-04T19:07:32.431Z</time>
      </trkpt>
      <trkpt lat="44.09236" lon="6.31503">
        <ele>1026.1073055433</ele>
        <time>2021-10-04T19:07:34.107Z</time>
      </trkpt>
      <trkpt lat="44.09254" lon="6.31526">
        <ele>1025.9863191084</ele>
        <time>2021-10-04T19:07:35.788Z</time>
      </trkpt>
      <trkpt lat="44.09266" lon="6.31549">
        <ele>1025.6373013601</ele>
        <time>2021-10-04T19:07:37.473Z</time>
      </trkpt>
      <trkpt lat="44.09295" lon="6.31598">
        <ele>1025.1621341994</ele>
        <time>2021-10-04T19:07:39.167Z</time>
      </trkpt>
      <trkpt lat="44.09305" lon="6.31604">
        <ele>1024.4633804064</ele>
        <time>2021-10-04T19:07:40.863Z</time>
      </trkpt>
      <trkpt lat="44.09315" lon="6.31604">
        <ele>1023.5909792041</ele>
        <time>2021-10-04T19:07:42.561Z</time>
      </trkpt>
      <trkpt lat="44.09323" lon="6.31601">
        <ele>1022.573818577</ele>
        <time>2021-10-04T19:07:44.261Z</time>
      </trkpt>
      <trkpt lat="44.09347" lon="6.31572">
        <ele>1021.2413846342</ele>
        <time>2021-10-04T19:07:45.968Z</time>
      </trkpt>
      <trkpt lat="44.09354" lon="6.3157">
        <ele>1020.0081890033</ele>
        <time>2021-10-04T19:07:47.676Z</time>
      </trkpt>
      <trkpt lat="44.09367" lon="6.3158">
        <ele>1018.6267002573</ele>
        <time>2021-10-04T19:07:49.387Z</time>
      </trkpt>
      <trkpt lat="44.0937" lon="6.3159">
        <ele>1017.3739572253</ele>
        <time>2021-10-04T19:07:51.100Z</time>
      </trkpt>
      <trkpt lat="44.0937" lon="6.31607">
        <ele>1016.1606998889</ele>
        <time>2021-10-04T19:07:52.815Z</time>
      </trkpt>
      <trkpt lat="44.0936" lon="6.31651">
        <ele>1015.2066315793</ele>
        <time>2021-10-04T19:07:54.537Z</time>
      </trkpt>
      <trkpt lat="44.09362" lon="6.31669">
        <ele>1013.9892373724</ele>
        <time>2021-10-04T19:07:56.261Z</time>
      </trkpt>
      <trkpt lat="44.09372" lon="6.31703">
        <ele>1012.7088924287</ele>
        <time>2021-10-04T19:07:57.991Z</time>
      </trkpt>
      <trkpt lat="44.09379" lon="6.31716">
        <ele>1011.4549655974</ele>
        <time>2021-10-04T19:07:59.723Z</time>
      </trkpt>
      <trkpt lat="44.09387" lon="6.3172">
        <ele>1010.1837004357</ele>
        <time>2021-10-04T19:08:01.457Z</time>
      </trkpt>
      <trkpt lat="44.09402" lon="6.31716">
        <ele>1008.8271358333</ele>
        <time>2021-10-04T19:08:03.194Z</time>
      </trkpt>
      <trkpt lat="44.09416" lon="6.31725">
        <ele>1007.5472988234</ele>
        <time>2021-10-04T19:08:04.934Z</time>
      </trkpt>
      <trkpt lat="44.09431" lon="6.31742">
        <ele>1006.3188454294</ele>
        <time>2021-10-04T19:08:06.678Z</time>
      </trkpt>
      <trkpt lat="44.09438" lon="6.31752">
        <ele>1005.2005605368</ele>
        <time>2021-10-04T19:08:08.424Z</time>
      </trkpt>
      <trkpt lat="44.09436" lon="6.31769">
        <ele>1004.3158984423</ele>
        <time>2021-10-04T19:08:10.172Z</time>
      </trkpt>
      <trkpt lat="44.09425" lon="6.31813">
        <ele>1003.7103362697</ele>
        <time>2021-10-04T19:08:11.927Z</time>
      </trkpt>
      <trkpt lat="44.09429" lon="6.31838">
        <ele>1002.8130643774</ele>
        <time>2021-10-04T19:08:13.686Z</time>
      </trkpt>
      <trkpt lat="44.09414" lon="6.31887">
        <ele>1002.2390624622</ele>
        <time>2021-10-04T19:08:15.452Z</time>
      </trkpt>
      <trkpt lat="44.09418" lon="6.31896">
        <ele>1001.4695253563</ele>
        <time>2021-10-04T19:08:17.220Z</time>
      </trkpt>
      <trkpt lat="44.09428" lon="6.31911">
        <ele>1000.6013735085</ele>
        <time>2021-10-04T19:08:18.991Z</time>
      </trkpt>
      <trkpt lat="44.09425" lon="6.3193">
        <ele>1000.0311883788</ele>
        <time>2021-10-04T19:08:20.765Z</time>
      </trkpt>
      <trkpt lat="44.09412" lon="6.31952">
        <ele>999.6338312673</ele>
        <time>2021-10-04T19:08:22.543Z</time>
      </trkpt>
      <trkpt lat="44.09413" lon="6.31962">
        <ele>999.03875437249</ele>
        <time>2021-10-04T19:08:24.322Z</time>
      </trkpt>
      <trkpt lat="44.0943" lon="6.31969">
        <ele>998.22389323606</ele>
        <time>2021-10-04T19:08:26.105Z</time>
      </trkpt>
      <trkpt lat="44.09445" lon="6.31971">
        <ele>997.468812499</ele>
        <time>2021-10-04T19:08:27.891Z</time>
      </trkpt>
      <trkpt lat="44.09458" lon="6.31982">
        <ele>996.82694314124</ele>
        <time>2021-10-04T19:08:29.680Z</time>
      </trkpt>
      <trkpt lat="44.09467" lon="6.32013">
        <ele>996.44284021498</ele>
        <time>2021-10-04T19:08:31.474Z</time>
      </trkpt>
      <trkpt lat="44.09474" lon="6.3203">
        <ele>996.14012299784</ele>
        <time>2021-10-04T19:08:33.270Z</time>
      </trkpt>
      <trkpt lat="44.09497" lon="6.32042">
        <ele>995.87627331326</ele>
        <time>2021-10-04T19:08:35.071Z</time>
      </trkpt>
      <trkpt lat="44.09532" lon="6.32048">
        <ele>995.73577989603</ele>
        <time>2021-10-04T19:08:36.879Z</time>
      </trkpt>
      <trkpt lat="44.09602" lon="6.32055">
        <ele>995.79607641169</ele>
        <time>2021-10-04T19:08:38.701Z</time>
      </trkpt>
      <trkpt lat="44.09631" lon="6.3205">
        <ele>996.01572423259</ele>
        <time>2021-10-04T19:08:40.529Z</time>
      </trkpt>
      <trkpt lat="44.09645" lon="6.32035">
        <ele>996.27674315509</ele>
        <time>2021-10-04T19:08:42.361Z</time>
      </trkpt>
      <trkpt lat="44.09642" lon="6.31985">
        <ele>996.36298232459</ele>
        <time>2021-10-04T19:08:44.200Z</time>
      </trkpt>
      <trkpt lat="44.09634" lon="6.3196">
        <ele>996.61708794312</ele>
        <time>2021-10-04T19:08:46.043Z</time>
      </trkpt>
      <trkpt lat="44.09643" lon="6.31949">
        <ele>997.16671038796</ele>
        <time>2021-10-04T19:08:47.888Z</time>
      </trkpt>
      <trkpt lat="44.09652" lon="6.31949">
        <ele>997.92139235617</ele>
        <time>2021-10-04T19:08:49.735Z</time>
      </trkpt>
      <trkpt lat="44.09683" lon="6.31995">
        <ele>999.21573061887</ele>
        <time>2021-10-04T19:08:51.591Z</time>
      </trkpt>
      <trkpt lat="44.09719" lon="6.32005">
        <ele>1000.2356270672</ele>
        <time>2021-10-04T19:08:53.455Z</time>
      </trkpt>
      <trkpt lat="44.0976" lon="6.32006">
        <ele>1001.4635807063</ele>
        <time>2021-10-04T19:08:55.327Z</time>
      </trkpt>
      <trkpt lat="44.09783" lon="6.32011">
        <ele>1002.7461762056</ele>
        <time>2021-10-04T19:08:57.203Z</time>
      </trkpt>
      <trkpt lat="44.09803" lon="6.32024">
        <ele>1004.1180433772</ele>
        <time>2021-10-04T19:08:59.084Z</time>
      </trkpt>
      <trkpt lat="44.0982" lon="6.32089">
        <ele>1005.6944287859</ele>
        <time>2021-10-04T19:09:00.975Z</time>
      </trkpt>
      <trkpt lat="44.09841" lon="6.32108">
        <ele>1007.1181498184</ele>
        <time>2021-10-04T19:09:02.871Z</time>
      </trkpt>
      <trkpt lat="44.09856" lon="6.32115">
        <ele>1008.5391914954</ele>
        <time>2021-10-04T19:09:04.770Z</time>
      </trkpt>
      <trkpt lat="44.09867" lon="6.32125">
        <ele>1009.9865395553</ele>
        <time>2021-10-04T19:09:06.672Z</time>
      </trkpt>
      <trkpt lat="44.0988" lon="6.3213">
        <ele>1011.4184391271</ele>
        <time>2021-10-04T19:09:08.576Z</time>
      </trkpt>
      <trkpt lat="44.09887" lon="6.32131">
        <ele>1012.8443792687</ele>
        <time>2021-10-04T19:09:10.482Z</time>
      </trkpt>
      <trkpt lat="44.09895" lon="6.32122">
        <ele>1014.2065242807</ele>
        <time>2021-10-04T19:09:12.390Z</time>
      </trkpt>
      <trkpt lat="44.0989" lon="6.32098">
        <ele>1015.4537428371</ele>
        <time>2021-10-04T19:09:14.301Z</time>
      </trkpt>
      <trkpt lat="44.09891" lon="6.32074">
        <ele>1016.7451812297</ele>
        <time>2021-10-04T19:09:16.216Z</time>
      </trkpt>
      <trkpt lat="44.09904" lon="6.32053">
        <ele>1018.1337047545</ele>
        <time>2021-10-04T19:09:18.135Z</time>
      </trkpt>
      <trkpt lat="44.09906" lon="6.32036">
        <ele>1019.284698963</ele>
        <time>2021-10-04T19:09:20.056Z</time>
      </trkpt>
      <trkpt lat="44.09898" lon="6.32011">
        <ele>1020.1853180312</ele>
        <time>2021-10-04T19:09:21.981Z</time>
      </trkpt>
      <trkpt lat="44.09898" lon="6.31995">
        <ele>1021.0479428933</ele>
        <time>2021-10-04T19:09:23.908Z</time>
      </trkpt>
      <trkpt lat="44.09928" lon="6.31969">
        <ele>1022.1300020773</ele>
        <time>2021-10-04T19:09:25.843Z</time>
      </trkpt>
      <trkpt lat="44.09934" lon="6.31942">
        <ele>1022.7168931638</ele>
        <time>2021-10-04T19:09:27.782Z</time>
      </trkpt>
      <trkpt lat="44.09939" lon="6.31921">
        <ele>1023.1753254372</ele>
        <time>2021-10-04T19:09:29.724Z</time>
      </trkpt>
      <trkpt lat="44.09968" lon="6.31897">
        <ele>1023.894673371</ele>
        <time>2021-10-04T19:09:31.673Z</time>
      </trkpt>
      <trkpt lat="44.09983" lon="6.31877">
        <ele>1024.3104365539</ele>
        <time>2021-10-04T19:09:33.626Z</time>
      </trkpt>
      <trkpt lat="44.1" lon="6.31871">
        <ele>1024.8252533709</ele>
        <time>2021-10-04T19:09:35.582Z</time>
      </trkpt>
      <trkpt lat="44.10016" lon="6.31833">
        <ele>1024.9882149279</ele>
        <time>2021-10-04T19:09:37.545Z</time>
      </trkpt>
      <trkpt lat="44.10026" lon="6.3179">
        <ele>1024.9629727865</ele>
        <time>2021-10-04T19:09:39.514Z</time>
      </trkpt>
      <trkpt lat="44.10028" lon="6.31762">
        <ele>1024.773317517</ele>
        <time>2021-10-04T19:09:41.487Z</time>
      </trkpt>
      <trkpt lat="44.10044" lon="6.31705">
        <ele>1024.3216558264</ele>
        <time>2021-10-04T19:09:43.469Z</time>
      </trkpt>
      <trkpt lat="44.10061" lon="6.31693">
        <ele>1024.0931027214</ele>
        <time>2021-10-04T19:09:45.455Z</time>
      </trkpt>
      <trkpt lat="44.10078" lon="6.31701">
        <ele>1023.9652543363</ele>
        <time>2021-10-04T19:09:47.444Z</time>
      </trkpt>
      <trkpt lat="44.10097" lon="6.31727">
        <ele>1023.8353497901</ele>
        <time>2021-10-04T19:09:49.439Z</time>
      </trkpt>
      <trkpt lat="44.10106" lon="6.31748">
        <ele>1023.6649142583</ele>
        <time>2021-10-04T19:09:51.437Z</time>
      </trkpt>
      <trkpt lat="44.10106" lon="6.31748">
        <ele>1023.470198043</ele>
        <time>2021-10-04T19:09:53.435Z</time>
      </trkpt>
      <trkpt lat="44.10106" lon="6.31748">
        <ele>1023.3081238931</ele>
        <time>2021-10-04T19:09:55.433Z</time>
      </trkpt>
      <trkpt lat="44.10126" lon="6.31793">
        <ele>1023.2238462337</ele>
        <time>2021-10-04T19:09:57.439Z</time>
      </trkpt>
      <trkpt lat="44.10154" lon="6.31821">
        <ele>1023.1389198595</ele>
        <time>2021-10-04T19:09:59.452Z</time>
      </trkpt>
      <trkpt lat="44.10174" lon="6.31831">
        <ele>1023.1690002153</ele>
        <time>2021-10-04T19:10:01.469Z</time>
      </trkpt>
      <trkpt lat="44.10189" lon="6.31828">
        <ele>1023.2612058872</ele>
        <time>2021-10-04T19:10:03.489Z</time>
      </trkpt>
      <trkpt lat="44.10206" lon="6.31844">
        <ele>1023.6013122333</ele>
        <time>2021-10-04T19:10:05.513Z</time>
      </trkpt>
      <trkpt lat="44.10218" lon="6.31836">
        <ele>1023.8965659721</ele>
        <time>2021-10-04T19:10:07.540Z</time>
      </trkpt>
      <trkpt lat="44.10218" lon="6.31836">
        <ele>1024.2574365743</ele>
        <time>2021-10-04T19:10:09.567Z</time>
      </trkpt>
      <trkpt lat="44.10223" lon="6.31819">
        <ele>1024.7763496765</ele>
        <time>2021-10-04T19:10:11.596Z</time>
      </trkpt>
      <trkpt lat="44.1022" lon="6.318">
        <ele>1025.3794234074</ele>
        <time>2021-10-04T19:10:13.628Z</time>
      </trkpt>
      <trkpt lat="44.10221" lon="6.31783">
        <ele>1026.1348852144</ele>
        <time>2021-10-04T19:10:15.663Z</time>
      </trkpt>
      <trkpt lat="44.10215" lon="6.31758">
        <ele>1026.980650639</ele>
        <time>2021-10-04T19:10:17.702Z</time>
      </trkpt>
      <trkpt lat="44.10218" lon="6.31746">
        <ele>1028.089809219</ele>
        <time>2021-10-04T19:10:19.742Z</time>
      </trkpt>
      <trkpt lat="44.1026" lon="6.31713">
        <ele>1029.3638498315</ele>
        <time>2021-10-04T19:10:21.792Z</time>
      </trkpt>
      <trkpt lat="44.10283" lon="6.31711">
        <ele>1030.7421537844</ele>
        <time>2021-10-04T19:10:23.847Z</time>
      </trkpt>
      <trkpt lat="44.10299" lon="6.31728">
        <ele>1032.5434936452</ele>
        <time>2021-10-04T19:10:25.906Z</time>
      </trkpt>
      <trkpt lat="44.10313" lon="6.31771">
        <ele>1034.8112747735</ele>
        <time>2021-10-04T19:10:27.972Z</time>
      </trkpt>
      <trkpt lat="44.10336" lon="6.31815">
        <ele>1037.251877263</ele>
        <time>2021-10-04T19:10:30.045Z</time>
      </trkpt>
      <trkpt lat="44.10349" lon="6.31827">
        <ele>1039.668857651</ele>
        <time>2021-10-04T19:10:32.121Z</time>
      </trkpt>
      <trkpt lat="44.10367" lon="6.31825">
        <ele>1042.2777154556</ele>
        <time>2021-10-04T19:10:34.201Z</time>
      </trkpt>
      <trkpt lat="44.10375" lon="6.31808">
        <ele>1044.8740624849</ele>
        <time>2021-10-04T19:10:36.284Z</time>
      </trkpt>
      <trkpt lat="44.10396" lon="6.31791">
        <ele>1047.7760777784</ele>
        <time>2021-10-04T19:10:38.372Z</time>
      </trkpt>
      <trkpt lat="44.10443" lon="6.31778">
        <ele>1050.874274492</ele>
        <time>2021-10-04T19:10:40.470Z</time>
      </trkpt>
      <trkpt lat="44.10457" lon="6.31783">
        <ele>1053.9895486705</ele>
        <time>2021-10-04T19:10:42.570Z</time>
      </trkpt>
      <trkpt lat="44.10497" lon="6.31825">
        <ele>1057.4174443143</ele>
        <time>2021-10-04T19:10:44.681Z</time>
      </trkpt>
      <trkpt lat="44.10502" lon="6.31827">
        <ele>1060.6109787455</ele>
        <time>2021-10-04T19:10:46.793Z</time>
      </trkpt>
      <trkpt lat="44.10533" lon="6.3184">
        <ele>1064.0343059016</ele>
        <time>2021-10-04T19:10:48.911Z</time>
      </trkpt>
      <trkpt lat="44.10537" lon="6.31844">
        <ele>1067.2951270536</ele>
        <time>2021-10-04T19:10:51.030Z</time>
      </trkpt>
      <trkpt lat="44.10586" lon="6.31847">
        <ele>1070.6873036397</ele>
        <time>2021-10-04T19:10:53.159Z</time>
      </trkpt>
      <trkpt lat="44.10587" lon="6.31844">
        <ele>1073.7592567104</ele>
        <time>2021-10-04T19:10:55.288Z</time>
      </trkpt>
      <trkpt lat="44.10618" lon="6.31842">
        <ele>1077.0257851961</ele>
        <time>2021-10-04T19:10:57.424Z</time>
      </trkpt>
      <trkpt lat="44.1062" lon="6.31839">
        <ele>1079.9332796882</ele>
        <time>2021-10-04T19:10:59.560Z</time>
      </trkpt>
      <trkpt lat="44.10651" lon="6.31827">
        <ele>1083.0249036568</ele>
        <time>2021-10-04T19:11:01.703Z</time>
      </trkpt>
      <trkpt lat="44.10659" lon="6.31818">
        <ele>1085.6157006539</ele>
        <time>2021-10-04T19:11:03.848Z</time>
      </trkpt>
      <trkpt lat="44.10681" lon="6.31804">
        <ele>1088.1088453761</ele>
        <time>2021-10-04T19:11:05.997Z</time>
      </trkpt>
      <trkpt lat="44.10689" lon="6.31803">
        <ele>1090.3573914973</ele>
        <time>2021-10-04T19:11:08.148Z</time>
      </trkpt>
      <trkpt lat="44.10706" lon="6.31807">
        <ele>1092.5310484279</ele>
        <time>2021-10-04T19:11:10.302Z</time>
      </trkpt>
      <trkpt lat="44.10736" lon="6.31787">
        <ele>1094.2963675338</ele>
        <time>2021-10-04T19:11:12.463Z</time>
      </trkpt>
      <trkpt lat="44.10756" lon="6.31786">
        <ele>1095.8184894455</ele>
        <time>2021-10-04T19:11:14.628Z</time>
      </trkpt>
      <trkpt lat="44.10765" lon="6.3179">
        <ele>1097.2089773287</ele>
        <time>2021-10-04T19:11:16.795Z</time>
      </trkpt>
      <trkpt lat="44.10787" lon="6.3181">
        <ele>1098.3926179133</ele>
        <time>2021-10-04T19:11:18.967Z</time>
      </trkpt>
      <trkpt lat="44.108" lon="6.31842">
        <ele>1099.462860457</ele>
        <time>2021-10-04T19:11:21.145Z</time>
      </trkpt>
      <trkpt lat="44.10808" lon="6.31881">
        <ele>1100.4563310137</ele>
        <time>2021-10-04T19:11:23.328Z</time>
      </trkpt>
      <trkpt lat="44.10808" lon="6.31901">
        <ele>1101.3542616464</ele>
        <time>2021-10-04T19:11:25.514Z</time>
      </trkpt>
      <trkpt lat="44.10818" lon="6.31924">
        <ele>1102.0981620095</ele>
        <time>2021-10-04T19:11:27.704Z</time>
      </trkpt>
      <trkpt lat="44.10819" lon="6.31943">
        <ele>1102.8349236405</ele>
        <time>2021-10-04T19:11:29.897Z</time>
      </trkpt>
      <trkpt lat="44.10819" lon="6.31943">
        <ele>1103.454039095</ele>
        <time>2021-10-04T19:11:32.090Z</time>
      </trkpt>
      <trkpt lat="44.10819" lon="6.31943">
        <ele>1104.0555779733</ele>
        <time>2021-10-04T19:11:34.283Z</time>
      </trkpt>
      <trkpt lat="44.10821" lon="6.31978">
        <ele>1104.7722789053</ele>
        <time>2021-10-04T19:11:36.481Z</time>
      </trkpt>
      <trkpt lat="44.10818" lon="6.32">
        <ele>1105.5128878539</ele>
        <time>2021-10-04T19:11:38.682Z</time>
      </trkpt>
      <trkpt lat="44.10824" lon="6.32035">
        <ele>1106.2495297539</ele>
        <time>2021-10-04T19:11:40.888Z</time>
      </trkpt>
      <trkpt lat="44.10833" lon="6.32059">
        <ele>1106.9933122652</ele>
        <time>2021-10-04T19:11:43.098Z</time>
      </trkpt>
      <trkpt lat="44.10836" lon="6.3209">
        <ele>1107.8935334621</ele>
        <time>2021-10-04T19:11:45.313Z</time>
      </trkpt>
      <trkpt lat="44.10848" lon="6.32102">
        <ele>1108.8329032671</ele>
        <time>2021-10-04T19:11:47.531Z</time>
      </trkpt>
      <trkpt lat="44.10867" lon="6.32116">
        <ele>1109.9160578016</ele>
        <time>2021-10-04T19:11:49.753Z</time>
      </trkpt>
      <trkpt lat="44.10867" lon="6.32122">
        <ele>1111.1625216318</ele>
        <time>2021-10-04T19:11:51.976Z</time>
      </trkpt>
      <trkpt lat="44.10858" lon="6.32132">
        <ele>1112.6030146158</ele>
        <time>2021-10-04T19:11:54.201Z</time>
      </trkpt>
      <trkpt lat="44.10826" lon="6.32125">
        <ele>1114.2638058532</ele>
        <time>2021-10-04T19:11:56.433Z</time>
      </trkpt>
      <trkpt lat="44.10803" lon="6.32104">
        <ele>1116.0860448879</ele>
        <time>2021-10-04T19:11:58.670Z</time>
      </trkpt>
      <trkpt lat="44.10754" lon="6.32041">
        <ele>1118.1846737821</ele>
        <time>2021-10-04T19:12:00.921Z</time>
      </trkpt>
      <trkpt lat="44.10738" lon="6.32041">
        <ele>1120.3419392341</ele>
        <time>2021-10-04T19:12:03.175Z</time>
      </trkpt>
      <trkpt lat="44.1072" lon="6.32063">
        <ele>1122.7701003871</ele>
        <time>2021-10-04T19:12:05.434Z</time>
      </trkpt>
      <trkpt lat="44.10709" lon="6.3207">
        <ele>1125.3215181386</ele>
        <time>2021-10-04T19:12:07.695Z</time>
      </trkpt>
      <trkpt lat="44.10694" lon="6.32066">
        <ele>1128.0208778496</ele>
        <time>2021-10-04T19:12:09.959Z</time>
      </trkpt>
      <trkpt lat="44.1068" lon="6.32066">
        <ele>1130.8823439537</ele>
        <time>2021-10-04T19:12:12.226Z</time>
      </trkpt>
      <trkpt lat="44.10626" lon="6.3212">
        <ele>1134.1459512741</ele>
        <time>2021-10-04T19:12:14.506Z</time>
      </trkpt>
      <trkpt lat="44.10623" lon="6.32131">
        <ele>1137.2579301595</ele>
        <time>2021-10-04T19:12:16.788Z</time>
      </trkpt>
      <trkpt lat="44.10647" lon="6.32161">
        <ele>1140.5961923144</ele>
        <time>2021-10-04T19:12:19.076Z</time>
      </trkpt>
      <trkpt lat="44.10658" lon="6.32206">
        <ele>1144.1526964767</ele>
        <time>2021-10-04T19:12:21.371Z</time>
      </trkpt>
      <trkpt lat="44.10677" lon="6.32259">
        <ele>1147.8424186996</ele>
        <time>2021-10-04T19:12:23.675Z</time>
      </trkpt>
      <trkpt lat="44.10706" lon="6.32271">
        <ele>1151.3551264522</ele>
        <time>2021-10-04T19:12:25.985Z</time>
      </trkpt>
      <trkpt lat="44.10721" lon="6.32289">
        <ele>1154.9175617309</ele>
        <time>2021-10-04T19:12:28.299Z</time>
      </trkpt>
      <trkpt lat="44.10736" lon="6.32352">
        <ele>1158.6271334485</ele>
        <time>2021-10-04T19:12:30.622Z</time>
      </trkpt>
      <trkpt lat="44.10739" lon="6.32431">
        <ele>1162.6877195844</ele>
        <time>2021-10-04T19:12:32.957Z</time>
      </trkpt>
      <trkpt lat="44.10744" lon="6.32466">
        <ele>1166.3519405687</ele>
        <time>2021-10-04T19:12:35.297Z</time>
      </trkpt>
      <trkpt lat="44.10768" lon="6.32528">
        <ele>1169.9747376805</ele>
        <time>2021-10-04T19:12:37.647Z</time>
      </trkpt>
      <trkpt lat="44.10788" lon="6.32521">
        <ele>1173.3743841616</ele>
        <time>2021-10-04T19:12:40.001Z</time>
      </trkpt>
      <trkpt lat="44.10794" lon="6.32534">
        <ele>1176.8011814136</ele>
        <time>2021-10-04T19:12:42.357Z</time>
      </trkpt>
      <trkpt lat="44.10789" lon="6.32543">
        <ele>1180.1837516135</ele>
        <time>2021-10-04T19:12:44.715Z</time>
      </trkpt>
      <trkpt lat="44.10769" lon="6.32552">
        <ele>1183.5515102167</ele>
        <time>2021-10-04T19:12:47.077Z</time>
      </trkpt>
      <trkpt lat="44.10741" lon="6.32586">
        <ele>1186.9508746864</ele>
        <time>2021-10-04T19:12:49.447Z</time>
      </trkpt>
      <trkpt lat="44.10728" lon="6.32587">
        <ele>1189.9143029702</ele>
        <time>2021-10-04T19:12:51.819Z</time>
      </trkpt>
      <trkpt lat="44.10711" lon="6.32572">
        <ele>1192.5858272261</ele>
        <time>2021-10-04T19:12:54.195Z</time>
      </trkpt>
      <trkpt lat="44.10699" lon="6.32567">
        <ele>1195.0214915597</ele>
        <time>2021-10-04T19:12:56.574Z</time>
      </trkpt>
      <trkpt lat="44.1064" lon="6.32596">
        <ele>1197.3469826987</ele>
        <time>2021-10-04T19:12:58.965Z</time>
      </trkpt>
      <trkpt lat="44.10619" lon="6.3263">
        <ele>1199.2126681057</ele>
        <time>2021-10-04T19:13:01.363Z</time>
      </trkpt>
      <trkpt lat="44.10602" lon="6.32654">
        <ele>1200.5072928765</ele>
        <time>2021-10-04T19:13:03.766Z</time>
      </trkpt>
      <trkpt lat="44.10602" lon="6.32654">
        <ele>1201.2650129229</ele>
        <time>2021-10-04T19:13:06.169Z</time>
      </trkpt>
      <trkpt lat="44.10584" lon="6.32712">
        <ele>1201.8241224584</ele>
        <time>2021-10-04T19:13:08.581Z</time>
      </trkpt>
      <trkpt lat="44.10581" lon="6.32697">
        <ele>1201.4396673342</ele>
        <time>2021-10-04T19:13:10.995Z</time>
      </trkpt>
      <trkpt lat="44.10572" lon="6.32686">
        <ele>1200.5227349469</ele>
        <time>2021-10-04T19:13:13.411Z</time>
      </trkpt>
      <trkpt lat="44.10553" lon="6.32645">
        <ele>1198.8862789114</ele>
        <time>2021-10-04T19:13:15.834Z</time>
      </trkpt>
      <trkpt lat="44.10547" lon="6.32631">
        <ele>1196.9265099806</ele>
        <time>2021-10-04T19:13:18.260Z</time>
      </trkpt>
      <trkpt lat="44.10547" lon="6.32603">
        <ele>1194.4498240681</ele>
        <time>2021-10-04T19:13:20.690Z</time>
      </trkpt>
      <trkpt lat="44.10535" lon="6.32531">
        <ele>1191.3570767659</ele>
        <time>2021-10-04T19:13:23.130Z</time>
      </trkpt>
      <trkpt lat="44.1054" lon="6.32501">
        <ele>1188.0455685248</ele>
        <time>2021-10-04T19:13:25.575Z</time>
      </trkpt>
      <trkpt lat="44.1054" lon="6.32485">
        <ele>1184.4405796686</ele>
        <time>2021-10-04T19:13:28.022Z</time>
      </trkpt>
      <trkpt lat="44.10533" lon="6.32461">
        <ele>1180.4127809117</ele>
        <time>2021-10-04T19:13:30.473Z</time>
      </trkpt>
      <trkpt lat="44.10528" lon="6.32449">
        <ele>1176.2412306051</ele>
        <time>2021-10-04T19:13:32.926Z</time>
      </trkpt>
      <trkpt lat="44.10513" lon="6.32426">
        <ele>1171.7461357903</ele>
        <time>2021-10-04T19:13:35.383Z</time>
      </trkpt>
      <trkpt lat="44.10506" lon="6.32404">
        <ele>1167.1506960829</ele>
        <time>2021-10-04T19:13:37.844Z</time>
      </trkpt>
      <trkpt lat="44.10503" lon="6.32399">
        <ele>1162.58000744</ele>
        <time>2021-10-04T19:13:40.306Z</time>
      </trkpt>
      <trkpt lat="44.1049" lon="6.32395">
        <ele>1157.8481048799</ele>
        <time>2021-10-04T19:13:42.770Z</time>
      </trkpt>
      <trkpt lat="44.10485" lon="6.32391">
        <ele>1153.1502466982</ele>
        <time>2021-10-04T19:13:45.235Z</time>
      </trkpt>
      <trkpt lat="44.10478" lon="6.32378">
        <ele>1148.4191257356</ele>
        <time>2021-10-04T19:13:47.703Z</time>
      </trkpt>
      <trkpt lat="44.10449" lon="6.32296">
        <ele>1143.4243645737</ele>
        <time>2021-10-04T19:13:50.184Z</time>
      </trkpt>
      <trkpt lat="44.10437" lon="6.32276">
        <ele>1138.8676671951</ele>
        <time>2021-10-04T19:13:52.669Z</time>
      </trkpt>
      <trkpt lat="44.10426" lon="6.32265">
        <ele>1134.3970398103</ele>
        <time>2021-10-04T19:13:55.156Z</time>
      </trkpt>
      <trkpt lat="44.10413" lon="6.3226">
        <ele>1130.0420731455</ele>
        <time>2021-10-04T19:13:57.646Z</time>
      </trkpt>
      <trkpt lat="44.10406" lon="6.32259">
        <ele>1125.9241600399</ele>
        <time>2021-10-04T19:14:00.138Z</time>
      </trkpt>
      <trkpt lat="44.10388" lon="6.32266">
        <ele>1121.9066131319</ele>
        <time>2021-10-04T19:14:02.633Z</time>
      </trkpt>
      <trkpt lat="44.10375" lon="6.32265">
        <ele>1118.1194748241</ele>
        <time>2021-10-04T19:14:05.131Z</time>
      </trkpt>
      <trkpt lat="44.10368" lon="6.3226">
        <ele>1114.6073291385</ele>
        <time>2021-10-04T19:14:07.630Z</time>
      </trkpt>
      <trkpt lat="44.10357" lon="6.32244">
        <ele>1111.2300283168</ele>
        <time>2021-10-04T19:14:10.133Z</time>
      </trkpt>
      <trkpt lat="44.10347" lon="6.32233">
        <ele>1108.0298501781</ele>
        <time>2021-10-04T19:14:12.638Z</time>
      </trkpt>
      <trkpt lat="44.10341" lon="6.32232">
        <ele>1105.1748092461</ele>
        <time>2021-10-04T19:14:15.144Z</time>
      </trkpt>
      <trkpt lat="44.1032" lon="6.32244">
        <ele>1102.4854945968</ele>
        <time>2021-10-04T19:14:17.655Z</time>
      </trkpt>
      <trkpt lat="44.10297" lon="6.32243">
        <ele>1099.9413697069</ele>
        <time>2021-10-04T19:14:20.170Z</time>
      </trkpt>
      <trkpt lat="44.10291" lon="6.32241">
        <ele>1097.6738317099</ele>
        <time>2021-10-04T19:14:22.687Z</time>
      </trkpt>
      <trkpt lat="44.10287" lon="6.32235">
        <ele>1095.5679516955</ele>
        <time>2021-10-04T19:14:25.205Z</time>
      </trkpt>
      <trkpt lat="44.10281" lon="6.32222">
        <ele>1093.5587624805</ele>
        <time>2021-10-04T19:14:27.725Z</time>
      </trkpt>
      <trkpt lat="44.10274" lon="6.32217">
        <ele>1091.7351437722</ele>
        <time>2021-10-04T19:14:30.247Z</time>
      </trkpt>
      <trkpt lat="44.10264" lon="6.32214">
        <ele>1090.0500555685</ele>
        <time>2021-10-04T19:14:32.771Z</time>
      </trkpt>
      <trkpt lat="44.10258" lon="6.32206">
        <ele>1088.4656453538</ele>
        <time>2021-10-04T19:14:35.296Z</time>
      </trkpt>
      <trkpt lat="44.10252" lon="6.32195">
        <ele>1086.935229956</ele>
        <time>2021-10-04T19:14:37.823Z</time>
      </trkpt>
      <trkpt lat="44.10244" lon="6.32166">
        <ele>1085.3293052202</ele>
        <time>2021-10-04T19:14:40.355Z</time>
      </trkpt>
      <trkpt lat="44.10241" lon="6.3216">
        <ele>1083.9890231367</ele>
        <time>2021-10-04T19:14:42.888Z</time>
      </trkpt>
      <trkpt lat="44.10236" lon="6.32155">
        <ele>1082.736446447</ele>
        <time>2021-10-04T19:14:45.422Z</time>
      </trkpt>
      <trkpt lat="44.10222" lon="6.32147">
        <ele>1081.5888445987</ele>
        <time>2021-10-04T19:14:47.959Z</time>
      </trkpt>
      <trkpt lat="44.10217" lon="6.32139">
        <ele>1080.3721660218</ele>
        <time>2021-10-04T19:14:50.498Z</time>
      </trkpt>
      <trkpt lat="44.10215" lon="6.32124">
        <ele>1079.0221371672</ele>
        <time>2021-10-04T19:14:53.039Z</time>
      </trkpt>
      <trkpt lat="44.10211" lon="6.32113">
        <ele>1077.6847523423</ele>
        <time>2021-10-04T19:14:55.582Z</time>
      </trkpt>
      <trkpt lat="44.10193" lon="6.32089">
        <ele>1076.2195212859</ele>
        <time>2021-10-04T19:14:58.130Z</time>
      </trkpt>
      <trkpt lat="44.10185" lon="6.32074">
        <ele>1074.6791916397</ele>
        <time>2021-10-04T19:15:00.680Z</time>
      </trkpt>
      <trkpt lat="44.1018" lon="6.3207">
        <ele>1073.1512460228</ele>
        <time>2021-10-04T19:15:03.232Z</time>
      </trkpt>
      <trkpt lat="44.10155" lon="6.32064">
        <ele>1071.6303613343</ele>
        <time>2021-10-04T19:15:05.789Z</time>
      </trkpt>
      <trkpt lat="44.10147" lon="6.32059">
        <ele>1069.8947470759</ele>
        <time>2021-10-04T19:15:08.347Z</time>
      </trkpt>
      <trkpt lat="44.10144" lon="6.32054">
        <ele>1068.0146135566</ele>
        <time>2021-10-04T19:15:10.906Z</time>
      </trkpt>
      <trkpt lat="44.10138" lon="6.32039">
        <ele>1066.0003679672</ele>
        <time>2021-10-04T19:15:13.468Z</time>
      </trkpt>
      <trkpt lat="44.10136" lon="6.32023">
        <ele>1063.7905019902</ele>
        <time>2021-10-04T19:15:16.032Z</time>
      </trkpt>
      <trkpt lat="44.10138" lon="6.32007">
        <ele>1061.4376668786</ele>
        <time>2021-10-04T19:15:18.599Z</time>
      </trkpt>
      <trkpt lat="44.10137" lon="6.31975">
        <ele>1058.9529526002</ele>
        <time>2021-10-04T19:15:21.170Z</time>
      </trkpt>
      <trkpt lat="44.10143" lon="6.31961">
        <ele>1056.4508971693</ele>
        <time>2021-10-04T19:15:23.743Z</time>
      </trkpt>
      <trkpt lat="44.10159" lon="6.31936">
        <ele>1053.8306891065</ele>
        <time>2021-10-04T19:15:26.321Z</time>
      </trkpt>
      <trkpt lat="44.10163" lon="6.31932">
        <ele>1051.4907691098</ele>
        <time>2021-10-04T19:15:28.900Z</time>
      </trkpt>
      <trkpt lat="44.1017" lon="6.31933">
        <ele>1049.202151009</ele>
        <time>2021-10-04T19:15:31.481Z</time>
      </trkpt>
      <trkpt lat="44.1017" lon="6.31933">
        <ele>1047.0112960109</ele>
        <time>2021-10-04T19:15:34.062Z</time>
      </trkpt>
      <trkpt lat="44.1017" lon="6.31933">
        <ele>1044.8905658663</ele>
        <time>2021-10-04T19:15:36.643Z</time>
      </trkpt>
      <trkpt lat="44.10172" lon="6.31933">
        <ele>1042.8366066017</ele>
        <time>2021-10-04T19:15:39.224Z</time>
      </trkpt>
      <trkpt lat="44.10181" lon="6.31939">
        <ele>1040.8374328598</ele>
        <time>2021-10-04T19:15:41.807Z</time>
      </trkpt>
      <trkpt lat="44.10188" lon="6.3194">
        <ele>1038.922500192</ele>
        <time>2021-10-04T19:15:44.391Z</time>
      </trkpt>
      <trkpt lat="44.10196" lon="6.31937">
        <ele>1037.0696327385</ele>
        <time>2021-10-04T19:15:46.977Z</time>
      </trkpt>
      <trkpt lat="44.10203" lon="6.31928">
        <ele>1035.2806216275</ele>
        <time>2021-10-04T19:15:49.565Z</time>
      </trkpt>
      <trkpt lat="44.10213" lon="6.3191">
        <ele>1033.528383146</ele>
        <time>2021-10-04T19:15:52.156Z</time>
      </trkpt>
      <trkpt lat="44.1022" lon="6.31872">
        <ele>1031.7735351143</ele>
        <time>2021-10-04T19:15:54.753Z</time>
      </trkpt>
      <trkpt lat="44.10228" lon="6.31858">
        <ele>1030.3207527947</ele>
        <time>2021-10-04T19:15:57.353Z</time>
      </trkpt>
      <trkpt lat="44.10228" lon="6.31849">
        <ele>1028.9850851537</ele>
        <time>2021-10-04T19:15:59.954Z</time>
      </trkpt>
      <trkpt lat="44.10225" lon="6.31843">
        <ele>1027.7718414628</ele>
        <time>2021-10-04T19:16:02.556Z</time>
      </trkpt>
      <trkpt lat="44.10225" lon="6.31843">
        <ele>1026.7168913629</ele>
        <time>2021-10-04T19:16:05.158Z</time>
      </trkpt>
      <trkpt lat="44.10225" lon="6.31843">
        <ele>1025.8009387902</ele>
        <time>2021-10-04T19:16:07.760Z</time>
      </trkpt>
      <trkpt lat="44.10224" lon="6.31842">
        <ele>1025.0231111478</ele>
        <time>2021-10-04T19:16:10.362Z</time>
      </trkpt>
      <trkpt lat="44.10218" lon="6.31836">
        <ele>1024.2574365743</ele>
        <time>2021-10-04T19:16:12.966Z</time>
      </trkpt>
      <trkpt lat="44.10223" lon="6.31819">
        <ele>1024.7763496765</ele>
        <time>2021-10-04T19:16:15.572Z</time>
      </trkpt>
      <trkpt lat="44.1022" lon="6.318">
        <ele>1025.3794234074</ele>
        <time>2021-10-04T19:16:18.181Z</time>
      </trkpt>
      <trkpt lat="44.10221" lon="6.31783">
        <ele>1026.1348852144</ele>
        <time>2021-10-04T19:16:20.793Z</time>
      </trkpt>
      <trkpt lat="44.10215" lon="6.31758">
        <ele>1026.980650639</ele>
        <time>2021-10-04T19:16:23.408Z</time>
      </trkpt>
      <trkpt lat="44.10218" lon="6.31746">
        <ele>1028.089809219</ele>
        <time>2021-10-04T19:16:26.025Z</time>
      </trkpt>
      <trkpt lat="44.1026" lon="6.31713">
        <ele>1029.3638498315</ele>
        <time>2021-10-04T19:16:28.652Z</time>
      </trkpt>
      <trkpt lat="44.10283" lon="6.31711">
        <ele>1030.7421537844</ele>
        <time>2021-10-04T19:16:31.284Z</time>
      </trkpt>
      <trkpt lat="44.10291" lon="6.31719">
        <ele>1025.8481012146</ele>
        <time>2021-10-04T19:16:33.917Z</time>
      </trkpt>
      <trkpt lat="44.10291" lon="6.31719">
        <ele>1027.0625519319</ele>
        <time>2021-10-04T19:16:36.550Z</time>
      </trkpt>
      <trkpt lat="44.10291" lon="6.31719">
        <ele>1028.5401587957</ele>
        <time>2021-10-04T19:16:39.183Z</time>
      </trkpt>
      <trkpt lat="44.10299" lon="6.31728">
        <ele>1032.5434936452</ele>
        <time>2021-10-04T19:16:41.819Z</time>
      </trkpt>
      <trkpt lat="44.10313" lon="6.31771">
        <ele>1034.8112747735</ele>
        <time>2021-10-04T19:16:44.461Z</time>
      </trkpt>
      <trkpt lat="44.10336" lon="6.31815">
        <ele>1037.251877263</ele>
        <time>2021-10-04T19:16:47.111Z</time>
      </trkpt>
      <trkpt lat="44.10349" lon="6.31827">
        <ele>1039.668857651</ele>
        <time>2021-10-04T19:16:49.764Z</time>
      </trkpt>
      <trkpt lat="44.10367" lon="6.31825">
        <ele>1042.2777154556</ele>
        <time>2021-10-04T19:16:52.421Z</time>
      </trkpt>
      <trkpt lat="44.10375" lon="6.31808">
        <ele>1044.8740624849</ele>
        <time>2021-10-04T19:16:55.081Z</time>
      </trkpt>
      <trkpt lat="44.10396" lon="6.31791">
        <ele>1047.7760777784</ele>
        <time>2021-10-04T19:16:57.746Z</time>
      </trkpt>
      <trkpt lat="44.10443" lon="6.31778">
        <ele>1050.874274492</ele>
        <time>2021-10-04T19:17:00.420Z</time>
      </trkpt>
      <trkpt lat="44.10457" lon="6.31783">
        <ele>1053.9895486705</ele>
        <time>2021-10-04T19:17:03.097Z</time>
      </trkpt>
      <trkpt lat="44.10497" lon="6.31825">
        <ele>1057.4174443143</ele>
        <time>2021-10-04T19:17:05.784Z</time>
      </trkpt>
      <trkpt lat="44.10502" lon="6.31827">
        <ele>1060.6109787455</ele>
        <time>2021-10-04T19:17:08.472Z</time>
      </trkpt>
      <trkpt lat="44.10533" lon="6.3184">
        <ele>1064.0343059016</ele>
        <time>2021-10-04T19:17:11.167Z</time>
      </trkpt>
      <trkpt lat="44.10537" lon="6.31844">
        <ele>1067.2951270536</ele>
        <time>2021-10-04T19:17:13.863Z</time>
      </trkpt>
      <trkpt lat="44.10586" lon="6.31847">
        <ele>1070.6873036397</ele>
        <time>2021-10-04T19:17:16.569Z</time>
      </trkpt>
      <trkpt lat="44.10587" lon="6.31844">
        <ele>1073.7592567104</ele>
        <time>2021-10-04T19:17:19.275Z</time>
      </trkpt>
      <trkpt lat="44.10618" lon="6.31842">
        <ele>1077.0257851961</ele>
        <time>2021-10-04T19:17:21.987Z</time>
      </trkpt>
      <trkpt lat="44.1062" lon="6.31839">
        <ele>1079.9332796882</ele>
        <time>2021-10-04T19:17:24.700Z</time>
      </trkpt>
      <trkpt lat="44.10651" lon="6.31827">
        <ele>1083.0249036568</ele>
        <time>2021-10-04T19:17:27.419Z</time>
      </trkpt>
      <trkpt lat="44.10659" lon="6.31818">
        <ele>1085.6157006539</ele>
        <time>2021-10-04T19:17:30.140Z</time>
      </trkpt>
      <trkpt lat="44.10681" lon="6.31804">
        <ele>1088.1088453761</ele>
        <time>2021-10-04T19:17:32.866Z</time>
      </trkpt>
      <trkpt lat="44.10689" lon="6.31803">
        <ele>1090.3573914973</ele>
        <time>2021-10-04T19:17:35.594Z</time>
      </trkpt>
      <trkpt lat="44.10706" lon="6.31807">
        <ele>1092.5310484279</ele>
        <time>2021-10-04T19:17:38.325Z</time>
      </trkpt>
      <trkpt lat="44.10736" lon="6.31787">
        <ele>1094.2963675338</ele>
        <time>2021-10-04T19:17:41.063Z</time>
      </trkpt>
      <trkpt lat="44.10756" lon="6.31786">
        <ele>1095.8184894455</ele>
        <time>2021-10-04T19:17:43.805Z</time>
      </trkpt>
      <trkpt lat="44.10765" lon="6.3179">
        <ele>1097.2089773287</ele>
        <time>2021-10-04T19:17:46.549Z</time>
      </trkpt>
      <trkpt lat="44.10787" lon="6.3181">
        <ele>1098.3926179133</ele>
        <time>2021-10-04T19:17:49.298Z</time>
      </trkpt>
      <trkpt lat="44.108" lon="6.31842">
        <ele>1099.462860457</ele>
        <time>2021-10-04T19:17:52.052Z</time>
      </trkpt>
      <trkpt lat="44.10808" lon="6.31881">
        <ele>1100.4563310137</ele>
        <time>2021-10-04T19:17:54.812Z</time>
      </trkpt>
      <trkpt lat="44.10808" lon="6.31901">
        <ele>1101.3542616464</ele>
        <time>2021-10-04T19:17:57.575Z</time>
      </trkpt>
      <trkpt lat="44.10818" lon="6.31924">
        <ele>1102.0981620095</ele>
        <time>2021-10-04T19:18:00.342Z</time>
      </trkpt>
      <trkpt lat="44.10821" lon="6.31978">
        <ele>1104.7722789053</ele>
        <time>2021-10-04T19:18:03.117Z</time>
      </trkpt>
      <trkpt lat="44.10818" lon="6.32">
        <ele>1105.5128878539</ele>
        <time>2021-10-04T19:18:05.895Z</time>
      </trkpt>
      <trkpt lat="44.10824" lon="6.32035">
        <ele>1106.2495297539</ele>
        <time>2021-10-04T19:18:08.678Z</time>
      </trkpt>
      <trkpt lat="44.10833" lon="6.32059">
        <ele>1106.9933122652</ele>
        <time>2021-10-04T19:18:11.465Z</time>
      </trkpt>
      <trkpt lat="44.10836" lon="6.3209">
        <ele>1107.8935334621</ele>
        <time>2021-10-04T19:18:14.257Z</time>
      </trkpt>
      <trkpt lat="44.10848" lon="6.32102">
        <ele>1108.8329032671</ele>
        <time>2021-10-04T19:18:17.052Z</time>
      </trkpt>
      <trkpt lat="44.10867" lon="6.32116">
        <ele>1109.9160578016</ele>
        <time>2021-10-04T19:18:19.851Z</time>
      </trkpt>
      <trkpt lat="44.10877" lon="6.32107">
        <ele>1111.4119039274</ele>
        <time>2021-10-04T19:18:22.652Z</time>
      </trkpt>
      <trkpt lat="44.10884" lon="6.32097">
        <ele>1110.6337729794</ele>
        <time>2021-10-04T19:18:25.455Z</time>
      </trkpt>
      <trkpt lat="44.10884" lon="6.32097">
        <ele>1109.6884318944</ele>
        <time>2021-10-04T19:18:28.258Z</time>
      </trkpt>
      <trkpt lat="44.10884" lon="6.32097">
        <ele>1108.5626597576</ele>
        <time>2021-10-04T19:18:31.061Z</time>
      </trkpt>
      <trkpt lat="44.10921" lon="6.32053">
        <ele>1107.0104807427</ele>
        <time>2021-10-04T19:18:33.874Z</time>
      </trkpt>
      <trkpt lat="44.10933" lon="6.32061">
        <ele>1105.6157772802</ele>
        <time>2021-10-04T19:18:36.690Z</time>
      </trkpt>
      <trkpt lat="44.10955" lon="6.32087">
        <ele>1104.1329760937</ele>
        <time>2021-10-04T19:18:39.512Z</time>
      </trkpt>
      <trkpt lat="44.10964" lon="6.32097">
        <ele>1102.5507845929</ele>
        <time>2021-10-04T19:18:42.336Z</time>
      </trkpt>
      <trkpt lat="44.10986" lon="6.3211">
        <ele>1100.791894736</ele>
        <time>2021-10-04T19:18:45.165Z</time>
      </trkpt>
      <trkpt lat="44.11002" lon="6.32116">
        <ele>1099.1184195306</ele>
        <time>2021-10-04T19:18:47.997Z</time>
      </trkpt>
      <trkpt lat="44.11026" lon="6.32118">
        <ele>1097.3826158138</ele>
        <time>2021-10-04T19:18:50.834Z</time>
      </trkpt>
      <trkpt lat="44.11034" lon="6.32115">
        <ele>1095.6893458539</ele>
        <time>2021-10-04T19:18:53.672Z</time>
      </trkpt>
      <trkpt lat="44.11052" lon="6.32103">
        <ele>1093.9370150302</ele>
        <time>2021-10-04T19:18:56.514Z</time>
      </trkpt>
      <trkpt lat="44.11059" lon="6.32105">
        <ele>1092.3636220912</ele>
        <time>2021-10-04T19:18:59.358Z</time>
      </trkpt>
      <trkpt lat="44.11064" lon="6.32111">
        <ele>1090.9251125005</ele>
        <time>2021-10-04T19:19:02.203Z</time>
      </trkpt>
      <trkpt lat="44.11065" lon="6.32122">
        <ele>1089.6700960292</ele>
        <time>2021-10-04T19:19:05.050Z</time>
      </trkpt>
      <trkpt lat="44.11064" lon="6.32141">
        <ele>1088.6958346744</ele>
        <time>2021-10-04T19:19:07.899Z</time>
      </trkpt>
      <trkpt lat="44.1106" lon="6.32163">
        <ele>1088.0063761386</ele>
        <time>2021-10-04T19:19:10.752Z</time>
      </trkpt>
      <trkpt lat="44.11059" lon="6.32232">
        <ele>1087.3485735591</ele>
        <time>2021-10-04T19:19:13.615Z</time>
      </trkpt>
      <trkpt lat="44.11053" lon="6.3225">
        <ele>1086.8178552002</ele>
        <time>2021-10-04T19:19:16.481Z</time>
      </trkpt>
      <trkpt lat="44.11053" lon="6.32257">
        <ele>1086.3795932235</ele>
        <time>2021-10-04T19:19:19.348Z</time>
      </trkpt>
      <trkpt lat="44.11058" lon="6.32265">
        <ele>1085.982204307</ele>
        <time>2021-10-04T19:19:22.216Z</time>
      </trkpt>
      <trkpt lat="44.11072" lon="6.32275">
        <ele>1085.5802569528</ele>
        <time>2021-10-04T19:19:25.087Z</time>
      </trkpt>
      <trkpt lat="44.11082" lon="6.32292">
        <ele>1085.3262246191</ele>
        <time>2021-10-04T19:19:27.961Z</time>
      </trkpt>
      <trkpt lat="44.11086" lon="6.32294">
        <ele>1085.0750704914</ele>
        <time>2021-10-04T19:19:30.836Z</time>
      </trkpt>
      <trkpt lat="44.11099" lon="6.32289">
        <ele>1084.7358186135</ele>
        <time>2021-10-04T19:19:33.714Z</time>
      </trkpt>
      <trkpt lat="44.11112" lon="6.32291">
        <ele>1084.3717014384</ele>
        <time>2021-10-04T19:19:36.595Z</time>
      </trkpt>
      <trkpt lat="44.11126" lon="6.32301">
        <ele>1083.9439420882</ele>
        <time>2021-10-04T19:19:39.479Z</time>
      </trkpt>
      <trkpt lat="44.11128" lon="6.32305">
        <ele>1083.43691194</ele>
        <time>2021-10-04T19:19:42.364Z</time>
      </trkpt>
      <trkpt lat="44.11144" lon="6.32315">
        <ele>1082.7571416928</ele>
        <time>2021-10-04T19:19:45.252Z</time>
      </trkpt>
      <trkpt lat="44.11148" lon="6.32326">
        <ele>1081.901009408</ele>
        <time>2021-10-04T19:19:48.142Z</time>
      </trkpt>
      <trkpt lat="44.11159" lon="6.32362">
        <ele>1080.7285760031</ele>
        <time>2021-10-04T19:19:51.038Z</time>
      </trkpt>
      <trkpt lat="44.11161" lon="6.32365">
        <ele>1079.3865542246</ele>
        <time>2021-10-04T19:19:53.934Z</time>
      </trkpt>
      <trkpt lat="44.11167" lon="6.32377">
        <ele>1077.7133282566</ele>
        <time>2021-10-04T19:19:56.832Z</time>
      </trkpt>
      <trkpt lat="44.11167" lon="6.32377">
        <ele>1075.715388076</ele>
        <time>2021-10-04T19:19:59.730Z</time>
      </trkpt>
      <trkpt lat="44.11302" lon="6.32358">
        <ele>1073.4258157057</ele>
        <time>2021-10-04T19:20:02.655Z</time>
      </trkpt>
      <trkpt lat="44.11302" lon="6.32358">
        <ele>1070.6315613044</ele>
        <time>2021-10-04T19:20:05.580Z</time>
      </trkpt>
      <trkpt lat="44.11385" lon="6.32294">
        <ele>1067.492764893</ele>
        <time>2021-10-04T19:20:08.524Z</time>
      </trkpt>
      <trkpt lat="44.11385" lon="6.32294">
        <ele>1063.8346852202</ele>
        <time>2021-10-04T19:20:11.468Z</time>
      </trkpt>
      <trkpt lat="44.11412" lon="6.32389">
        <ele>1059.0347521804</ele>
        <time>2021-10-04T19:20:14.427Z</time>
      </trkpt>
      <trkpt lat="44.11412" lon="6.32389">
        <ele>1054.5921601244</ele>
        <time>2021-10-04T19:20:17.386Z</time>
      </trkpt>
      <trkpt lat="44.11476" lon="6.32437">
        <ele>1048.9870533648</ele>
        <time>2021-10-04T19:20:20.360Z</time>
      </trkpt>
      <trkpt lat="44.11477" lon="6.32437">
        <ele>1043.9946117971</ele>
        <time>2021-10-04T19:20:23.334Z</time>
      </trkpt>
      <trkpt lat="44.11514" lon="6.32457">
        <ele>1038.3293355804</ele>
        <time>2021-10-04T19:20:26.316Z</time>
      </trkpt>
      <trkpt lat="44.11514" lon="6.32457">
        <ele>1033.0693156628</ele>
        <time>2021-10-04T19:20:29.298Z</time>
      </trkpt>
      <trkpt lat="44.11589" lon="6.32386">
        <ele>1027.5295326255</ele>
        <time>2021-10-04T19:20:32.298Z</time>
      </trkpt>
      <trkpt lat="44.11589" lon="6.32385">
        <ele>1022.2379259955</ele>
        <time>2021-10-04T19:20:35.298Z</time>
      </trkpt>
      <trkpt lat="44.11644" lon="6.32404">
        <ele>1016.7668048968</ele>
        <time>2021-10-04T19:20:38.309Z</time>
      </trkpt>
      <trkpt lat="44.11644" lon="6.32404">
        <ele>1011.6130083577</ele>
        <time>2021-10-04T19:20:41.320Z</time>
      </trkpt>
      <trkpt lat="44.11726" lon="6.32293">
        <ele>1006.2110011476</ele>
        <time>2021-10-04T19:20:44.354Z</time>
      </trkpt>
      <trkpt lat="44.11726" lon="6.32293">
        <ele>1001.3359536062</ele>
        <time>2021-10-04T19:20:47.388Z</time>
      </trkpt>
      <trkpt lat="44.11817" lon="6.32293">
        <ele>995.83403399722</ele>
        <time>2021-10-04T19:20:50.440Z</time>
      </trkpt>
      <trkpt lat="44.11817" lon="6.32293">
        <ele>991.36425502831</ele>
        <time>2021-10-04T19:20:53.492Z</time>
      </trkpt>
      <trkpt lat="44.11879" lon="6.32171">
        <ele>987.46967253948</ele>
        <time>2021-10-04T19:20:56.566Z</time>
      </trkpt>
      <trkpt lat="44.11879" lon="6.32171">
        <ele>983.46435532007</ele>
        <time>2021-10-04T19:20:59.640Z</time>
      </trkpt>
      <trkpt lat="44.11859" lon="6.31985">
        <ele>979.26805292732</ele>
        <time>2021-10-04T19:21:02.741Z</time>
      </trkpt>
      <trkpt lat="44.11859" lon="6.31985">
        <ele>975.7003384647</ele>
        <time>2021-10-04T19:21:05.842Z</time>
      </trkpt>
      <trkpt lat="44.11941" lon="6.32081">
        <ele>972.06879572726</ele>
        <time>2021-10-04T19:21:08.964Z</time>
      </trkpt>
      <trkpt lat="44.11941" lon="6.32081">
        <ele>968.93186150996</ele>
        <time>2021-10-04T19:21:12.086Z</time>
      </trkpt>
      <trkpt lat="44.12086" lon="6.3216">
        <ele>965.24797701495</ele>
        <time>2021-10-04T19:21:15.240Z</time>
      </trkpt>
      <trkpt lat="44.12087" lon="6.3216">
        <ele>962.53376955573</ele>
        <time>2021-10-04T19:21:18.394Z</time>
      </trkpt>
      <trkpt lat="44.1215" lon="6.3217">
        <ele>960.12633371513</ele>
        <time>2021-10-04T19:21:21.561Z</time>
      </trkpt>
      <trkpt lat="44.12151" lon="6.3217">
        <ele>957.78065438922</ele>
        <time>2021-10-04T19:21:24.728Z</time>
      </trkpt>
      <trkpt lat="44.12151" lon="6.3217">
        <ele>955.56667319615</ele>
        <time>2021-10-04T19:21:27.895Z</time>
      </trkpt>
      <trkpt lat="44.12162" lon="6.32163">
        <ele>953.48358675148</ele>
        <time>2021-10-04T19:21:31.064Z</time>
      </trkpt>
      <trkpt lat="44.12164" lon="6.32169">
        <ele>951.42249692918</ele>
        <time>2021-10-04T19:21:34.234Z</time>
      </trkpt>
      <trkpt lat="44.12166" lon="6.32172">
        <ele>949.386062654</ele>
        <time>2021-10-04T19:21:37.405Z</time>
      </trkpt>
      <trkpt lat="44.1218" lon="6.32199">
        <ele>947.30628795538</ele>
        <time>2021-10-04T19:21:40.580Z</time>
      </trkpt>
      <trkpt lat="44.12191" lon="6.32226">
        <ele>945.0541864301</ele>
        <time>2021-10-04T19:21:43.760Z</time>
      </trkpt>
      <trkpt lat="44.12184" lon="6.32244">
        <ele>942.78564351713</ele>
        <time>2021-10-04T19:21:46.943Z</time>
      </trkpt>
      <trkpt lat="44.12171" lon="6.32275">
        <ele>940.21364082876</ele>
        <time>2021-10-04T19:21:50.131Z</time>
      </trkpt>
      <trkpt lat="44.12159" lon="6.32278">
        <ele>937.97918012063</ele>
        <time>2021-10-04T19:21:53.321Z</time>
      </trkpt>
      <trkpt lat="44.12151" lon="6.32274">
        <ele>935.86321534674</ele>
        <time>2021-10-04T19:21:56.513Z</time>
      </trkpt>
      <trkpt lat="44.12137" lon="6.32286">
        <ele>933.63304171978</ele>
        <time>2021-10-04T19:21:59.708Z</time>
      </trkpt>
      <trkpt lat="44.12136" lon="6.32287">
        <ele>931.58035781844</ele>
        <time>2021-10-04T19:22:02.904Z</time>
      </trkpt>
      <trkpt lat="44.12136" lon="6.32287">
        <ele>929.58008156538</ele>
        <time>2021-10-04T19:22:06.100Z</time>
      </trkpt>
      <trkpt lat="44.12125" lon="6.32296">
        <ele>927.56458350048</ele>
        <time>2021-10-04T19:22:09.298Z</time>
      </trkpt>
      <trkpt lat="44.12119" lon="6.32325">
        <ele>925.56402769575</ele>
        <time>2021-10-04T19:22:12.501Z</time>
      </trkpt>
      <trkpt lat="44.12108" lon="6.32349">
        <ele>923.66635947612</ele>
        <time>2021-10-04T19:22:15.708Z</time>
      </trkpt>
      <trkpt lat="44.12106" lon="6.32366">
        <ele>921.91715406122</ele>
        <time>2021-10-04T19:22:18.917Z</time>
      </trkpt>
      <trkpt lat="44.1209" lon="6.32416">
        <ele>920.17807492739</ele>
        <time>2021-10-04T19:22:22.134Z</time>
      </trkpt>
      <trkpt lat="44.12085" lon="6.32456">
        <ele>918.60210884394</ele>
        <time>2021-10-04T19:22:25.357Z</time>
      </trkpt>
      <trkpt lat="44.12084" lon="6.32475">
        <ele>917.22159696227</ele>
        <time>2021-10-04T19:22:28.582Z</time>
      </trkpt>
      <trkpt lat="44.12087" lon="6.32483">
        <ele>915.99697074619</ele>
        <time>2021-10-04T19:22:31.809Z</time>
      </trkpt>
      <trkpt lat="44.1209" lon="6.32485">
        <ele>914.92180014609</ele>
        <time>2021-10-04T19:22:35.037Z</time>
      </trkpt>
      <trkpt lat="44.12091" lon="6.32488">
        <ele>913.98980675437</ele>
        <time>2021-10-04T19:22:38.265Z</time>
      </trkpt>
      <trkpt lat="44.1209" lon="6.32498">
        <ele>913.19333544359</ele>
        <time>2021-10-04T19:22:41.495Z</time>
      </trkpt>
      <trkpt lat="44.12092" lon="6.32507">
        <ele>912.52541320968</ele>
        <time>2021-10-04T19:22:44.726Z</time>
      </trkpt>
      <trkpt lat="44.12106" lon="6.32532">
        <ele>911.93631382399</ele>
        <time>2021-10-04T19:22:47.961Z</time>
      </trkpt>
      <trkpt lat="44.12117" lon="6.32543">
        <ele>911.46351274714</ele>
        <time>2021-10-04T19:22:51.199Z</time>
      </trkpt>
      <trkpt lat="44.12117" lon="6.32566">
        <ele>911.10124465619</ele>
        <time>2021-10-04T19:22:54.440Z</time>
      </trkpt>
      <trkpt lat="44.1211" lon="6.32587">
        <ele>910.84770972916</ele>
        <time>2021-10-04T19:22:57.685Z</time>
      </trkpt>
      <trkpt lat="44.12102" lon="6.32597">
        <ele>910.70266801125</ele>
        <time>2021-10-04T19:23:00.932Z</time>
      </trkpt>
      <trkpt lat="44.12088" lon="6.32603">
        <ele>910.65899807656</ele>
        <time>2021-10-04T19:23:04.182Z</time>
      </trkpt>
      <trkpt lat="44.12058" lon="6.32593">
        <ele>910.76924251231</ele>
        <time>2021-10-04T19:23:07.438Z</time>
      </trkpt>
      <trkpt lat="44.12053" lon="6.32601">
        <ele>910.83049717309</ele>
        <time>2021-10-04T19:23:10.696Z</time>
      </trkpt>
      <trkpt lat="44.12051" lon="6.32618">
        <ele>910.897686945</ele>
        <time>2021-10-04T19:23:13.956Z</time>
      </trkpt>
      <trkpt lat="44.12027" lon="6.32647">
        <ele>911.02709665046</ele>
        <time>2021-10-04T19:23:17.223Z</time>
      </trkpt>
      <trkpt lat="44.12036" lon="6.32661">
        <ele>911.12662575905</ele>
        <time>2021-10-04T19:23:20.492Z</time>
      </trkpt>
      <trkpt lat="44.12049" lon="6.32672">
        <ele>911.23310886897</ele>
        <time>2021-10-04T19:23:23.764Z</time>
      </trkpt>
      <trkpt lat="44.12068" lon="6.32694">
        <ele>911.33949467184</ele>
        <time>2021-10-04T19:23:27.041Z</time>
      </trkpt>
      <trkpt lat="44.12088" lon="6.32708">
        <ele>911.37051681966</ele>
        <time>2021-10-04T19:23:30.323Z</time>
      </trkpt>
      <trkpt lat="44.12091" lon="6.32728">
        <ele>911.45255914294</ele>
        <time>2021-10-04T19:23:33.608Z</time>
      </trkpt>
      <trkpt lat="44.12091" lon="6.32729">
        <ele>911.49884662798</ele>
        <time>2021-10-04T19:23:36.893Z</time>
      </trkpt>
      <trkpt lat="44.12091" lon="6.32729">
        <ele>911.52315070506</ele>
        <time>2021-10-04T19:23:40.178Z</time>
      </trkpt>
      <trkpt lat="44.12093" lon="6.32745">
        <ele>911.53947409055</ele>
        <time>2021-10-04T19:23:43.465Z</time>
      </trkpt>
      <trkpt lat="44.121" lon="6.3275">
        <ele>911.5113163808</ele>
        <time>2021-10-04T19:23:46.754Z</time>
      </trkpt>
      <trkpt lat="44.12106" lon="6.32763">
        <ele>911.47387928678</ele>
        <time>2021-10-04T19:23:50.045Z</time>
      </trkpt>
      <trkpt lat="44.12115" lon="6.32814">
        <ele>911.55597146023</ele>
        <time>2021-10-04T19:23:53.343Z</time>
      </trkpt>
      <trkpt lat="44.12128" lon="6.32839">
        <ele>911.51291270309</ele>
        <time>2021-10-04T19:23:56.646Z</time>
      </trkpt>
      <trkpt lat="44.12136" lon="6.32847">
        <ele>911.43884352774</ele>
        <time>2021-10-04T19:23:59.951Z</time>
      </trkpt>
      <trkpt lat="44.12156" lon="6.32861">
        <ele>911.33387230433</ele>
        <time>2021-10-04T19:24:03.260Z</time>
      </trkpt>
      <trkpt lat="44.1216" lon="6.32869">
        <ele>911.30950187821</ele>
        <time>2021-10-04T19:24:06.571Z</time>
      </trkpt>
      <trkpt lat="44.12161" lon="6.32879">
        <ele>911.34476516267</ele>
        <time>2021-10-04T19:24:09.883Z</time>
      </trkpt>
      <trkpt lat="44.12146" lon="6.32933">
        <ele>911.58205374701</ele>
        <time>2021-10-04T19:24:13.204Z</time>
      </trkpt>
      <trkpt lat="44.12157" lon="6.32993">
        <ele>911.76092039483</ele>
        <time>2021-10-04T19:24:16.533Z</time>
      </trkpt>
      <trkpt lat="44.12166" lon="6.3306">
        <ele>911.82347740749</ele>
        <time>2021-10-04T19:24:19.872Z</time>
      </trkpt>
      <trkpt lat="44.12167" lon="6.33078">
        <ele>912.19486968787</ele>
        <time>2021-10-04T19:24:23.214Z</time>
      </trkpt>
      <trkpt lat="44.1216" lon="6.33086">
        <ele>912.73632134798</ele>
        <time>2021-10-04T19:24:26.558Z</time>
      </trkpt>
      <trkpt lat="44.12132" lon="6.33103">
        <ele>913.52370625459</ele>
        <time>2021-10-04T19:24:29.908Z</time>
      </trkpt>
      <trkpt lat="44.12115" lon="6.33119">
        <ele>914.34928638159</ele>
        <time>2021-10-04T19:24:33.262Z</time>
      </trkpt>
      <trkpt lat="44.12106" lon="6.33146">
        <ele>915.34251968126</ele>
        <time>2021-10-04T19:24:36.620Z</time>
      </trkpt>
      <trkpt lat="44.12105" lon="6.33152">
        <ele>916.42503858086</ele>
        <time>2021-10-04T19:24:39.979Z</time>
      </trkpt>
      <trkpt lat="44.12105" lon="6.33153">
        <ele>917.6308366381</ele>
        <time>2021-10-04T19:24:43.338Z</time>
      </trkpt>
      <trkpt lat="44.12104" lon="6.33172">
        <ele>919.04551580739</ele>
        <time>2021-10-04T19:24:46.700Z</time>
      </trkpt>
      <trkpt lat="44.12106" lon="6.33183">
        <ele>920.55383127494</ele>
        <time>2021-10-04T19:24:50.064Z</time>
      </trkpt>
      <trkpt lat="44.12116" lon="6.33194">
        <ele>922.1709806895</ele>
        <time>2021-10-04T19:24:53.430Z</time>
      </trkpt>
      <trkpt lat="44.12139" lon="6.33215">
        <ele>923.90770527823</ele>
        <time>2021-10-04T19:24:56.802Z</time>
      </trkpt>
      <trkpt lat="44.12149" lon="6.33231">
        <ele>925.79575663771</ele>
        <time>2021-10-04T19:25:00.177Z</time>
      </trkpt>
      <trkpt lat="44.12168" lon="6.33265">
        <ele>927.85094716905</ele>
        <time>2021-10-04T19:25:03.558Z</time>
      </trkpt>
      <trkpt lat="44.12215" lon="6.33308">
        <ele>929.95876145756</ele>
        <time>2021-10-04T19:25:06.950Z</time>
      </trkpt>
      <trkpt lat="44.12237" lon="6.33319">
        <ele>932.01415759868</ele>
        <time>2021-10-04T19:25:10.347Z</time>
      </trkpt>
      <trkpt lat="44.12281" lon="6.33327">
        <ele>934.05590776469</ele>
        <time>2021-10-04T19:25:13.753Z</time>
      </trkpt>
      <trkpt lat="44.12307" lon="6.33314">
        <ele>935.94008736405</ele>
        <time>2021-10-04T19:25:17.164Z</time>
      </trkpt>
      <trkpt lat="44.12321" lon="6.33317">
        <ele>937.95500113819</ele>
        <time>2021-10-04T19:25:20.578Z</time>
      </trkpt>
      <trkpt lat="44.1234" lon="6.33327">
        <ele>940.05026516425</ele>
        <time>2021-10-04T19:25:23.996Z</time>
      </trkpt>
      <trkpt lat="44.12346" lon="6.33329">
        <ele>941.94417451955</ele>
        <time>2021-10-04T19:25:27.416Z</time>
      </trkpt>
      <trkpt lat="44.12347" lon="6.33329">
        <ele>943.72546291525</ele>
        <time>2021-10-04T19:25:30.836Z</time>
      </trkpt>
      <trkpt lat="44.12352" lon="6.33349">
        <ele>945.57718251769</ele>
        <time>2021-10-04T19:25:34.259Z</time>
      </trkpt>
      <trkpt lat="44.12352" lon="6.3335">
        <ele>947.11853358105</ele>
        <time>2021-10-04T19:25:37.682Z</time>
      </trkpt>
      <trkpt lat="44.12352" lon="6.33347">
        <ele>948.4654117319</ele>
        <time>2021-10-04T19:25:41.105Z</time>
      </trkpt>
      <trkpt lat="44.12344" lon="6.33347">
        <ele>949.63924964183</ele>
        <time>2021-10-04T19:25:44.530Z</time>
      </trkpt>
      <trkpt lat="44.12233" lon="6.33384">
        <ele>951.02409899131</ele>
        <time>2021-10-04T19:25:47.978Z</time>
      </trkpt>
      <trkpt lat="44.1216" lon="6.33371">
        <ele>951.86422177772</ele>
        <time>2021-10-04T19:25:51.441Z</time>
      </trkpt>
      <trkpt lat="44.12149" lon="6.33375">
        <ele>952.37676895213</ele>
        <time>2021-10-04T19:25:54.906Z</time>
      </trkpt>
      <trkpt lat="44.12135" lon="6.33395">
        <ele>952.69552441387</ele>
        <time>2021-10-04T19:25:58.375Z</time>
      </trkpt>
      <trkpt lat="44.12122" lon="6.33402">
        <ele>952.64824574403</ele>
        <time>2021-10-04T19:26:01.847Z</time>
      </trkpt>
      <trkpt lat="44.12116" lon="6.33403">
        <ele>952.33820683984</ele>
        <time>2021-10-04T19:26:05.320Z</time>
      </trkpt>
      <trkpt lat="44.12109" lon="6.3341">
        <ele>951.80833474467</ele>
        <time>2021-10-04T19:26:08.795Z</time>
      </trkpt>
      <trkpt lat="44.12104" lon="6.33428">
        <ele>951.12788059102</ele>
        <time>2021-10-04T19:26:12.272Z</time>
      </trkpt>
      <trkpt lat="44.121" lon="6.33439">
        <ele>950.277507526</ele>
        <time>2021-10-04T19:26:15.751Z</time>
      </trkpt>
      <trkpt lat="44.12088" lon="6.33435">
        <ele>949.17234271812</ele>
        <time>2021-10-04T19:26:19.233Z</time>
      </trkpt>
      <trkpt lat="44.1203" lon="6.33433">
        <ele>947.7458789479</ele>
        <time>2021-10-04T19:26:22.726Z</time>
      </trkpt>
      <trkpt lat="44.12008" lon="6.33429">
        <ele>946.60688398608</ele>
        <time>2021-10-04T19:26:26.224Z</time>
      </trkpt>
      <trkpt lat="44.12006" lon="6.33429">
        <ele>945.57404075583</ele>
        <time>2021-10-04T19:26:29.722Z</time>
      </trkpt>
      <trkpt lat="44.12006" lon="6.33429">
        <ele>944.65155779113</ele>
        <time>2021-10-04T19:26:33.220Z</time>
      </trkpt>
      <trkpt lat="44.11986" lon="6.33426">
        <ele>943.85435367637</ele>
        <time>2021-10-04T19:26:36.722Z</time>
      </trkpt>
      <trkpt lat="44.11974" lon="6.33414">
        <ele>943.26056946869</ele>
        <time>2021-10-04T19:26:40.227Z</time>
      </trkpt>
      <trkpt lat="44.11974" lon="6.33414">
        <ele>942.91334519512</ele>
        <time>2021-10-04T19:26:43.732Z</time>
      </trkpt>
      <trkpt lat="44.11962" lon="6.334">
        <ele>942.81716933678</ele>
        <time>2021-10-04T19:26:47.240Z</time>
      </trkpt>
      <trkpt lat="44.11933" lon="6.33375">
        <ele>943.10588597593</ele>
        <time>2021-10-04T19:26:50.755Z</time>
      </trkpt>
      <trkpt lat="44.11911" lon="6.33355">
        <ele>943.67704616766</ele>
        <time>2021-10-04T19:26:54.275Z</time>
      </trkpt>
      <trkpt lat="44.11877" lon="6.33339">
        <ele>944.47310690378</ele>
        <time>2021-10-04T19:26:57.803Z</time>
      </trkpt>
      <trkpt lat="44.11847" lon="6.33317">
        <ele>945.62163534383</ele>
        <time>2021-10-04T19:27:01.337Z</time>
      </trkpt>
      <trkpt lat="44.1184" lon="6.33331">
        <ele>946.98603171728</ele>
        <time>2021-10-04T19:27:04.874Z</time>
      </trkpt>
      <trkpt lat="44.11834" lon="6.33334">
        <ele>948.61974835451</ele>
        <time>2021-10-04T19:27:08.412Z</time>
      </trkpt>
      <trkpt lat="44.11803" lon="6.33337">
        <ele>950.61602677865</ele>
        <time>2021-10-04T19:27:11.956Z</time>
      </trkpt>
      <trkpt lat="44.11788" lon="6.33344">
        <ele>952.80383251564</ele>
        <time>2021-10-04T19:27:15.504Z</time>
      </trkpt>
      <trkpt lat="44.1175" lon="6.33344">
        <ele>955.34668100441</ele>
        <time>2021-10-04T19:27:19.059Z</time>
      </trkpt>
      <trkpt lat="44.11739" lon="6.33343">
        <ele>957.89128163907</ele>
        <time>2021-10-04T19:27:22.616Z</time>
      </trkpt>
      <trkpt lat="44.11719" lon="6.33335">
        <ele>960.5367134189</ele>
        <time>2021-10-04T19:27:26.177Z</time>
      </trkpt>
      <trkpt lat="44.11697" lon="6.33335">
        <ele>963.35195647928</ele>
        <time>2021-10-04T19:27:29.743Z</time>
      </trkpt>
      <trkpt lat="44.11678" lon="6.33327">
        <ele>966.27718008406</ele>
        <time>2021-10-04T19:27:33.313Z</time>
      </trkpt>
      <trkpt lat="44.11665" lon="6.3331">
        <ele>969.22806054844</ele>
        <time>2021-10-04T19:27:36.886Z</time>
      </trkpt>
      <trkpt lat="44.11641" lon="6.33303">
        <ele>972.32882257151</ele>
        <time>2021-10-04T19:27:40.464Z</time>
      </trkpt>
      <trkpt lat="44.11635" lon="6.33291">
        <ele>975.32505766426</ele>
        <time>2021-10-04T19:27:44.044Z</time>
      </trkpt>
      <trkpt lat="44.116" lon="6.33303">
        <ele>978.53655211072</ele>
        <time>2021-10-04T19:27:47.632Z</time>
      </trkpt>
      <trkpt lat="44.11584" lon="6.33302">
        <ele>981.5608202802</ele>
        <time>2021-10-04T19:27:51.223Z</time>
      </trkpt>
      <trkpt lat="44.11553" lon="6.33299">
        <ele>984.62288967646</ele>
        <time>2021-10-04T19:27:54.820Z</time>
      </trkpt>
      <trkpt lat="44.11538" lon="6.33288">
        <ele>987.55657259701</ele>
        <time>2021-10-04T19:27:58.420Z</time>
      </trkpt>
      <trkpt lat="44.11524" lon="6.33265">
        <ele>990.37851830591</ele>
        <time>2021-10-04T19:28:02.025Z</time>
      </trkpt>
      <trkpt lat="44.11511" lon="6.33238">
        <ele>992.98298211105</ele>
        <time>2021-10-04T19:28:05.634Z</time>
      </trkpt>
      <trkpt lat="44.11504" lon="6.33229">
        <ele>995.42650101659</ele>
        <time>2021-10-04T19:28:09.245Z</time>
      </trkpt>
      <trkpt lat="44.11484" lon="6.33214">
        <ele>997.78070057433</ele>
        <time>2021-10-04T19:28:12.861Z</time>
      </trkpt>
      <trkpt lat="44.11467" lon="6.33171">
        <ele>999.96720238749</ele>
        <time>2021-10-04T19:28:16.484Z</time>
      </trkpt>
      <trkpt lat="44.11451" lon="6.33142">
        <ele>1001.9061649285</ele>
        <time>2021-10-04T19:28:20.112Z</time>
      </trkpt>
      <trkpt lat="44.11433" lon="6.33119">
        <ele>1003.6316049052</ele>
        <time>2021-10-04T19:28:23.745Z</time>
      </trkpt>
      <trkpt lat="44.11409" lon="6.33078">
        <ele>1005.0884091377</ele>
        <time>2021-10-04T19:28:27.386Z</time>
      </trkpt>
      <trkpt lat="44.11384" lon="6.3306">
        <ele>1006.3640584986</ele>
        <time>2021-10-04T19:28:31.032Z</time>
      </trkpt>
      <trkpt lat="44.11368" lon="6.33043">
        <ele>1007.4019385773</ele>
        <time>2021-10-04T19:28:34.682Z</time>
      </trkpt>
      <trkpt lat="44.1132" lon="6.33023">
        <ele>1008.3065472562</ele>
        <time>2021-10-04T19:28:38.342Z</time>
      </trkpt>
      <trkpt lat="44.1131" lon="6.33023">
        <ele>1008.9222266213</ele>
        <time>2021-10-04T19:28:42.004Z</time>
      </trkpt>
      <trkpt lat="44.11299" lon="6.33018">
        <ele>1009.3186379563</ele>
        <time>2021-10-04T19:28:45.669Z</time>
      </trkpt>
      <trkpt lat="44.1129" lon="6.33017">
        <ele>1009.5187084634</ele>
        <time>2021-10-04T19:28:49.336Z</time>
      </trkpt>
      <trkpt lat="44.11278" lon="6.33021">
        <ele>1009.5884510895</ele>
        <time>2021-10-04T19:28:53.005Z</time>
      </trkpt>
      <trkpt lat="44.11261" lon="6.33009">
        <ele>1009.3956629365</ele>
        <time>2021-10-04T19:28:56.678Z</time>
      </trkpt>
      <trkpt lat="44.11252" lon="6.33008">
        <ele>1009.1111887791</ele>
        <time>2021-10-04T19:29:00.353Z</time>
      </trkpt>
      <trkpt lat="44.11249" lon="6.33007">
        <ele>1008.7042888853</ele>
        <time>2021-10-04T19:29:04.028Z</time>
      </trkpt>
      <trkpt lat="44.11249" lon="6.33007">
        <ele>1008.2064104729</ele>
        <time>2021-10-04T19:29:07.703Z</time>
      </trkpt>
      <trkpt lat="44.11237" lon="6.33006">
        <ele>1007.6451962982</ele>
        <time>2021-10-04T19:29:11.381Z</time>
      </trkpt>
      <trkpt lat="44.1122" lon="6.3301">
        <ele>1007.1762189286</ele>
        <time>2021-10-04T19:29:15.062Z</time>
      </trkpt>
      <trkpt lat="44.11202" lon="6.32999">
        <ele>1006.6300761401</ele>
        <time>2021-10-04T19:29:18.747Z</time>
      </trkpt>
      <trkpt lat="44.11193" lon="6.32971">
        <ele>1006.0357943329</ele>
        <time>2021-10-04T19:29:22.436Z</time>
      </trkpt>
      <trkpt lat="44.11196" lon="6.32944">
        <ele>1005.4357860353</ele>
        <time>2021-10-04T19:29:26.129Z</time>
      </trkpt>
      <trkpt lat="44.11193" lon="6.32896">
        <ele>1005.0161032404</ele>
        <time>2021-10-04T19:29:29.829Z</time>
      </trkpt>
      <trkpt lat="44.11187" lon="6.32863">
        <ele>1004.721912245</ele>
        <time>2021-10-04T19:29:33.534Z</time>
      </trkpt>
      <trkpt lat="44.11185" lon="6.32828">
        <ele>1004.4712165521</ele>
        <time>2021-10-04T19:29:37.244Z</time>
      </trkpt>
      <trkpt lat="44.11174" lon="6.32806">
        <ele>1004.5152625561</ele>
        <time>2021-10-04T19:29:40.958Z</time>
      </trkpt>
      <trkpt lat="44.11148" lon="6.32784">
        <ele>1005.0069845706</ele>
        <time>2021-10-04T19:29:44.678Z</time>
      </trkpt>
      <trkpt lat="44.11136" lon="6.32761">
        <ele>1005.7485369124</ele>
        <time>2021-10-04T19:29:48.402Z</time>
      </trkpt>
      <trkpt lat="44.11133" lon="6.32746">
        <ele>1006.8405887325</ele>
        <time>2021-10-04T19:29:52.128Z</time>
      </trkpt>
      <trkpt lat="44.11131" lon="6.32726">
        <ele>1008.3371508034</ele>
        <time>2021-10-04T19:29:55.857Z</time>
      </trkpt>
      <trkpt lat="44.1115" lon="6.32727">
        <ele>1010.155299718</ele>
        <time>2021-10-04T19:29:59.590Z</time>
      </trkpt>
      <trkpt lat="44.11159" lon="6.32711">
        <ele>1012.5118752633</ele>
        <time>2021-10-04T19:30:03.326Z</time>
      </trkpt>
      <trkpt lat="44.11159" lon="6.32688">
        <ele>1015.4047345578</ele>
        <time>2021-10-04T19:30:07.065Z</time>
      </trkpt>
      <trkpt lat="44.11152" lon="6.32663">
        <ele>1018.8301977521</ele>
        <time>2021-10-04T19:30:10.808Z</time>
      </trkpt>
      <trkpt lat="44.11152" lon="6.32639">
        <ele>1022.76712236</ele>
        <time>2021-10-04T19:30:14.555Z</time>
      </trkpt>
      <trkpt lat="44.11162" lon="6.32618">
        <ele>1026.9667738614</ele>
        <time>2021-10-04T19:30:18.305Z</time>
      </trkpt>
      <trkpt lat="44.11157" lon="6.32596">
        <ele>1031.562677923</ele>
        <time>2021-10-04T19:30:22.059Z</time>
      </trkpt>
      <trkpt lat="44.11147" lon="6.32583">
        <ele>1036.3541007269</ele>
        <time>2021-10-04T19:30:25.815Z</time>
      </trkpt>
      <trkpt lat="44.11151" lon="6.32567">
        <ele>1041.2303313322</ele>
        <time>2021-10-04T19:30:29.574Z</time>
      </trkpt>
      <trkpt lat="44.11142" lon="6.32546">
        <ele>1046.3558834906</ele>
        <time>2021-10-04T19:30:33.336Z</time>
      </trkpt>
      <trkpt lat="44.11141" lon="6.32517">
        <ele>1051.6202046623</ele>
        <time>2021-10-04T19:30:37.103Z</time>
      </trkpt>
      <trkpt lat="44.11158" lon="6.32485">
        <ele>1056.9281146986</ele>
        <time>2021-10-04T19:30:40.875Z</time>
      </trkpt>
      <trkpt lat="44.11152" lon="6.32464">
        <ele>1061.8128914425</ele>
        <time>2021-10-04T19:30:44.651Z</time>
      </trkpt>
      <trkpt lat="44.11166" lon="6.3244">
        <ele>1066.3081931214</ele>
        <time>2021-10-04T19:30:48.431Z</time>
      </trkpt>
      <trkpt lat="44.11172" lon="6.32419">
        <ele>1070.3355079495</ele>
        <time>2021-10-04T19:30:52.214Z</time>
      </trkpt>
      <trkpt lat="44.11176" lon="6.32417">
        <ele>1073.7580578763</ele>
        <time>2021-10-04T19:30:55.998Z</time>
      </trkpt>
      <trkpt lat="44.11171" lon="6.32405">
        <ele>1076.5846345979</ele>
        <time>2021-10-04T19:30:59.784Z</time>
      </trkpt>
      <trkpt lat="44.11171" lon="6.32393">
        <ele>1078.7673885994</ele>
        <time>2021-10-04T19:31:03.572Z</time>
      </trkpt>
      <trkpt lat="44.11171" lon="6.32389">
        <ele>1080.2186087591</ele>
        <time>2021-10-04T19:31:07.361Z</time>
      </trkpt>
      <trkpt lat="44.11176" lon="6.32375">
        <ele>1080.9814457059</ele>
        <time>2021-10-04T19:31:11.152Z</time>
      </trkpt>
      <trkpt lat="44.11177" lon="6.32371">
        <ele>1080.8975002449</ele>
        <time>2021-10-04T19:31:14.943Z</time>
      </trkpt>
      <trkpt lat="44.11292" lon="6.32355">
        <ele>1080.1244328737</ele>
        <time>2021-10-04T19:31:18.758Z</time>
      </trkpt>
      <trkpt lat="44.11295" lon="6.32355">
        <ele>1078.427746436</ele>
        <time>2021-10-04T19:31:22.573Z</time>
      </trkpt>
      <trkpt lat="44.11377" lon="6.32295">
        <ele>1076.0441112975</ele>
        <time>2021-10-04T19:31:26.407Z</time>
      </trkpt>
      <trkpt lat="44.1138" lon="6.32293">
        <ele>1072.7778250775</ele>
        <time>2021-10-04T19:31:30.241Z</time>
      </trkpt>
      <trkpt lat="44.11408" lon="6.32379">
        <ele>1068.1003193045</ele>
        <time>2021-10-04T19:31:34.089Z</time>
      </trkpt>
      <trkpt lat="44.11409" lon="6.32383">
        <ele>1063.4948704877</ele>
        <time>2021-10-04T19:31:37.937Z</time>
      </trkpt>
      <trkpt lat="44.1147" lon="6.32436">
        <ele>1057.5515352852</ele>
        <time>2021-10-04T19:31:41.800Z</time>
      </trkpt>
      <trkpt lat="44.11472" lon="6.32438">
        <ele>1052.0065084017</ele>
        <time>2021-10-04T19:31:45.663Z</time>
      </trkpt>
      <trkpt lat="44.11512" lon="6.3245">
        <ele>1045.7286168552</ele>
        <time>2021-10-04T19:31:49.534Z</time>
      </trkpt>
      <trkpt lat="44.11515" lon="6.32451">
        <ele>1039.6742553896</ele>
        <time>2021-10-04T19:31:53.406Z</time>
      </trkpt>
      <trkpt lat="44.11588" lon="6.32394">
        <ele>1033.2002066146</ele>
        <time>2021-10-04T19:31:57.295Z</time>
      </trkpt>
      <trkpt lat="44.11591" lon="6.32392">
        <ele>1027.0418966594</ele>
        <time>2021-10-04T19:32:01.185Z</time>
      </trkpt>
      <trkpt lat="44.11639" lon="6.32396">
        <ele>1020.7658024035</ele>
        <time>2021-10-04T19:32:05.084Z</time>
      </trkpt>
      <trkpt lat="44.11642" lon="6.32397">
        <ele>1014.7213118312</ele>
        <time>2021-10-04T19:32:08.984Z</time>
      </trkpt>
      <trkpt lat="44.11721" lon="6.32291">
        <ele>1008.4488816814</ele>
        <time>2021-10-04T19:32:12.906Z</time>
      </trkpt>
      <trkpt lat="44.11724" lon="6.32288">
        <ele>1002.7328564503</ele>
        <time>2021-10-04T19:32:16.828Z</time>
      </trkpt>
      <trkpt lat="44.11813" lon="6.32287">
        <ele>996.50528441275</ele>
        <time>2021-10-04T19:32:20.768Z</time>
      </trkpt>
      <trkpt lat="44.11816" lon="6.32287">
        <ele>991.28671195416</ele>
        <time>2021-10-04T19:32:24.709Z</time>
      </trkpt>
      <trkpt lat="44.11873" lon="6.3217">
        <ele>986.68723589941</ele>
        <time>2021-10-04T19:32:28.670Z</time>
      </trkpt>
      <trkpt lat="44.11875" lon="6.32167">
        <ele>982.06951725568</ele>
        <time>2021-10-04T19:32:32.632Z</time>
      </trkpt>
      <trkpt lat="44.11857" lon="6.31994">
        <ele>977.28302369702</ele>
        <time>2021-10-04T19:32:36.619Z</time>
      </trkpt>
      <trkpt lat="44.11856" lon="6.3199">
        <ele>973.28299838044</ele>
        <time>2021-10-04T19:32:40.606Z</time>
      </trkpt>
      <trkpt lat="44.11933" lon="6.32081">
        <ele>969.37744030674</ele>
        <time>2021-10-04T19:32:44.614Z</time>
      </trkpt>
      <trkpt lat="44.11935" lon="6.32083">
        <ele>966.0016209987</ele>
        <time>2021-10-04T19:32:48.622Z</time>
      </trkpt>
      <trkpt lat="44.1209" lon="6.32164">
        <ele>962.15239793889</ele>
        <time>2021-10-04T19:32:52.663Z</time>
      </trkpt>
      <trkpt lat="44.12093" lon="6.32166">
        <ele>959.4584354514</ele>
        <time>2021-10-04T19:32:56.705Z</time>
      </trkpt>
      <trkpt lat="44.12143" lon="6.32173">
        <ele>957.1973759784</ele>
        <time>2021-10-04T19:33:00.757Z</time>
      </trkpt>
      <trkpt lat="44.12146" lon="6.32174">
        <ele>955.15487647858</ele>
        <time>2021-10-04T19:33:04.810Z</time>
      </trkpt>
      <trkpt lat="44.12159" lon="6.32162">
        <ele>953.43034129915</ele>
        <time>2021-10-04T19:33:08.866Z</time>
      </trkpt>
      <trkpt lat="44.12161" lon="6.3216">
        <ele>951.94311267292</ele>
        <time>2021-10-04T19:33:12.922Z</time>
      </trkpt>
      <trkpt lat="44.12162" lon="6.32163">
        <ele>950.66587681008</ele>
        <time>2021-10-04T19:33:16.979Z</time>
      </trkpt>
      <trkpt lat="44.12162" lon="6.32163">
        <ele>953.48358675148</ele>
        <time>2021-10-04T19:33:21.036Z</time>
      </trkpt>
      <trkpt lat="44.12162" lon="6.32163">
        <ele>950.66587681008</ele>
        <time>2021-10-04T19:33:25.093Z</time>
      </trkpt>
      <trkpt lat="44.12142" lon="6.32113">
        <ele>947.70892608064</ele>
        <time>2021-10-04T19:33:29.158Z</time>
      </trkpt>
      <trkpt lat="44.12102" lon="6.3205">
        <ele>946.80865971045</ele>
        <time>2021-10-04T19:33:33.235Z</time>
      </trkpt>
      <trkpt lat="44.12087" lon="6.31989">
        <ele>946.17257296208</ele>
        <time>2021-10-04T19:33:37.322Z</time>
      </trkpt>
      <trkpt lat="44.12073" lon="6.31949">
        <ele>945.67975330047</ele>
        <time>2021-10-04T19:33:41.415Z</time>
      </trkpt>
      <trkpt lat="44.1207" lon="6.31942">
        <ele>945.27326535143</ele>
        <time>2021-10-04T19:33:45.509Z</time>
      </trkpt>
      <trkpt lat="44.12061" lon="6.31935">
        <ele>944.93900888997</ele>
        <time>2021-10-04T19:33:49.605Z</time>
      </trkpt>
      <trkpt lat="44.12054" lon="6.31932">
        <ele>944.6748120418</ele>
        <time>2021-10-04T19:33:53.703Z</time>
      </trkpt>
      <trkpt lat="44.12034" lon="6.31926">
        <ele>944.46195563561</ele>
        <time>2021-10-04T19:33:57.805Z</time>
      </trkpt>
      <trkpt lat="44.1203" lon="6.31924">
        <ele>944.29704982976</ele>
        <time>2021-10-04T19:34:01.907Z</time>
      </trkpt>
      <trkpt lat="44.12024" lon="6.31906">
        <ele>944.13426239237</ele>
        <time>2021-10-04T19:34:06.012Z</time>
      </trkpt>
      <trkpt lat="44.12012" lon="6.3189">
        <ele>944.0359178451</ele>
        <time>2021-10-04T19:34:10.121Z</time>
      </trkpt>
      <trkpt lat="44.12005" lon="6.31873">
        <ele>943.98954993733</ele>
        <time>2021-10-04T19:34:14.233Z</time>
      </trkpt>
      <trkpt lat="44.11994" lon="6.31863">
        <ele>944.0309065669</ele>
        <time>2021-10-04T19:34:18.347Z</time>
      </trkpt>
      <trkpt lat="44.11981" lon="6.31837">
        <ele>944.2078186939</ele>
        <time>2021-10-04T19:34:22.466Z</time>
      </trkpt>
      <trkpt lat="44.11977" lon="6.31819">
        <ele>944.41430913226</ele>
        <time>2021-10-04T19:34:26.587Z</time>
      </trkpt>
      <trkpt lat="44.11972" lon="6.31774">
        <ele>944.69584796123</ele>
        <time>2021-10-04T19:34:30.715Z</time>
      </trkpt>
      <trkpt lat="44.11954" lon="6.31762">
        <ele>945.02160398862</ele>
        <time>2021-10-04T19:34:34.847Z</time>
      </trkpt>
      <trkpt lat="44.11923" lon="6.31751">
        <ele>945.32144293201</ele>
        <time>2021-10-04T19:34:38.985Z</time>
      </trkpt>
      <trkpt lat="44.11917" lon="6.3175">
        <ele>945.7812906915</ele>
        <time>2021-10-04T19:34:43.125Z</time>
      </trkpt>
      <trkpt lat="44.11893" lon="6.31741">
        <ele>946.35164147628</ele>
        <time>2021-10-04T19:34:47.270Z</time>
      </trkpt>
      <trkpt lat="44.11889" lon="6.31722">
        <ele>946.94131529683</ele>
        <time>2021-10-04T19:34:51.417Z</time>
      </trkpt>
      <trkpt lat="44.11889" lon="6.31676">
        <ele>947.6116174862</ele>
        <time>2021-10-04T19:34:55.571Z</time>
      </trkpt>
      <trkpt lat="44.11884" lon="6.31669">
        <ele>948.49924994138</ele>
        <time>2021-10-04T19:34:59.727Z</time>
      </trkpt>
      <trkpt lat="44.11867" lon="6.31654">
        <ele>949.69427401374</ele>
        <time>2021-10-04T19:35:03.887Z</time>
      </trkpt>
      <trkpt lat="44.11866" lon="6.31649">
        <ele>950.7440607316</ele>
        <time>2021-10-04T19:35:08.047Z</time>
      </trkpt>
      <trkpt lat="44.11868" lon="6.31631">
        <ele>951.82429845432</ele>
        <time>2021-10-04T19:35:12.210Z</time>
      </trkpt>
      <trkpt lat="44.11875" lon="6.31606">
        <ele>952.85092372839</ele>
        <time>2021-10-04T19:35:16.377Z</time>
      </trkpt>
      <trkpt lat="44.11874" lon="6.31597">
        <ele>953.94182989058</ele>
        <time>2021-10-04T19:35:20.545Z</time>
      </trkpt>
      <trkpt lat="44.11865" lon="6.3158">
        <ele>955.15068732533</ele>
        <time>2021-10-04T19:35:24.716Z</time>
      </trkpt>
      <trkpt lat="44.11841" lon="6.3157">
        <ele>956.46521510546</ele>
        <time>2021-10-04T19:35:28.892Z</time>
      </trkpt>
      <trkpt lat="44.11836" lon="6.31568">
        <ele>957.43102416645</ele>
        <time>2021-10-04T19:35:33.069Z</time>
      </trkpt>
      <trkpt lat="44.11834" lon="6.31567">
        <ele>958.24908489369</ele>
        <time>2021-10-04T19:35:37.247Z</time>
      </trkpt>
      <trkpt lat="44.1182" lon="6.31564">
        <ele>959.01302374278</ele>
        <time>2021-10-04T19:35:41.428Z</time>
      </trkpt>
      <trkpt lat="44.11808" lon="6.31553">
        <ele>959.50281579665</ele>
        <time>2021-10-04T19:35:45.611Z</time>
      </trkpt>
      <trkpt lat="44.11813" lon="6.31508">
        <ele>959.64085032477</ele>
        <time>2021-10-04T19:35:49.801Z</time>
      </trkpt>
      <trkpt lat="44.11812" lon="6.31487">
        <ele>959.75432737617</ele>
        <time>2021-10-04T19:35:53.994Z</time>
      </trkpt>
      <trkpt lat="44.11788" lon="6.31469">
        <ele>959.82673199745</ele>
        <time>2021-10-04T19:35:58.193Z</time>
      </trkpt>
      <trkpt lat="44.11768" lon="6.31445">
        <ele>959.71467018699</ele>
        <time>2021-10-04T19:36:02.397Z</time>
      </trkpt>
      <trkpt lat="44.11766" lon="6.31416">
        <ele>959.39520541237</ele>
        <time>2021-10-04T19:36:06.605Z</time>
      </trkpt>
      <trkpt lat="44.11761" lon="6.31392">
        <ele>959.06364018644</ele>
        <time>2021-10-04T19:36:10.817Z</time>
      </trkpt>
      <trkpt lat="44.11755" lon="6.31388">
        <ele>958.68469373504</ele>
        <time>2021-10-04T19:36:15.030Z</time>
      </trkpt>
      <trkpt lat="44.11748" lon="6.31362">
        <ele>958.1810021938</ele>
        <time>2021-10-04T19:36:19.247Z</time>
      </trkpt>
      <trkpt lat="44.11738" lon="6.31365">
        <ele>957.67772522348</ele>
        <time>2021-10-04T19:36:23.466Z</time>
      </trkpt>
      <trkpt lat="44.11732" lon="6.31367">
        <ele>957.08460195487</ele>
        <time>2021-10-04T19:36:27.686Z</time>
      </trkpt>
      <trkpt lat="44.11732" lon="6.31367">
        <ele>956.42108035743</ele>
        <time>2021-10-04T19:36:31.906Z</time>
      </trkpt>
      <trkpt lat="44.11716" lon="6.31372">
        <ele>955.76160476197</ele>
        <time>2021-10-04T19:36:36.129Z</time>
      </trkpt>
      <trkpt lat="44.11714" lon="6.31371">
        <ele>955.00069547164</ele>
        <time>2021-10-04T19:36:40.353Z</time>
      </trkpt>
      <trkpt lat="44.11708" lon="6.31368">
        <ele>954.18731865591</ele>
        <time>2021-10-04T19:36:44.578Z</time>
      </trkpt>
      <trkpt lat="44.11708" lon="6.31368">
        <ele>953.35191420644</ele>
        <time>2021-10-04T19:36:48.803Z</time>
      </trkpt>
      <trkpt lat="44.11683" lon="6.31355">
        <ele>952.40067432881</ele>
        <time>2021-10-04T19:36:53.033Z</time>
      </trkpt>
      <trkpt lat="44.11678" lon="6.31352">
        <ele>951.51146678643</ele>
        <time>2021-10-04T19:36:57.265Z</time>
      </trkpt>
      <trkpt lat="44.11657" lon="6.31348">
        <ele>950.57062036554</ele>
        <time>2021-10-04T19:37:01.501Z</time>
      </trkpt>
      <trkpt lat="44.11652" lon="6.31347">
        <ele>949.74288734759</ele>
        <time>2021-10-04T19:37:05.738Z</time>
      </trkpt>
      <trkpt lat="44.11622" lon="6.31347">
        <ele>948.88451827539</ele>
        <time>2021-10-04T19:37:09.981Z</time>
      </trkpt>
      <trkpt lat="44.11616" lon="6.31346">
        <ele>948.19885124243</ele>
        <time>2021-10-04T19:37:14.225Z</time>
      </trkpt>
      <trkpt lat="44.11587" lon="6.31335">
        <ele>947.5920784159</ele>
        <time>2021-10-04T19:37:18.475Z</time>
      </trkpt>
      <trkpt lat="44.11582" lon="6.31333">
        <ele>947.09918396421</ele>
        <time>2021-10-04T19:37:22.726Z</time>
      </trkpt>
      <trkpt lat="44.11552" lon="6.31323">
        <ele>946.74685020229</ele>
        <time>2021-10-04T19:37:26.983Z</time>
      </trkpt>
      <trkpt lat="44.11547" lon="6.31321">
        <ele>946.47720687288</ele>
        <time>2021-10-04T19:37:31.241Z</time>
      </trkpt>
      <trkpt lat="44.11528" lon="6.31307">
        <ele>946.28252009381</ele>
        <time>2021-10-04T19:37:35.504Z</time>
      </trkpt>
      <trkpt lat="44.11522" lon="6.31303">
        <ele>946.22479157419</ele>
        <time>2021-10-04T19:37:39.768Z</time>
      </trkpt>
      <trkpt lat="44.11495" lon="6.313">
        <ele>946.25121315776</ele>
        <time>2021-10-04T19:37:44.037Z</time>
      </trkpt>
      <trkpt lat="44.11489" lon="6.31299">
        <ele>946.4208862804</ele>
        <time>2021-10-04T19:37:48.307Z</time>
      </trkpt>
      <trkpt lat="44.11464" lon="6.31291">
        <ele>946.71044848481</ele>
        <time>2021-10-04T19:37:52.583Z</time>
      </trkpt>
      <trkpt lat="44.11458" lon="6.31289">
        <ele>947.0955038086</ele>
        <time>2021-10-04T19:37:56.860Z</time>
      </trkpt>
      <trkpt lat="44.11426" lon="6.31316">
        <ele>947.61319055539</ele>
        <time>2021-10-04T19:38:01.144Z</time>
      </trkpt>
      <trkpt lat="44.11421" lon="6.3132">
        <ele>948.14947121568</ele>
        <time>2021-10-04T19:38:05.429Z</time>
      </trkpt>
      <trkpt lat="44.1141" lon="6.31327">
        <ele>948.71529399176</ele>
        <time>2021-10-04T19:38:09.717Z</time>
      </trkpt>
      <trkpt lat="44.11404" lon="6.3133">
        <ele>949.33339575227</ele>
        <time>2021-10-04T19:38:14.006Z</time>
      </trkpt>
      <trkpt lat="44.11365" lon="6.313">
        <ele>949.85363334375</ele>
        <time>2021-10-04T19:38:18.304Z</time>
      </trkpt>
      <trkpt lat="44.1136" lon="6.31297">
        <ele>950.49401008249</ele>
        <time>2021-10-04T19:38:22.603Z</time>
      </trkpt>
      <trkpt lat="44.11319" lon="6.3127">
        <ele>951.44611632635</ele>
        <time>2021-10-04T19:38:26.911Z</time>
      </trkpt>
      <trkpt lat="44.11314" lon="6.31266">
        <ele>951.97269919136</ele>
        <time>2021-10-04T19:38:31.220Z</time>
      </trkpt>
      <trkpt lat="44.11251" lon="6.3122">
        <ele>952.69310315651</ele>
        <time>2021-10-04T19:38:35.544Z</time>
      </trkpt>
      <trkpt lat="44.11246" lon="6.31216">
        <ele>952.87338523322</ele>
        <time>2021-10-04T19:38:39.869Z</time>
      </trkpt>
      <trkpt lat="44.11156" lon="6.31113">
        <ele>953.06340359769</ele>
        <time>2021-10-04T19:38:44.217Z</time>
      </trkpt>
      <trkpt lat="44.11152" lon="6.31108">
        <ele>952.79690145446</ele>
        <time>2021-10-04T19:38:48.566Z</time>
      </trkpt>
      <trkpt lat="44.11076" lon="6.30962">
        <ele>951.20767674053</ele>
        <time>2021-10-04T19:38:52.941Z</time>
      </trkpt>
      <trkpt lat="44.11072" lon="6.30955">
        <ele>950.38914824025</ele>
        <time>2021-10-04T19:38:57.317Z</time>
      </trkpt>
      <trkpt lat="44.10961" lon="6.30883">
        <ele>949.92185135855</ele>
        <time>2021-10-04T19:39:01.718Z</time>
      </trkpt>
      <trkpt lat="44.10956" lon="6.30879">
        <ele>948.8764063787</ele>
        <time>2021-10-04T19:39:06.120Z</time>
      </trkpt>
      <trkpt lat="44.10863" lon="6.30772">
        <ele>947.843620234</ele>
        <time>2021-10-04T19:39:10.546Z</time>
      </trkpt>
      <trkpt lat="44.10859" lon="6.30767">
        <ele>946.47524199498</ele>
        <time>2021-10-04T19:39:14.973Z</time>
      </trkpt>
      <trkpt lat="44.10826" lon="6.30746">
        <ele>944.95236509152</ele>
        <time>2021-10-04T19:39:19.408Z</time>
      </trkpt>
      <trkpt lat="44.1082" lon="6.30743">
        <ele>943.43465758837</ele>
        <time>2021-10-04T19:39:23.844Z</time>
      </trkpt>
      <trkpt lat="44.10789" lon="6.30705">
        <ele>941.53676550953</ele>
        <time>2021-10-04T19:39:28.288Z</time>
      </trkpt>
      <trkpt lat="44.10784" lon="6.307">
        <ele>940.09248519119</ele>
        <time>2021-10-04T19:39:32.733Z</time>
      </trkpt>
      <trkpt lat="44.10769" lon="6.30628">
        <ele>938.38814178239</ele>
        <time>2021-10-04T19:39:37.189Z</time>
      </trkpt>
      <trkpt lat="44.10767" lon="6.30621">
        <ele>937.37438679667</ele>
        <time>2021-10-04T19:39:41.646Z</time>
      </trkpt>
      <trkpt lat="44.10764" lon="6.30546">
        <ele>936.44377335835</ele>
        <time>2021-10-04T19:39:46.114Z</time>
      </trkpt>
      <trkpt lat="44.10764" lon="6.30538">
        <ele>936.02482706019</ele>
        <time>2021-10-04T19:39:50.583Z</time>
      </trkpt>
      <trkpt lat="44.10753" lon="6.30457">
        <ele>936.05606438269</ele>
        <time>2021-10-04T19:39:55.064Z</time>
      </trkpt>
      <trkpt lat="44.10752" lon="6.30449">
        <ele>936.38542136973</ele>
        <time>2021-10-04T19:39:59.546Z</time>
      </trkpt>
      <trkpt lat="44.10742" lon="6.30389">
        <ele>937.13114485838</ele>
        <time>2021-10-04T19:40:04.037Z</time>
      </trkpt>
      <trkpt lat="44.1074" lon="6.30381">
        <ele>938.08243426448</ele>
        <time>2021-10-04T19:40:08.529Z</time>
      </trkpt>
      <trkpt lat="44.10654" lon="6.30182">
        <ele>940.11253116322</ele>
        <time>2021-10-04T19:40:13.055Z</time>
      </trkpt>
      <trkpt lat="44.10652" lon="6.30175">
        <ele>941.49255971695</ele>
        <time>2021-10-04T19:40:17.582Z</time>
      </trkpt>
      <trkpt lat="44.10645" lon="6.30149">
        <ele>943.018616823</ele>
        <time>2021-10-04T19:40:22.113Z</time>
      </trkpt>
      <trkpt lat="44.10643" lon="6.30141">
        <ele>944.55764281566</ele>
        <time>2021-10-04T19:40:26.645Z</time>
      </trkpt>
      <trkpt lat="44.10643" lon="6.30141">
        <ele>946.09526928821</ele>
        <time>2021-10-04T19:40:31.177Z</time>
      </trkpt>
      <trkpt lat="44.10645" lon="6.30141">
        <ele>947.58674561077</ele>
        <time>2021-10-04T19:40:35.709Z</time>
      </trkpt>
      <trkpt lat="44.10645" lon="6.30138">
        <ele>948.99873530974</ele>
        <time>2021-10-04T19:40:40.242Z</time>
      </trkpt>
      <trkpt lat="44.10633" lon="6.30117">
        <ele>950.33480503971</ele>
        <time>2021-10-04T19:40:44.779Z</time>
      </trkpt>
      <trkpt lat="44.10616" lon="6.3005">
        <ele>951.60363862969</ele>
        <time>2021-10-04T19:40:49.326Z</time>
      </trkpt>
      <trkpt lat="44.10615" lon="6.30029">
        <ele>952.65162589807</ele>
        <time>2021-10-04T19:40:53.876Z</time>
      </trkpt>
      <trkpt lat="44.10617" lon="6.30023">
        <ele>953.40689375482</ele>
        <time>2021-10-04T19:40:58.427Z</time>
      </trkpt>
      <trkpt lat="44.10609" lon="6.29992">
        <ele>954.10800086799</ele>
        <time>2021-10-04T19:41:02.983Z</time>
      </trkpt>
      <trkpt lat="44.10575" lon="6.29999">
        <ele>954.57570553245</ele>
        <time>2021-10-04T19:41:07.546Z</time>
      </trkpt>
      <trkpt lat="44.10563" lon="6.29998">
        <ele>954.7275771157</ele>
        <time>2021-10-04T19:41:12.111Z</time>
      </trkpt>
      <trkpt lat="44.10541" lon="6.29983">
        <ele>954.64831944439</ele>
        <time>2021-10-04T19:41:16.681Z</time>
      </trkpt>
      <trkpt lat="44.10473" lon="6.29987">
        <ele>954.34002609192</ele>
        <time>2021-10-04T19:41:21.265Z</time>
      </trkpt>
      <trkpt lat="44.10467" lon="6.29977">
        <ele>954.10117679995</ele>
        <time>2021-10-04T19:41:25.850Z</time>
      </trkpt>
      <trkpt lat="44.10447" lon="6.29964">
        <ele>953.82921676168</ele>
        <time>2021-10-04T19:41:30.440Z</time>
      </trkpt>
      <trkpt lat="44.10441" lon="6.29946">
        <ele>953.48428765555</ele>
        <time>2021-10-04T19:41:35.033Z</time>
      </trkpt>
      <trkpt lat="44.10393" lon="6.29893">
        <ele>953.04990363332</ele>
        <time>2021-10-04T19:41:39.638Z</time>
      </trkpt>
      <trkpt lat="44.10356" lon="6.2987">
        <ele>952.75769355728</ele>
        <time>2021-10-04T19:41:44.251Z</time>
      </trkpt>
      <trkpt lat="44.10339" lon="6.29853">
        <ele>952.53601676888</ele>
        <time>2021-10-04T19:41:48.868Z</time>
      </trkpt>
      <trkpt lat="44.10322" lon="6.29832">
        <ele>952.43391269411</ele>
        <time>2021-10-04T19:41:53.490Z</time>
      </trkpt>
      <trkpt lat="44.10317" lon="6.29827">
        <ele>952.43460569522</ele>
        <time>2021-10-04T19:41:58.113Z</time>
      </trkpt>
      <trkpt lat="44.10317" lon="6.29827">
        <ele>952.56973474176</ele>
        <time>2021-10-04T19:42:02.736Z</time>
      </trkpt>
      <trkpt lat="44.10312" lon="6.29821">
        <ele>952.86731602354</ele>
        <time>2021-10-04T19:42:07.360Z</time>
      </trkpt>
      <trkpt lat="44.10308" lon="6.29804">
        <ele>953.30184891539</ele>
        <time>2021-10-04T19:42:11.987Z</time>
      </trkpt>
      <trkpt lat="44.10287" lon="6.29786">
        <ele>953.97525008145</ele>
        <time>2021-10-04T19:42:16.619Z</time>
      </trkpt>
      <trkpt lat="44.10277" lon="6.29763">
        <ele>954.79857287655</ele>
        <time>2021-10-04T19:42:21.255Z</time>
      </trkpt>
      <trkpt lat="44.10254" lon="6.29732">
        <ele>955.88111107005</ele>
        <time>2021-10-04T19:42:25.897Z</time>
      </trkpt>
      <trkpt lat="44.10253" lon="6.29711">
        <ele>957.03826063464</ele>
        <time>2021-10-04T19:42:30.542Z</time>
      </trkpt>
      <trkpt lat="44.10247" lon="6.29691">
        <ele>958.31848775602</ele>
        <time>2021-10-04T19:42:35.190Z</time>
      </trkpt>
      <trkpt lat="44.10239" lon="6.29675">
        <ele>959.65194482512</ele>
        <time>2021-10-04T19:42:39.841Z</time>
      </trkpt>
      <trkpt lat="44.10228" lon="6.29625">
        <ele>961.06710046422</ele>
        <time>2021-10-04T19:42:44.500Z</time>
      </trkpt>
      <trkpt lat="44.10205" lon="6.29582">
        <ele>962.59953321225</ele>
        <time>2021-10-04T19:42:49.166Z</time>
      </trkpt>
      <trkpt lat="44.10185" lon="6.29541">
        <ele>964.1141969151</ele>
        <time>2021-10-04T19:42:53.839Z</time>
      </trkpt>
      <trkpt lat="44.10185" lon="6.29527">
        <ele>965.54676561454</ele>
        <time>2021-10-04T19:42:58.514Z</time>
      </trkpt>
      <trkpt lat="44.10165" lon="6.29485">
        <ele>967.05898000801</ele>
        <time>2021-10-04T19:43:03.197Z</time>
      </trkpt>
      <trkpt lat="44.1015" lon="6.29481">
        <ele>968.51105306313</ele>
        <time>2021-10-04T19:43:07.883Z</time>
      </trkpt>
      <trkpt lat="44.10149" lon="6.29476">
        <ele>969.8349741036</ele>
        <time>2021-10-04T19:43:12.569Z</time>
      </trkpt>
      <trkpt lat="44.10151" lon="6.29465">
        <ele>971.09364065803</ele>
        <time>2021-10-04T19:43:17.257Z</time>
      </trkpt>
      <trkpt lat="44.1015" lon="6.29457">
        <ele>972.23562072648</ele>
        <time>2021-10-04T19:43:21.946Z</time>
      </trkpt>
      <trkpt lat="44.10143" lon="6.29445">
        <ele>973.31727389545</ele>
        <time>2021-10-04T19:43:26.638Z</time>
      </trkpt>
      <trkpt lat="44.10132" lon="6.29438">
        <ele>974.33889874476</ele>
        <time>2021-10-04T19:43:31.332Z</time>
      </trkpt>
      <trkpt lat="44.10127" lon="6.29424">
        <ele>975.21757021165</ele>
        <time>2021-10-04T19:43:36.028Z</time>
      </trkpt>
      <trkpt lat="44.10128" lon="6.29408">
        <ele>975.95718269329</ele>
        <time>2021-10-04T19:43:40.726Z</time>
      </trkpt>
      <trkpt lat="44.10127" lon="6.29401">
        <ele>976.62979236319</ele>
        <time>2021-10-04T19:43:45.426Z</time>
      </trkpt>
      <trkpt lat="44.10121" lon="6.29392">
        <ele>977.27843724943</ele>
        <time>2021-10-04T19:43:50.127Z</time>
      </trkpt>
      <trkpt lat="44.10106" lon="6.29373">
        <ele>977.94338615295</ele>
        <time>2021-10-04T19:43:54.832Z</time>
      </trkpt>
      <trkpt lat="44.10102" lon="6.29364">
        <ele>978.51666862329</ele>
        <time>2021-10-04T19:43:59.539Z</time>
      </trkpt>
      <trkpt lat="44.10094" lon="6.29336">
        <ele>979.01227929884</ele>
        <time>2021-10-04T19:44:04.250Z</time>
      </trkpt>
      <trkpt lat="44.1009" lon="6.29327">
        <ele>979.51371057835</ele>
        <time>2021-10-04T19:44:08.963Z</time>
      </trkpt>
      <trkpt lat="44.10077" lon="6.29308">
        <ele>980.02894431187</ele>
        <time>2021-10-04T19:44:13.679Z</time>
      </trkpt>
      <trkpt lat="44.10067" lon="6.29302">
        <ele>980.52775573577</ele>
        <time>2021-10-04T19:44:18.398Z</time>
      </trkpt>
      <trkpt lat="44.1006" lon="6.29285">
        <ele>980.96429135165</ele>
        <time>2021-10-04T19:44:23.120Z</time>
      </trkpt>
      <trkpt lat="44.10049" lon="6.29272">
        <ele>981.41458100225</ele>
        <time>2021-10-04T19:44:27.844Z</time>
      </trkpt>
      <trkpt lat="44.10043" lon="6.29257">
        <ele>981.89827205275</ele>
        <time>2021-10-04T19:44:32.571Z</time>
      </trkpt>
      <trkpt lat="44.10031" lon="6.29246">
        <ele>982.42100230075</ele>
        <time>2021-10-04T19:44:37.301Z</time>
      </trkpt>
      <trkpt lat="44.10028" lon="6.29234">
        <ele>982.92181316199</ele>
        <time>2021-10-04T19:44:42.033Z</time>
      </trkpt>
      <trkpt lat="44.1003" lon="6.2922">
        <ele>983.29114665432</ele>
        <time>2021-10-04T19:44:46.767Z</time>
      </trkpt>
      <trkpt lat="44.10022" lon="6.29209">
        <ele>983.7374371146</ele>
        <time>2021-10-04T19:44:51.503Z</time>
      </trkpt>
      <trkpt lat="44.10019" lon="6.29203">
        <ele>984.0007406406</ele>
        <time>2021-10-04T19:44:56.240Z</time>
      </trkpt>
      <trkpt lat="44.10023" lon="6.2919">
        <ele>984.0412863411</ele>
        <time>2021-10-04T19:45:00.979Z</time>
      </trkpt>
      <trkpt lat="44.10011" lon="6.2917">
        <ele>984.09590983478</ele>
        <time>2021-10-04T19:45:05.722Z</time>
      </trkpt>
      <trkpt lat="44.09988" lon="6.2915">
        <ele>983.98336435455</ele>
        <time>2021-10-04T19:45:10.470Z</time>
      </trkpt>
      <trkpt lat="44.09981" lon="6.29153">
        <ele>983.56002143982</ele>
        <time>2021-10-04T19:45:15.220Z</time>
      </trkpt>
      <trkpt lat="44.09974" lon="6.29166">
        <ele>982.89389633964</ele>
        <time>2021-10-04T19:45:19.972Z</time>
      </trkpt>
      <trkpt lat="44.09959" lon="6.29171">
        <ele>981.91347893048</ele>
        <time>2021-10-04T19:45:24.727Z</time>
      </trkpt>
      <trkpt lat="44.09948" lon="6.29182">
        <ele>980.71526518626</ele>
        <time>2021-10-04T19:45:29.485Z</time>
      </trkpt>
      <trkpt lat="44.09941" lon="6.29196">
        <ele>979.33306293438</ele>
        <time>2021-10-04T19:45:34.245Z</time>
      </trkpt>
      <trkpt lat="44.09928" lon="6.29195">
        <ele>977.78022562641</ele>
        <time>2021-10-04T19:45:39.008Z</time>
      </trkpt>
      <trkpt lat="44.09908" lon="6.29188">
        <ele>975.98933148393</ele>
        <time>2021-10-04T19:45:43.775Z</time>
      </trkpt>
      <trkpt lat="44.09902" lon="6.2919">
        <ele>974.10942043601</ele>
        <time>2021-10-04T19:45:48.543Z</time>
      </trkpt>
      <trkpt lat="44.09887" lon="6.29219">
        <ele>972.09865495526</ele>
        <time>2021-10-04T19:45:53.316Z</time>
      </trkpt>
      <trkpt lat="44.09864" lon="6.29207">
        <ele>969.85431320044</ele>
        <time>2021-10-04T19:45:58.094Z</time>
      </trkpt>
      <trkpt lat="44.09855" lon="6.29195">
        <ele>967.61309690354</ele>
        <time>2021-10-04T19:46:02.875Z</time>
      </trkpt>
      <trkpt lat="44.09811" lon="6.29182">
        <ele>965.03679312994</ele>
        <time>2021-10-04T19:46:07.665Z</time>
      </trkpt>
      <trkpt lat="44.09796" lon="6.29172">
        <ele>962.73135027289</ele>
        <time>2021-10-04T19:46:12.458Z</time>
      </trkpt>
      <trkpt lat="44.09783" lon="6.29179">
        <ele>960.53758081653</ele>
        <time>2021-10-04T19:46:17.254Z</time>
      </trkpt>
      <trkpt lat="44.09776" lon="6.29179">
        <ele>958.44184097476</ele>
        <time>2021-10-04T19:46:22.051Z</time>
      </trkpt>
      <trkpt lat="44.09763" lon="6.2917">
        <ele>956.44554934793</ele>
        <time>2021-10-04T19:46:26.851Z</time>
      </trkpt>
      <trkpt lat="44.09743" lon="6.29153">
        <ele>954.55955805511</ele>
        <time>2021-10-04T19:46:31.656Z</time>
      </trkpt>
      <trkpt lat="44.09724" lon="6.29153">
        <ele>952.92732317646</ele>
        <time>2021-10-04T19:46:36.464Z</time>
      </trkpt>
      <trkpt lat="44.09711" lon="6.29148">
        <ele>951.43435161184</ele>
        <time>2021-10-04T19:46:41.275Z</time>
      </trkpt>
      <trkpt lat="44.09698" lon="6.29138">
        <ele>950.07220285518</ele>
        <time>2021-10-04T19:46:46.089Z</time>
      </trkpt>
      <trkpt lat="44.09672" lon="6.29133">
        <ele>948.83707889344</ele>
        <time>2021-10-04T19:46:50.908Z</time>
      </trkpt>
      <trkpt lat="44.09657" lon="6.29123">
        <ele>947.70954874849</ele>
        <time>2021-10-04T19:46:55.731Z</time>
      </trkpt>
      <trkpt lat="44.09639" lon="6.29096">
        <ele>946.71532801582</ele>
        <time>2021-10-04T19:47:00.559Z</time>
      </trkpt>
      <trkpt lat="44.09634" lon="6.29083">
        <ele>945.76011260027</ele>
        <time>2021-10-04T19:47:05.389Z</time>
      </trkpt>
      <trkpt lat="44.0963" lon="6.29077">
        <ele>944.84123350925</ele>
        <time>2021-10-04T19:47:10.220Z</time>
      </trkpt>
      <trkpt lat="44.09617" lon="6.29076">
        <ele>944.00259514581</ele>
        <time>2021-10-04T19:47:15.054Z</time>
      </trkpt>
      <trkpt lat="44.09608" lon="6.29065">
        <ele>943.07020531552</ele>
        <time>2021-10-04T19:47:19.890Z</time>
      </trkpt>
      <trkpt lat="44.09606" lon="6.29056">
        <ele>942.05726729126</ele>
        <time>2021-10-04T19:47:24.728Z</time>
      </trkpt>
      <trkpt lat="44.09606" lon="6.29047">
        <ele>940.93756410574</ele>
        <time>2021-10-04T19:47:29.567Z</time>
      </trkpt>
      <trkpt lat="44.0961" lon="6.29037">
        <ele>939.67879383356</ele>
        <time>2021-10-04T19:47:34.408Z</time>
      </trkpt>
      <trkpt lat="44.0961" lon="6.29014">
        <ele>938.1903340725</ele>
        <time>2021-10-04T19:47:39.252Z</time>
      </trkpt>
      <trkpt lat="44.09605" lon="6.28992">
        <ele>936.57638542101</ele>
        <time>2021-10-04T19:47:44.099Z</time>
      </trkpt>
      <trkpt lat="44.096" lon="6.28977">
        <ele>934.97946025861</ele>
        <time>2021-10-04T19:47:48.949Z</time>
      </trkpt>
      <trkpt lat="44.09595" lon="6.28969">
        <ele>933.33033440575</ele>
        <time>2021-10-04T19:47:53.800Z</time>
      </trkpt>
      <trkpt lat="44.09591" lon="6.28959">
        <ele>931.59752604024</ele>
        <time>2021-10-04T19:47:58.653Z</time>
      </trkpt>
      <trkpt lat="44.09585" lon="6.28951">
        <ele>929.80378295789</ele>
        <time>2021-10-04T19:48:03.507Z</time>
      </trkpt>
      <trkpt lat="44.09584" lon="6.28951">
        <ele>927.97029417454</ele>
        <time>2021-10-04T19:48:08.362Z</time>
      </trkpt>
      <trkpt lat="44.09581" lon="6.2895">
        <ele>926.0290360649</ele>
        <time>2021-10-04T19:48:13.217Z</time>
      </trkpt>
      <trkpt lat="44.0958" lon="6.28948">
        <ele>923.97632585934</ele>
        <time>2021-10-04T19:48:18.073Z</time>
      </trkpt>
      <trkpt lat="44.0958" lon="6.28948">
        <ele>921.82697713805</ele>
        <time>2021-10-04T19:48:22.929Z</time>
      </trkpt>
      <trkpt lat="44.09575" lon="6.28937">
        <ele>919.49336425878</ele>
        <time>2021-10-04T19:48:27.786Z</time>
      </trkpt>
      <trkpt lat="44.09569" lon="6.28904">
        <ele>916.97521892036</ele>
        <time>2021-10-04T19:48:32.648Z</time>
      </trkpt>
      <trkpt lat="44.09562" lon="6.28879">
        <ele>914.27149719869</ele>
        <time>2021-10-04T19:48:37.514Z</time>
      </trkpt>
      <trkpt lat="44.09555" lon="6.28868">
        <ele>911.5884049631</ele>
        <time>2021-10-04T19:48:42.382Z</time>
      </trkpt>
      <trkpt lat="44.09552" lon="6.28854">
        <ele>908.76351624471</ele>
        <time>2021-10-04T19:48:47.253Z</time>
      </trkpt>
      <trkpt lat="44.09546" lon="6.28842">
        <ele>906.02197932737</ele>
        <time>2021-10-04T19:48:52.126Z</time>
      </trkpt>
      <trkpt lat="44.09519" lon="6.28765">
        <ele>902.85079669213</ele>
        <time>2021-10-04T19:48:57.011Z</time>
      </trkpt>
      <trkpt lat="44.0951" lon="6.28756">
        <ele>900.00015883343</ele>
        <time>2021-10-04T19:49:01.898Z</time>
      </trkpt>
      <trkpt lat="44.09507" lon="6.28751">
        <ele>897.16451536219</ele>
        <time>2021-10-04T19:49:06.786Z</time>
      </trkpt>
      <trkpt lat="44.0951" lon="6.28731">
        <ele>894.24371089725</ele>
        <time>2021-10-04T19:49:11.677Z</time>
      </trkpt>
      <trkpt lat="44.09507" lon="6.28723">
        <ele>891.40772206004</ele>
        <time>2021-10-04T19:49:16.570Z</time>
      </trkpt>
      <trkpt lat="44.09501" lon="6.28723">
        <ele>888.6692019738</ele>
        <time>2021-10-04T19:49:21.464Z</time>
      </trkpt>
      <trkpt lat="44.09494" lon="6.28727">
        <ele>885.95993961738</ele>
        <time>2021-10-04T19:49:26.359Z</time>
      </trkpt>
      <trkpt lat="44.09493" lon="6.28725">
        <ele>883.2073605459</ele>
        <time>2021-10-04T19:49:31.255Z</time>
      </trkpt>
      <trkpt lat="44.09494" lon="6.28719">
        <ele>880.41644854678</ele>
        <time>2021-10-04T19:49:36.151Z</time>
      </trkpt>
      <trkpt lat="44.09508" lon="6.287">
        <ele>877.49462390233</ele>
        <time>2021-10-04T19:49:41.051Z</time>
      </trkpt>
      <trkpt lat="44.09512" lon="6.28683">
        <ele>874.53583397157</ele>
        <time>2021-10-04T19:49:45.954Z</time>
      </trkpt>
      <trkpt lat="44.09519" lon="6.28681">
        <ele>871.60922801177</ele>
        <time>2021-10-04T19:49:50.859Z</time>
      </trkpt>
      <trkpt lat="44.09521" lon="6.28679">
        <ele>868.68818190833</ele>
        <time>2021-10-04T19:49:55.764Z</time>
      </trkpt>
      <trkpt lat="44.09513" lon="6.28657">
        <ele>865.53744672356</ele>
        <time>2021-10-04T19:50:00.672Z</time>
      </trkpt>
      <trkpt lat="44.09519" lon="6.28648">
        <ele>862.44763727487</ele>
        <time>2021-10-04T19:50:05.582Z</time>
      </trkpt>
      <trkpt lat="44.09521" lon="6.28638">
        <ele>859.40318775494</ele>
        <time>2021-10-04T19:50:10.494Z</time>
      </trkpt>
      <trkpt lat="44.09524" lon="6.28635">
        <ele>856.45200954781</ele>
        <time>2021-10-04T19:50:15.406Z</time>
      </trkpt>
      <trkpt lat="44.09524" lon="6.28628">
        <ele>853.53663407161</ele>
        <time>2021-10-04T19:50:20.319Z</time>
      </trkpt>
      <trkpt lat="44.09515" lon="6.28613">
        <ele>850.63714197827</ele>
        <time>2021-10-04T19:50:25.235Z</time>
      </trkpt>
      <trkpt lat="44.09517" lon="6.2861">
        <ele>847.89782759709</ele>
        <time>2021-10-04T19:50:30.152Z</time>
      </trkpt>
      <trkpt lat="44.09517" lon="6.2861">
        <ele>845.30308839268</ele>
        <time>2021-10-04T19:50:35.069Z</time>
      </trkpt>
      <trkpt lat="44.09525" lon="6.28612">
        <ele>842.71680072224</ele>
        <time>2021-10-04T19:50:39.987Z</time>
      </trkpt>
      <trkpt lat="44.09528" lon="6.28608">
        <ele>840.16383959985</ele>
        <time>2021-10-04T19:50:44.906Z</time>
      </trkpt>
      <trkpt lat="44.09523" lon="6.28596">
        <ele>837.67925376802</ele>
        <time>2021-10-04T19:50:49.827Z</time>
      </trkpt>
      <trkpt lat="44.09524" lon="6.28593">
        <ele>835.35242696759</ele>
        <time>2021-10-04T19:50:54.749Z</time>
      </trkpt>
      <trkpt lat="44.09527" lon="6.28591">
        <ele>833.11123812592</ele>
        <time>2021-10-04T19:50:59.671Z</time>
      </trkpt>
      <trkpt lat="44.09529" lon="6.28586">
        <ele>830.95915373302</ele>
        <time>2021-10-04T19:51:04.594Z</time>
      </trkpt>
      <trkpt lat="44.09532" lon="6.28586">
        <ele>828.97122239395</ele>
        <time>2021-10-04T19:51:09.518Z</time>
      </trkpt>
      <trkpt lat="44.09548" lon="6.28592">
        <ele>827.01786313995</ele>
        <time>2021-10-04T19:51:14.445Z</time>
      </trkpt>
      <trkpt lat="44.09549" lon="6.28589">
        <ele>825.20017632609</ele>
        <time>2021-10-04T19:51:19.373Z</time>
      </trkpt>
      <trkpt lat="44.09549" lon="6.28575">
        <ele>823.35077644394</ele>
        <time>2021-10-04T19:51:24.303Z</time>
      </trkpt>
      <trkpt lat="44.09554" lon="6.28572">
        <ele>821.7124622166</ele>
        <time>2021-10-04T19:51:29.234Z</time>
      </trkpt>
      <trkpt lat="44.09557" lon="6.28576">
        <ele>820.2386336245</ele>
        <time>2021-10-04T19:51:34.165Z</time>
      </trkpt>
      <trkpt lat="44.0956" lon="6.28577">
        <ele>818.83131355369</ele>
        <time>2021-10-04T19:51:39.097Z</time>
      </trkpt>
      <trkpt lat="44.09562" lon="6.28574">
        <ele>817.47292823647</ele>
        <time>2021-10-04T19:51:44.030Z</time>
      </trkpt>
      <trkpt lat="44.09562" lon="6.28569">
        <ele>816.19999459369</ele>
        <time>2021-10-04T19:51:48.963Z</time>
      </trkpt>
      <trkpt lat="44.09548" lon="6.28549">
        <ele>814.98575630309</ele>
        <time>2021-10-04T19:51:53.900Z</time>
      </trkpt>
      <trkpt lat="44.09553" lon="6.28549">
        <ele>813.79061619176</ele>
        <time>2021-10-04T19:51:58.838Z</time>
      </trkpt>
      <trkpt lat="44.09558" lon="6.28555">
        <ele>812.69983734051</ele>
        <time>2021-10-04T19:52:03.778Z</time>
      </trkpt>
      <trkpt lat="44.09566" lon="6.28561">
        <ele>811.57936850826</ele>
        <time>2021-10-04T19:52:08.719Z</time>
      </trkpt>
      <trkpt lat="44.09568" lon="6.28561">
        <ele>810.48517480167</ele>
        <time>2021-10-04T19:52:13.661Z</time>
      </trkpt>
      <trkpt lat="44.09567" lon="6.28554">
        <ele>809.35937447515</ele>
        <time>2021-10-04T19:52:18.604Z</time>
      </trkpt>
      <trkpt lat="44.09556" lon="6.28535">
        <ele>808.14937019731</ele>
        <time>2021-10-04T19:52:23.550Z</time>
      </trkpt>
      <trkpt lat="44.09547" lon="6.28525">
        <ele>807.04278119152</ele>
        <time>2021-10-04T19:52:28.498Z</time>
      </trkpt>
      <trkpt lat="44.09547" lon="6.2852">
        <ele>805.8882368758</ele>
        <time>2021-10-04T19:52:33.447Z</time>
      </trkpt>
      <trkpt lat="44.09552" lon="6.28518">
        <ele>804.70980647423</ele>
        <time>2021-10-04T19:52:38.397Z</time>
      </trkpt>
      <trkpt lat="44.09566" lon="6.28526">
        <ele>803.54687904354</ele>
        <time>2021-10-04T19:52:43.350Z</time>
      </trkpt>
      <trkpt lat="44.09578" lon="6.28547">
        <ele>802.4394684257</ele>
        <time>2021-10-04T19:52:48.307Z</time>
      </trkpt>
      <trkpt lat="44.09581" lon="6.28543">
        <ele>801.16093009757</ele>
        <time>2021-10-04T19:52:53.265Z</time>
      </trkpt>
      <trkpt lat="44.09577" lon="6.28528">
        <ele>799.78490483125</ele>
        <time>2021-10-04T19:52:58.225Z</time>
      </trkpt>
      <trkpt lat="44.09567" lon="6.28509">
        <ele>798.34489980836</ele>
        <time>2021-10-04T19:53:03.188Z</time>
      </trkpt>
      <trkpt lat="44.09568" lon="6.28505">
        <ele>796.91390063027</ele>
        <time>2021-10-04T19:53:08.152Z</time>
      </trkpt>
      <trkpt lat="44.09571" lon="6.28505">
        <ele>795.48089383605</ele>
        <time>2021-10-04T19:53:13.117Z</time>
      </trkpt>
      <trkpt lat="44.09593" lon="6.28523">
        <ele>794.00725724822</ele>
        <time>2021-10-04T19:53:18.087Z</time>
      </trkpt>
      <trkpt lat="44.09601" lon="6.28533">
        <ele>792.52158451577</ele>
        <time>2021-10-04T19:53:23.059Z</time>
      </trkpt>
      <trkpt lat="44.09602" lon="6.28527">
        <ele>790.92766809883</ele>
        <time>2021-10-04T19:53:28.032Z</time>
      </trkpt>
      <trkpt lat="44.096" lon="6.28504">
        <ele>789.16394552603</ele>
        <time>2021-10-04T19:53:33.008Z</time>
      </trkpt>
      <trkpt lat="44.09597" lon="6.28494">
        <ele>787.50836638873</ele>
        <time>2021-10-04T19:53:37.986Z</time>
      </trkpt>
      <trkpt lat="44.096" lon="6.2849">
        <ele>785.84249383804</ele>
        <time>2021-10-04T19:53:42.965Z</time>
      </trkpt>
      <trkpt lat="44.09604" lon="6.2849">
        <ele>784.18170568957</ele>
        <time>2021-10-04T19:53:47.945Z</time>
      </trkpt>
      <trkpt lat="44.09607" lon="6.28491">
        <ele>782.52276738345</ele>
        <time>2021-10-04T19:53:52.925Z</time>
      </trkpt>
      <trkpt lat="44.09616" lon="6.28503">
        <ele>780.86732426332</ele>
        <time>2021-10-04T19:53:57.908Z</time>
      </trkpt>
      <trkpt lat="44.09625" lon="6.28484">
        <ele>779.00389779055</ele>
        <time>2021-10-04T19:54:02.894Z</time>
      </trkpt>
      <trkpt lat="44.09626" lon="6.28471">
        <ele>777.21349233704</ele>
        <time>2021-10-04T19:54:07.882Z</time>
      </trkpt>
      <trkpt lat="44.09624" lon="6.28463">
        <ele>775.49065048249</ele>
        <time>2021-10-04T19:54:12.871Z</time>
      </trkpt>
      <trkpt lat="44.09617" lon="6.28464">
        <ele>773.86009207537</ele>
        <time>2021-10-04T19:54:17.861Z</time>
      </trkpt>
      <trkpt lat="44.0961" lon="6.28461">
        <ele>772.19626417898</ele>
        <time>2021-10-04T19:54:22.853Z</time>
      </trkpt>
      <trkpt lat="44.09606" lon="6.28458">
        <ele>770.48004112407</ele>
        <time>2021-10-04T19:54:27.846Z</time>
      </trkpt>
      <trkpt lat="44.09604" lon="6.28449">
        <ele>768.70125413631</ele>
        <time>2021-10-04T19:54:32.840Z</time>
      </trkpt>
      <trkpt lat="44.09602" lon="6.28416">
        <ele>766.73628153553</ele>
        <time>2021-10-04T19:54:37.839Z</time>
      </trkpt>
      <trkpt lat="44.09599" lon="6.28404">
        <ele>764.93153764902</ele>
        <time>2021-10-04T19:54:42.840Z</time>
      </trkpt>
      <trkpt lat="44.09582" lon="6.28386">
        <ele>763.14248078272</ele>
        <time>2021-10-04T19:54:47.845Z</time>
      </trkpt>
      <trkpt lat="44.09575" lon="6.28355">
        <ele>761.28940443413</ele>
        <time>2021-10-04T19:54:52.855Z</time>
      </trkpt>
      <trkpt lat="44.09566" lon="6.28334">
        <ele>759.65217430743</ele>
        <time>2021-10-04T19:54:57.868Z</time>
      </trkpt>
      <trkpt lat="44.09553" lon="6.28295">
        <ele>757.96451219027</ele>
        <time>2021-10-04T19:55:02.887Z</time>
      </trkpt>
      <trkpt lat="44.09542" lon="6.28278">
        <ele>756.49163398278</ele>
        <time>2021-10-04T19:55:07.909Z</time>
      </trkpt>
      <trkpt lat="44.09528" lon="6.28268">
        <ele>755.18375078403</ele>
        <time>2021-10-04T19:55:12.935Z</time>
      </trkpt>
      <trkpt lat="44.09514" lon="6.28261">
        <ele>754.04524507483</ele>
        <time>2021-10-04T19:55:17.964Z</time>
      </trkpt>
      <trkpt lat="44.09509" lon="6.28262">
        <ele>753.04473414699</ele>
        <time>2021-10-04T19:55:22.994Z</time>
      </trkpt>
      <trkpt lat="44.0949" lon="6.28248">
        <ele>752.20145557588</ele>
        <time>2021-10-04T19:55:28.028Z</time>
      </trkpt>
      <trkpt lat="44.09459" lon="6.28229">
        <ele>751.49913013053</ele>
        <time>2021-10-04T19:55:33.069Z</time>
      </trkpt>
      <trkpt lat="44.09446" lon="6.28228">
        <ele>750.80018654941</ele>
        <time>2021-10-04T19:55:38.112Z</time>
      </trkpt>
      <trkpt lat="44.09425" lon="6.28241">
        <ele>750.1149386373</ele>
        <time>2021-10-04T19:55:43.160Z</time>
      </trkpt>
      <trkpt lat="44.0941" lon="6.28244">
        <ele>749.52975576491</ele>
        <time>2021-10-04T19:55:48.211Z</time>
      </trkpt>
      <trkpt lat="44.09389" lon="6.28245">
        <ele>749.02988132091</ele>
        <time>2021-10-04T19:55:53.266Z</time>
      </trkpt>
      <trkpt lat="44.0938" lon="6.2825">
        <ele>748.55230711804</ele>
        <time>2021-10-04T19:55:58.323Z</time>
      </trkpt>
      <trkpt lat="44.09334" lon="6.28243">
        <ele>748.08638625329</ele>
        <time>2021-10-04T19:56:03.389Z</time>
      </trkpt>
      <trkpt lat="44.0932" lon="6.28246">
        <ele>747.65230114606</ele>
        <time>2021-10-04T19:56:08.458Z</time>
      </trkpt>
      <trkpt lat="44.09291" lon="6.28246">
        <ele>747.20053251316</ele>
        <time>2021-10-04T19:56:13.533Z</time>
      </trkpt>
      <trkpt lat="44.09277" lon="6.28253">
        <ele>746.75941170369</ele>
        <time>2021-10-04T19:56:18.611Z</time>
      </trkpt>
      <trkpt lat="44.09267" lon="6.28254">
        <ele>746.36717978816</ele>
        <time>2021-10-04T19:56:23.691Z</time>
      </trkpt>
      <trkpt lat="44.09223" lon="6.28242">
        <ele>746.05753751227</ele>
        <time>2021-10-04T19:56:28.780Z</time>
      </trkpt>
      <trkpt lat="44.09207" lon="6.28233">
        <ele>745.59759160764</ele>
        <time>2021-10-04T19:56:33.872Z</time>
      </trkpt>
      <trkpt lat="44.092" lon="6.28226">
        <ele>745.0677267666</ele>
        <time>2021-10-04T19:56:38.966Z</time>
      </trkpt>
      <trkpt lat="44.09199" lon="6.28222">
        <ele>744.48379487707</ele>
        <time>2021-10-04T19:56:44.061Z</time>
      </trkpt>
      <trkpt lat="44.092" lon="6.28216">
        <ele>743.82119007456</ele>
        <time>2021-10-04T19:56:49.157Z</time>
      </trkpt>
      <trkpt lat="44.09209" lon="6.28207">
        <ele>743.04729872438</ele>
        <time>2021-10-04T19:56:54.255Z</time>
      </trkpt>
      <trkpt lat="44.09206" lon="6.282">
        <ele>742.14929140469</ele>
        <time>2021-10-04T19:56:59.354Z</time>
      </trkpt>
      <trkpt lat="44.092" lon="6.28195">
        <ele>741.14524613141</ele>
        <time>2021-10-04T19:57:04.455Z</time>
      </trkpt>
      <trkpt lat="44.0918" lon="6.28157">
        <ele>739.87664796541</ele>
        <time>2021-10-04T19:57:09.562Z</time>
      </trkpt>
      <trkpt lat="44.0917" lon="6.28141">
        <ele>738.6835151063</ele>
        <time>2021-10-04T19:57:14.672Z</time>
      </trkpt>
      <trkpt lat="44.09164" lon="6.28128">
        <ele>737.47044379436</ele>
        <time>2021-10-04T19:57:19.785Z</time>
      </trkpt>
      <trkpt lat="44.09159" lon="6.28124">
        <ele>736.18821154994</ele>
        <time>2021-10-04T19:57:24.899Z</time>
      </trkpt>
      <trkpt lat="44.09106" lon="6.28116">
        <ele>734.64473270246</ele>
        <time>2021-10-04T19:57:30.023Z</time>
      </trkpt>
      <trkpt lat="44.09071" lon="6.28103">
        <ele>732.98548388061</ele>
        <time>2021-10-04T19:57:35.155Z</time>
      </trkpt>
      <trkpt lat="44.09053" lon="6.2809">
        <ele>731.46236978901</ele>
        <time>2021-10-04T19:57:40.291Z</time>
      </trkpt>
      <trkpt lat="44.09042" lon="6.2807">
        <ele>729.99693319754</ele>
        <time>2021-10-04T19:57:45.430Z</time>
      </trkpt>
      <trkpt lat="44.09038" lon="6.28051">
        <ele>728.48339380556</ele>
        <time>2021-10-04T19:57:50.572Z</time>
      </trkpt>
      <trkpt lat="44.09037" lon="6.28029">
        <ele>727.0207352675</ele>
        <time>2021-10-04T19:57:55.717Z</time>
      </trkpt>
      <trkpt lat="44.09039" lon="6.28013">
        <ele>725.57446140838</ele>
        <time>2021-10-04T19:58:00.865Z</time>
      </trkpt>
      <trkpt lat="44.09041" lon="6.28008">
        <ele>724.06464964841</ele>
        <time>2021-10-04T19:58:06.014Z</time>
      </trkpt>
      <trkpt lat="44.09043" lon="6.28">
        <ele>722.49178480956</ele>
        <time>2021-10-04T19:58:11.164Z</time>
      </trkpt>
      <trkpt lat="44.09043" lon="6.28">
        <ele>720.8074645591</ele>
        <time>2021-10-04T19:58:16.314Z</time>
      </trkpt>
      <trkpt lat="44.09046" lon="6.27992">
        <ele>719.01859854786</ele>
        <time>2021-10-04T19:58:21.465Z</time>
      </trkpt>
      <trkpt lat="44.09052" lon="6.27963">
        <ele>716.97024506167</ele>
        <time>2021-10-04T19:58:26.620Z</time>
      </trkpt>
      <trkpt lat="44.09057" lon="6.27943">
        <ele>714.8311924095</ele>
        <time>2021-10-04T19:58:31.779Z</time>
      </trkpt>
      <trkpt lat="44.09056" lon="6.27935">
        <ele>712.52388712868</ele>
        <time>2021-10-04T19:58:36.939Z</time>
      </trkpt>
      <trkpt lat="44.09062" lon="6.27905">
        <ele>710.08381247833</ele>
        <time>2021-10-04T19:58:42.103Z</time>
      </trkpt>
      <trkpt lat="44.0907" lon="6.2788">
        <ele>707.55990171215</ele>
        <time>2021-10-04T19:58:47.271Z</time>
      </trkpt>
      <trkpt lat="44.09069" lon="6.2786">
        <ele>704.73993158591</ele>
        <time>2021-10-04T19:58:52.442Z</time>
      </trkpt>
      <trkpt lat="44.09063" lon="6.27862">
        <ele>701.96953474438</ele>
        <time>2021-10-04T19:58:57.614Z</time>
      </trkpt>
      <trkpt lat="44.0905" lon="6.27903">
        <ele>699.24912633651</ele>
        <time>2021-10-04T19:59:02.793Z</time>
      </trkpt>
      <trkpt lat="44.09032" lon="6.27916">
        <ele>696.18150852476</ele>
        <time>2021-10-04T19:59:07.976Z</time>
      </trkpt>
      <trkpt lat="44.09021" lon="6.27932">
        <ele>693.25908306989</ele>
        <time>2021-10-04T19:59:13.162Z</time>
      </trkpt>
      <trkpt lat="44.09004" lon="6.27941">
        <ele>690.1807371382</ele>
        <time>2021-10-04T19:59:18.351Z</time>
      </trkpt>
      <trkpt lat="44.08995" lon="6.27958">
        <ele>687.32137862576</ele>
        <time>2021-10-04T19:59:23.543Z</time>
      </trkpt>
      <trkpt lat="44.08988" lon="6.27994">
        <ele>684.6734981038</ele>
        <time>2021-10-04T19:59:28.741Z</time>
      </trkpt>
      <trkpt lat="44.08964" lon="6.28054">
        <ele>681.78301353751</ele>
        <time>2021-10-04T19:59:33.949Z</time>
      </trkpt>
      <trkpt lat="44.08957" lon="6.28061">
        <ele>679.30199343134</ele>
        <time>2021-10-04T19:59:39.158Z</time>
      </trkpt>
      <trkpt lat="44.08955" lon="6.28057">
        <ele>677.05168518698</ele>
        <time>2021-10-04T19:59:44.368Z</time>
      </trkpt>
      <trkpt lat="44.08957" lon="6.28048">
        <ele>675.04617125863</ele>
        <time>2021-10-04T19:59:49.579Z</time>
      </trkpt>
      <trkpt lat="44.08958" lon="6.2804">
        <ele>673.26575248602</ele>
        <time>2021-10-04T19:59:54.792Z</time>
      </trkpt>
      <trkpt lat="44.08958" lon="6.2804">
        <ele>671.72438609424</ele>
        <time>2021-10-04T20:00:00.005Z</time>
      </trkpt>
      <trkpt lat="44.08959" lon="6.28031">
        <ele>670.41819088622</ele>
        <time>2021-10-04T20:00:05.219Z</time>
      </trkpt>
      <trkpt lat="44.08956" lon="6.28021">
        <ele>669.2880988686</ele>
        <time>2021-10-04T20:00:10.435Z</time>
      </trkpt>
      <trkpt lat="44.08953" lon="6.28013">
        <ele>667.88228101628</ele>
        <time>2021-10-04T20:00:15.652Z</time>
      </trkpt>
      <trkpt lat="44.08953" lon="6.28013">
        <ele>669.06015816138</ele>
        <time>2021-10-04T20:00:20.869Z</time>
      </trkpt>
      <trkpt lat="44.08929" lon="6.28046">
        <ele>669.89693498304</ele>
        <time>2021-10-04T20:00:26.092Z</time>
      </trkpt>
      <trkpt lat="44.08904" lon="6.28085">
        <ele>670.84122432867</ele>
        <time>2021-10-04T20:00:31.323Z</time>
      </trkpt>
      <trkpt lat="44.08896" lon="6.28107">
        <ele>671.79771811383</ele>
        <time>2021-10-04T20:00:36.558Z</time>
      </trkpt>
      <trkpt lat="44.08895" lon="6.28121">
        <ele>672.69655365825</ele>
        <time>2021-10-04T20:00:41.795Z</time>
      </trkpt>
      <trkpt lat="44.08895" lon="6.28134">
        <ele>673.55545278161</ele>
        <time>2021-10-04T20:00:47.033Z</time>
      </trkpt>
      <trkpt lat="44.089" lon="6.28159">
        <ele>674.52482545251</ele>
        <time>2021-10-04T20:00:52.275Z</time>
      </trkpt>
      <trkpt lat="44.08944" lon="6.28253">
        <ele>675.80090089359</ele>
        <time>2021-10-04T20:00:57.533Z</time>
      </trkpt>
      <trkpt lat="44.08949" lon="6.28284">
        <ele>676.61619628159</ele>
        <time>2021-10-04T20:01:02.796Z</time>
      </trkpt>
      <trkpt lat="44.08936" lon="6.28306">
        <ele>677.5244932483</ele>
        <time>2021-10-04T20:01:08.063Z</time>
      </trkpt>
      <trkpt lat="44.08914" lon="6.28334">
        <ele>678.57384813347</ele>
        <time>2021-10-04T20:01:13.336Z</time>
      </trkpt>
      <trkpt lat="44.08878" lon="6.28342">
        <ele>679.60097009352</ele>
        <time>2021-10-04T20:01:18.616Z</time>
      </trkpt>
      <trkpt lat="44.08865" lon="6.28355">
        <ele>680.68154276535</ele>
        <time>2021-10-04T20:01:23.899Z</time>
      </trkpt>
      <trkpt lat="44.08851" lon="6.28395">
        <ele>681.89798383526</ele>
        <time>2021-10-04T20:01:29.189Z</time>
      </trkpt>
      <trkpt lat="44.08847" lon="6.28429">
        <ele>683.09349179999</ele>
        <time>2021-10-04T20:01:34.484Z</time>
      </trkpt>
      <trkpt lat="44.08848" lon="6.28437">
        <ele>684.26176499784</ele>
        <time>2021-10-04T20:01:39.780Z</time>
      </trkpt>
      <trkpt lat="44.08847" lon="6.28449">
        <ele>680.83023187104</ele>
        <time>2021-10-04T20:01:45.078Z</time>
      </trkpt>
      <trkpt lat="44.08857" lon="6.28476">
        <ele>681.77831767997</ele>
        <time>2021-10-04T20:01:50.380Z</time>
      </trkpt>
      <trkpt lat="44.08857" lon="6.28502">
        <ele>682.52540807306</ele>
        <time>2021-10-04T20:01:55.686Z</time>
      </trkpt>
      <trkpt lat="44.08839" lon="6.2856">
        <ele>683.10006385707</ele>
        <time>2021-10-04T20:02:01.001Z</time>
      </trkpt>
      <trkpt lat="44.08827" lon="6.28579">
        <ele>683.55672583933</ele>
        <time>2021-10-04T20:02:06.320Z</time>
      </trkpt>
      <trkpt lat="44.08819" lon="6.28585">
        <ele>683.91345060973</ele>
        <time>2021-10-04T20:02:11.641Z</time>
      </trkpt>
      <trkpt lat="44.08811" lon="6.28589">
        <ele>684.22770478746</ele>
        <time>2021-10-04T20:02:16.963Z</time>
      </trkpt>
      <trkpt lat="44.08789" lon="6.28594">
        <ele>684.43914752105</ele>
        <time>2021-10-04T20:02:22.290Z</time>
      </trkpt>
      <trkpt lat="44.08776" lon="6.28596">
        <ele>684.68403107685</ele>
        <time>2021-10-04T20:02:27.619Z</time>
      </trkpt>
      <trkpt lat="44.08764" lon="6.286">
        <ele>684.9408487055</ele>
        <time>2021-10-04T20:02:32.951Z</time>
      </trkpt>
      <trkpt lat="44.08754" lon="6.28609">
        <ele>685.26315783459</ele>
        <time>2021-10-04T20:02:38.285Z</time>
      </trkpt>
      <trkpt lat="44.08753" lon="6.28611">
        <ele>685.52910274991</ele>
        <time>2021-10-04T20:02:43.620Z</time>
      </trkpt>
      <trkpt lat="44.08751" lon="6.28615">
        <ele>685.83518996797</ele>
        <time>2021-10-04T20:02:48.955Z</time>
      </trkpt>
      <trkpt lat="44.08751" lon="6.28619">
        <ele>686.15835685505</ele>
        <time>2021-10-04T20:02:54.291Z</time>
      </trkpt>
      <trkpt lat="44.08751" lon="6.28618">
        <ele>686.52360017152</ele>
        <time>2021-10-04T20:02:59.627Z</time>
      </trkpt>
      <trkpt lat="44.0875" lon="6.28625">
        <ele>686.94222172453</ele>
        <time>2021-10-04T20:03:04.964Z</time>
      </trkpt>
      <trkpt lat="44.08751" lon="6.28637">
        <ele>687.44150772947</ele>
        <time>2021-10-04T20:03:10.302Z</time>
      </trkpt>
      <trkpt lat="44.0875" lon="6.28646">
        <ele>688.06034285947</ele>
        <time>2021-10-04T20:03:15.642Z</time>
      </trkpt>
      <trkpt lat="44.08744" lon="6.28657">
        <ele>688.71736435597</ele>
        <time>2021-10-04T20:03:20.984Z</time>
      </trkpt>
      <trkpt lat="44.08729" lon="6.2867">
        <ele>689.52234236809</ele>
        <time>2021-10-04T20:03:26.329Z</time>
      </trkpt>
      <trkpt lat="44.08704" lon="6.28678">
        <ele>690.40402398464</ele>
        <time>2021-10-04T20:03:31.679Z</time>
      </trkpt>
      <trkpt lat="44.08695" lon="6.287">
        <ele>691.26302940916</ele>
        <time>2021-10-04T20:03:37.033Z</time>
      </trkpt>
      <trkpt lat="44.08675" lon="6.28723">
        <ele>692.20611074417</ele>
        <time>2021-10-04T20:03:42.392Z</time>
      </trkpt>
      <trkpt lat="44.08662" lon="6.28732">
        <ele>693.22151037265</ele>
        <time>2021-10-04T20:03:47.754Z</time>
      </trkpt>
      <trkpt lat="44.0865" lon="6.28734">
        <ele>694.27766753358</ele>
        <time>2021-10-04T20:03:53.119Z</time>
      </trkpt>
      <trkpt lat="44.08641" lon="6.28734">
        <ele>695.40589357846</ele>
        <time>2021-10-04T20:03:58.486Z</time>
      </trkpt>
      <trkpt lat="44.08627" lon="6.28722">
        <ele>696.69058379598</ele>
        <time>2021-10-04T20:04:03.856Z</time>
      </trkpt>
      <trkpt lat="44.0862" lon="6.28722">
        <ele>697.85696927222</ele>
        <time>2021-10-04T20:04:09.227Z</time>
      </trkpt>
      <trkpt lat="44.08616" lon="6.28726">
        <ele>698.99001219275</ele>
        <time>2021-10-04T20:04:14.599Z</time>
      </trkpt>
      <trkpt lat="44.08615" lon="6.28736">
        <ele>700.07129731428</ele>
        <time>2021-10-04T20:04:19.973Z</time>
      </trkpt>
      <trkpt lat="44.08605" lon="6.28756">
        <ele>701.19809665924</ele>
        <time>2021-10-04T20:04:25.350Z</time>
      </trkpt>
      <trkpt lat="44.086" lon="6.28774">
        <ele>702.33681833771</ele>
        <time>2021-10-04T20:04:30.730Z</time>
      </trkpt>
      <trkpt lat="44.0859" lon="6.28786">
        <ele>703.71202692983</ele>
        <time>2021-10-04T20:04:36.113Z</time>
      </trkpt>
      <trkpt lat="44.08584" lon="6.28799">
        <ele>705.16228293411</ele>
        <time>2021-10-04T20:04:41.498Z</time>
      </trkpt>
      <trkpt lat="44.08571" lon="6.28811">
        <ele>706.84602498332</ele>
        <time>2021-10-04T20:04:46.886Z</time>
      </trkpt>
      <trkpt lat="44.08548" lon="6.28864">
        <ele>708.56050414838</ele>
        <time>2021-10-04T20:04:52.283Z</time>
      </trkpt>
      <trkpt lat="44.08532" lon="6.28884">
        <ele>710.40710132937</ele>
        <time>2021-10-04T20:04:57.684Z</time>
      </trkpt>
      <trkpt lat="44.08523" lon="6.28907">
        <ele>712.28217890163</ele>
        <time>2021-10-04T20:05:03.089Z</time>
      </trkpt>
      <trkpt lat="44.08499" lon="6.28932">
        <ele>714.47796021026</ele>
        <time>2021-10-04T20:05:08.500Z</time>
      </trkpt>
      <trkpt lat="44.0848" lon="6.28942">
        <ele>716.75201882334</ele>
        <time>2021-10-04T20:05:13.915Z</time>
      </trkpt>
      <trkpt lat="44.08473" lon="6.2895">
        <ele>718.93212605552</ele>
        <time>2021-10-04T20:05:19.332Z</time>
      </trkpt>
      <trkpt lat="44.08464" lon="6.28973">
        <ele>721.01763532452</ele>
        <time>2021-10-04T20:05:24.753Z</time>
      </trkpt>
      <trkpt lat="44.08448" lon="6.28997">
        <ele>723.11174278646</ele>
        <time>2021-10-04T20:05:30.178Z</time>
      </trkpt>
      <trkpt lat="44.08439" lon="6.28999">
        <ele>725.29436267897</ele>
        <time>2021-10-04T20:05:35.605Z</time>
      </trkpt>
      <trkpt lat="44.08432" lon="6.28996">
        <ele>727.50164061579</ele>
        <time>2021-10-04T20:05:41.034Z</time>
      </trkpt>
      <trkpt lat="44.08408" lon="6.28995">
        <ele>729.79887518193</ele>
        <time>2021-10-04T20:05:46.467Z</time>
      </trkpt>
      <trkpt lat="44.08389" lon="6.28991">
        <ele>732.12225640279</ele>
        <time>2021-10-04T20:05:51.904Z</time>
      </trkpt>
      <trkpt lat="44.08382" lon="6.28996">
        <ele>734.12697020995</ele>
        <time>2021-10-04T20:05:57.343Z</time>
      </trkpt>
      <trkpt lat="44.08381" lon="6.29005">
        <ele>735.97382665608</ele>
        <time>2021-10-04T20:06:02.783Z</time>
      </trkpt>
      <trkpt lat="44.08384" lon="6.29033">
        <ele>737.56661191923</ele>
        <time>2021-10-04T20:06:08.227Z</time>
      </trkpt>
      <trkpt lat="44.08384" lon="6.29046">
        <ele>739.24966521695</ele>
        <time>2021-10-04T20:06:13.673Z</time>
      </trkpt>
      <trkpt lat="44.0838" lon="6.29055">
        <ele>741.00146822998</ele>
        <time>2021-10-04T20:06:19.121Z</time>
      </trkpt>
      <trkpt lat="44.08373" lon="6.29064">
        <ele>742.80990609044</ele>
        <time>2021-10-04T20:06:24.571Z</time>
      </trkpt>
      <trkpt lat="44.08344" lon="6.29084">
        <ele>745.02434350233</ele>
        <time>2021-10-04T20:06:30.027Z</time>
      </trkpt>
      <trkpt lat="44.08335" lon="6.29096">
        <ele>746.86908640197</ele>
        <time>2021-10-04T20:06:35.486Z</time>
      </trkpt>
      <trkpt lat="44.08314" lon="6.29119">
        <ele>748.81866888773</ele>
        <time>2021-10-04T20:06:40.950Z</time>
      </trkpt>
      <trkpt lat="44.08306" lon="6.2913">
        <ele>750.64655495454</ele>
        <time>2021-10-04T20:06:46.416Z</time>
      </trkpt>
      <trkpt lat="44.08283" lon="6.29187">
        <ele>752.52804537499</ele>
        <time>2021-10-04T20:06:51.892Z</time>
      </trkpt>
      <trkpt lat="44.08275" lon="6.29197">
        <ele>754.50322176936</ele>
        <time>2021-10-04T20:06:57.370Z</time>
      </trkpt>
      <trkpt lat="44.08266" lon="6.29199">
        <ele>756.5332228982</ele>
        <time>2021-10-04T20:07:02.850Z</time>
      </trkpt>
      <trkpt lat="44.08258" lon="6.29198">
        <ele>758.5473111248</ele>
        <time>2021-10-04T20:07:08.331Z</time>
      </trkpt>
      <trkpt lat="44.08222" lon="6.29175">
        <ele>760.77000366904</ele>
        <time>2021-10-04T20:07:13.820Z</time>
      </trkpt>
      <trkpt lat="44.08212" lon="6.29168">
        <ele>762.77954576094</ele>
        <time>2021-10-04T20:07:19.311Z</time>
      </trkpt>
      <trkpt lat="44.08193" lon="6.29138">
        <ele>764.97944594706</ele>
        <time>2021-10-04T20:07:24.808Z</time>
      </trkpt>
      <trkpt lat="44.08186" lon="6.29137">
        <ele>766.92854497708</ele>
        <time>2021-10-04T20:07:30.307Z</time>
      </trkpt>
      <trkpt lat="44.08154" lon="6.29164">
        <ele>768.84658331706</ele>
        <time>2021-10-04T20:07:35.813Z</time>
      </trkpt>
      <trkpt lat="44.08141" lon="6.29186">
        <ele>770.64059096417</ele>
        <time>2021-10-04T20:07:41.323Z</time>
      </trkpt>
      <trkpt lat="44.0809" lon="6.29247">
        <ele>772.68195906629</ele>
        <time>2021-10-04T20:07:46.847Z</time>
      </trkpt>
      <trkpt lat="44.08067" lon="6.29273">
        <ele>774.53489634263</ele>
        <time>2021-10-04T20:07:52.377Z</time>
      </trkpt>
      <trkpt lat="44.08051" lon="6.29295">
        <ele>776.35369692558</ele>
        <time>2021-10-04T20:07:57.911Z</time>
      </trkpt>
      <trkpt lat="44.08039" lon="6.29319">
        <ele>777.94014080539</ele>
        <time>2021-10-04T20:08:03.449Z</time>
      </trkpt>
      <trkpt lat="44.08029" lon="6.29333">
        <ele>779.53518178604</ele>
        <time>2021-10-04T20:08:08.990Z</time>
      </trkpt>
      <trkpt lat="44.08018" lon="6.29342">
        <ele>781.19083272826</ele>
        <time>2021-10-04T20:08:14.534Z</time>
      </trkpt>
      <trkpt lat="44.08006" lon="6.29355">
        <ele>782.73475661363</ele>
        <time>2021-10-04T20:08:20.081Z</time>
      </trkpt>
      <trkpt lat="44.0799" lon="6.2936">
        <ele>784.3162324119</ele>
        <time>2021-10-04T20:08:25.631Z</time>
      </trkpt>
      <trkpt lat="44.07977" lon="6.29362">
        <ele>785.82916962073</ele>
        <time>2021-10-04T20:08:31.184Z</time>
      </trkpt>
      <trkpt lat="44.07977" lon="6.29362">
        <ele>787.19968382566</ele>
        <time>2021-10-04T20:08:36.737Z</time>
      </trkpt>
      <trkpt lat="44.07959" lon="6.29362">
        <ele>788.67516089179</ele>
        <time>2021-10-04T20:08:42.293Z</time>
      </trkpt>
      <trkpt lat="44.07954" lon="6.29357">
        <ele>790.03450826749</ele>
        <time>2021-10-04T20:08:47.850Z</time>
      </trkpt>
      <trkpt lat="44.07954" lon="6.29347">
        <ele>791.36909796071</ele>
        <time>2021-10-04T20:08:53.409Z</time>
      </trkpt>
      <trkpt lat="44.07959" lon="6.29339">
        <ele>792.63386058789</ele>
        <time>2021-10-04T20:08:58.970Z</time>
      </trkpt>
      <trkpt lat="44.07973" lon="6.29331">
        <ele>793.79307758072</ele>
        <time>2021-10-04T20:09:04.534Z</time>
      </trkpt>
      <trkpt lat="44.08002" lon="6.29303">
        <ele>795.00889637412</ele>
        <time>2021-10-04T20:09:10.105Z</time>
      </trkpt>
      <trkpt lat="44.08012" lon="6.29296">
        <ele>796.17618580449</ele>
        <time>2021-10-04T20:09:15.678Z</time>
      </trkpt>
      <trkpt lat="44.08017" lon="6.29289">
        <ele>797.37344688517</ele>
        <time>2021-10-04T20:09:21.252Z</time>
      </trkpt>
      <trkpt lat="44.08017" lon="6.29282">
        <ele>798.66851374871</ele>
        <time>2021-10-04T20:09:26.827Z</time>
      </trkpt>
      <trkpt lat="44.08013" lon="6.29278">
        <ele>800.00872704481</ele>
        <time>2021-10-04T20:09:32.403Z</time>
      </trkpt>
      <trkpt lat="44.08006" lon="6.29279">
        <ele>801.36482192352</ele>
        <time>2021-10-04T20:09:37.981Z</time>
      </trkpt>
      <trkpt lat="44.0799" lon="6.2929">
        <ele>802.75073275268</ele>
        <time>2021-10-04T20:09:43.562Z</time>
      </trkpt>
      <trkpt lat="44.07959" lon="6.293">
        <ele>804.1809706917</ele>
        <time>2021-10-04T20:09:49.150Z</time>
      </trkpt>
      <trkpt lat="44.07943" lon="6.29301">
        <ele>805.58952317909</ele>
        <time>2021-10-04T20:09:54.741Z</time>
      </trkpt>
      <trkpt lat="44.07907" lon="6.29288">
        <ele>807.13758889263</ele>
        <time>2021-10-04T20:10:00.339Z</time>
      </trkpt>
      <trkpt lat="44.07891" lon="6.29284">
        <ele>808.54490763855</ele>
        <time>2021-10-04T20:10:05.941Z</time>
      </trkpt>
      <trkpt lat="44.07881" lon="6.29287">
        <ele>809.86571671993</ele>
        <time>2021-10-04T20:10:11.545Z</time>
      </trkpt>
      <trkpt lat="44.07875" lon="6.29303">
        <ele>811.0815136979</ele>
        <time>2021-10-04T20:10:17.151Z</time>
      </trkpt>
      <trkpt lat="44.07868" lon="6.29315">
        <ele>812.29985331658</ele>
        <time>2021-10-04T20:10:22.759Z</time>
      </trkpt>
      <trkpt lat="44.07837" lon="6.29319">
        <ele>813.74664757844</ele>
        <time>2021-10-04T20:10:28.374Z</time>
      </trkpt>
      <trkpt lat="44.07805" lon="6.29329">
        <ele>815.01779234432</ele>
        <time>2021-10-04T20:10:33.995Z</time>
      </trkpt>
      <trkpt lat="44.07785" lon="6.29329">
        <ele>816.21908115384</ele>
        <time>2021-10-04T20:10:39.620Z</time>
      </trkpt>
      <trkpt lat="44.07766" lon="6.29333">
        <ele>817.30820634856</ele>
        <time>2021-10-04T20:10:45.249Z</time>
      </trkpt>
      <trkpt lat="44.07757" lon="6.29341">
        <ele>818.35177931438</ele>
        <time>2021-10-04T20:10:50.880Z</time>
      </trkpt>
      <trkpt lat="44.07742" lon="6.29358">
        <ele>819.24894217977</ele>
        <time>2021-10-04T20:10:56.515Z</time>
      </trkpt>
      <trkpt lat="44.07735" lon="6.29372">
        <ele>820.07095993348</ele>
        <time>2021-10-04T20:11:02.152Z</time>
      </trkpt>
      <trkpt lat="44.07731" lon="6.29387">
        <ele>820.86571250772</ele>
        <time>2021-10-04T20:11:07.792Z</time>
      </trkpt>
      <trkpt lat="44.07726" lon="6.294">
        <ele>821.75217612155</ele>
        <time>2021-10-04T20:11:13.434Z</time>
      </trkpt>
      <trkpt lat="44.07716" lon="6.29399">
        <ele>822.70064519482</ele>
        <time>2021-10-04T20:11:19.078Z</time>
      </trkpt>
      <trkpt lat="44.07706" lon="6.29402">
        <ele>823.60962228124</ele>
        <time>2021-10-04T20:11:24.724Z</time>
      </trkpt>
      <trkpt lat="44.07676" lon="6.29385">
        <ele>824.81396623465</ele>
        <time>2021-10-04T20:11:30.376Z</time>
      </trkpt>
      <trkpt lat="44.07662" lon="6.29374">
        <ele>825.81111986672</ele>
        <time>2021-10-04T20:11:36.032Z</time>
      </trkpt>
      <trkpt lat="44.07658" lon="6.29361">
        <ele>826.77183149713</ele>
        <time>2021-10-04T20:11:41.690Z</time>
      </trkpt>
      <trkpt lat="44.07652" lon="6.29352">
        <ele>827.61004465049</ele>
        <time>2021-10-04T20:11:47.349Z</time>
      </trkpt>
      <trkpt lat="44.07645" lon="6.2935">
        <ele>828.29212424504</ele>
        <time>2021-10-04T20:11:53.010Z</time>
      </trkpt>
      <trkpt lat="44.07639" lon="6.29355">
        <ele>828.82801787649</ele>
        <time>2021-10-04T20:11:58.672Z</time>
      </trkpt>
      <trkpt lat="44.07631" lon="6.29378">
        <ele>829.08738211394</ele>
        <time>2021-10-04T20:12:04.338Z</time>
      </trkpt>
      <trkpt lat="44.07625" lon="6.29384">
        <ele>829.51057750095</ele>
        <time>2021-10-04T20:12:10.005Z</time>
      </trkpt>
      <trkpt lat="44.07619" lon="6.29384">
        <ele>829.9685440436</ele>
        <time>2021-10-04T20:12:15.673Z</time>
      </trkpt>
      <trkpt lat="44.07596" lon="6.29407">
        <ele>830.30870855358</ele>
        <time>2021-10-04T20:12:21.347Z</time>
      </trkpt>
      <trkpt lat="44.07565" lon="6.29431">
        <ele>830.73032060249</ele>
        <time>2021-10-04T20:12:27.028Z</time>
      </trkpt>
      <trkpt lat="44.07552" lon="6.29437">
        <ele>831.07213288174</ele>
        <time>2021-10-04T20:12:32.712Z</time>
      </trkpt>
      <trkpt lat="44.07543" lon="6.29436">
        <ele>831.4505227381</ele>
        <time>2021-10-04T20:12:38.398Z</time>
      </trkpt>
      <trkpt lat="44.07525" lon="6.2943">
        <ele>831.86986936936</ele>
        <time>2021-10-04T20:12:44.088Z</time>
      </trkpt>
      <trkpt lat="44.07519" lon="6.2943">
        <ele>832.19674926298</ele>
        <time>2021-10-04T20:12:49.779Z</time>
      </trkpt>
      <trkpt lat="44.07506" lon="6.29437">
        <ele>832.47356159906</ele>
        <time>2021-10-04T20:12:55.473Z</time>
      </trkpt>
      <trkpt lat="44.07494" lon="6.29434">
        <ele>832.84384754679</ele>
        <time>2021-10-04T20:13:01.169Z</time>
      </trkpt>
      <trkpt lat="44.07485" lon="6.29428">
        <ele>833.24828480987</ele>
        <time>2021-10-04T20:13:06.867Z</time>
      </trkpt>
      <trkpt lat="44.07479" lon="6.29426">
        <ele>833.63496429315</ele>
        <time>2021-10-04T20:13:12.566Z</time>
      </trkpt>
      <trkpt lat="44.07472" lon="6.29429">
        <ele>834.03192031436</ele>
        <time>2021-10-04T20:13:18.267Z</time>
      </trkpt>
      <trkpt lat="44.07469" lon="6.29439">
        <ele>834.39724664181</ele>
        <time>2021-10-04T20:13:23.969Z</time>
      </trkpt>
      <trkpt lat="44.07467" lon="6.29457">
        <ele>834.77682591931</ele>
        <time>2021-10-04T20:13:29.674Z</time>
      </trkpt>
      <trkpt lat="44.07462" lon="6.29467">
        <ele>835.27427372943</ele>
        <time>2021-10-04T20:13:35.381Z</time>
      </trkpt>
      <trkpt lat="44.07453" lon="6.29475">
        <ele>835.91022964225</ele>
        <time>2021-10-04T20:13:41.090Z</time>
      </trkpt>
      <trkpt lat="44.07442" lon="6.29479">
        <ele>836.65600605954</ele>
        <time>2021-10-04T20:13:46.801Z</time>
      </trkpt>
      <trkpt lat="44.07426" lon="6.2948">
        <ele>837.51466516241</ele>
        <time>2021-10-04T20:13:52.515Z</time>
      </trkpt>
      <trkpt lat="44.07416" lon="6.29484">
        <ele>838.46315960163</ele>
        <time>2021-10-04T20:13:58.231Z</time>
      </trkpt>
      <trkpt lat="44.07406" lon="6.29493">
        <ele>839.47361195085</ele>
        <time>2021-10-04T20:14:03.950Z</time>
      </trkpt>
      <trkpt lat="44.07395" lon="6.29498">
        <ele>840.64783277847</ele>
        <time>2021-10-04T20:14:09.671Z</time>
      </trkpt>
      <trkpt lat="44.07387" lon="6.29495">
        <ele>841.94716338847</ele>
        <time>2021-10-04T20:14:15.394Z</time>
      </trkpt>
      <trkpt lat="44.0737" lon="6.29476">
        <ele>843.51580094295</ele>
        <time>2021-10-04T20:14:21.121Z</time>
      </trkpt>
      <trkpt lat="44.07361" lon="6.29469">
        <ele>845.03475522919</ele>
        <time>2021-10-04T20:14:26.850Z</time>
      </trkpt>
      <trkpt lat="44.07348" lon="6.29457">
        <ele>846.72944390822</ele>
        <time>2021-10-04T20:14:32.582Z</time>
      </trkpt>
      <trkpt lat="44.07345" lon="6.29448">
        <ele>848.39590941133</ele>
        <time>2021-10-04T20:14:38.316Z</time>
      </trkpt>
      <trkpt lat="44.07338" lon="6.29443">
        <ele>850.02712567381</ele>
        <time>2021-10-04T20:14:44.051Z</time>
      </trkpt>
      <trkpt lat="44.07332" lon="6.29444">
        <ele>851.55139791693</ele>
        <time>2021-10-04T20:14:49.787Z</time>
      </trkpt>
      <trkpt lat="44.07322" lon="6.29468">
        <ele>852.8053146664</ele>
        <time>2021-10-04T20:14:55.528Z</time>
      </trkpt>
      <trkpt lat="44.07297" lon="6.29501">
        <ele>854.40620031596</ele>
        <time>2021-10-04T20:15:01.275Z</time>
      </trkpt>
      <trkpt lat="44.07282" lon="6.29513">
        <ele>855.88270227446</ele>
        <time>2021-10-04T20:15:07.026Z</time>
      </trkpt>
      <trkpt lat="44.0727" lon="6.29522">
        <ele>857.26108340489</ele>
        <time>2021-10-04T20:15:12.780Z</time>
      </trkpt>
      <trkpt lat="44.07254" lon="6.29522">
        <ele>858.60983719671</ele>
        <time>2021-10-04T20:15:18.537Z</time>
      </trkpt>
      <trkpt lat="44.07238" lon="6.29519">
        <ele>859.87256487452</ele>
        <time>2021-10-04T20:15:24.297Z</time>
      </trkpt>
      <trkpt lat="44.07223" lon="6.29509">
        <ele>861.06571919118</ele>
        <time>2021-10-04T20:15:30.060Z</time>
      </trkpt>
      <trkpt lat="44.07208" lon="6.29492">
        <ele>862.16805943846</ele>
        <time>2021-10-04T20:15:35.827Z</time>
      </trkpt>
      <trkpt lat="44.07196" lon="6.2947">
        <ele>863.13130849718</ele>
        <time>2021-10-04T20:15:41.598Z</time>
      </trkpt>
      <trkpt lat="44.07187" lon="6.29464">
        <ele>863.84542610088</ele>
        <time>2021-10-04T20:15:47.371Z</time>
      </trkpt>
      <trkpt lat="44.07178" lon="6.29465">
        <ele>864.34675248565</ele>
        <time>2021-10-04T20:15:53.146Z</time>
      </trkpt>
      <trkpt lat="44.07172" lon="6.29472">
        <ele>864.63789213621</ele>
        <time>2021-10-04T20:15:58.922Z</time>
      </trkpt>
      <trkpt lat="44.07171" lon="6.29483">
        <ele>864.72975442073</ele>
        <time>2021-10-04T20:16:04.700Z</time>
      </trkpt>
      <trkpt lat="44.07173" lon="6.29494">
        <ele>864.72573390302</ele>
        <time>2021-10-04T20:16:10.480Z</time>
      </trkpt>
      <trkpt lat="44.07201" lon="6.2953">
        <ele>864.35298281111</ele>
        <time>2021-10-04T20:16:16.267Z</time>
      </trkpt>
      <trkpt lat="44.07204" lon="6.29534">
        <ele>864.09522448366</ele>
        <time>2021-10-04T20:16:22.055Z</time>
      </trkpt>
      <trkpt lat="44.07205" lon="6.29536">
        <ele>863.79171729238</ele>
        <time>2021-10-04T20:16:27.844Z</time>
      </trkpt>
      <trkpt lat="44.07205" lon="6.29536">
        <ele>863.46156646144</ele>
        <time>2021-10-04T20:16:33.633Z</time>
      </trkpt>
      <trkpt lat="44.07213" lon="6.29551">
        <ele>863.08375773097</ele>
        <time>2021-10-04T20:16:39.424Z</time>
      </trkpt>
      <trkpt lat="44.07228" lon="6.29563">
        <ele>862.74391913799</ele>
        <time>2021-10-04T20:16:45.219Z</time>
      </trkpt>
      <trkpt lat="44.07232" lon="6.29572">
        <ele>862.49156421714</ele>
        <time>2021-10-04T20:16:51.015Z</time>
      </trkpt>
      <trkpt lat="44.07231" lon="6.29583">
        <ele>862.32427724213</ele>
        <time>2021-10-04T20:16:56.813Z</time>
      </trkpt>
      <trkpt lat="44.07215" lon="6.2961">
        <ele>862.3849005736</ele>
        <time>2021-10-04T20:17:02.616Z</time>
      </trkpt>
      <trkpt lat="44.0721" lon="6.29613">
        <ele>862.32925532195</ele>
        <time>2021-10-04T20:17:08.420Z</time>
      </trkpt>
      <trkpt lat="44.07204" lon="6.29609">
        <ele>862.35564305026</ele>
        <time>2021-10-04T20:17:14.225Z</time>
      </trkpt>
      <trkpt lat="44.07202" lon="6.29601">
        <ele>862.45293395677</ele>
        <time>2021-10-04T20:17:20.031Z</time>
      </trkpt>
      <trkpt lat="44.07207" lon="6.29594">
        <ele>862.57742903443</ele>
        <time>2021-10-04T20:17:25.839Z</time>
      </trkpt>
      <trkpt lat="44.07215" lon="6.29588">
        <ele>862.83883282018</ele>
        <time>2021-10-04T20:17:31.649Z</time>
      </trkpt>
      <trkpt lat="44.07217" lon="6.29582">
        <ele>863.29511515368</ele>
        <time>2021-10-04T20:17:37.460Z</time>
      </trkpt>
      <trkpt lat="44.07214" lon="6.29573">
        <ele>863.94262483867</ele>
        <time>2021-10-04T20:17:43.272Z</time>
      </trkpt>
      <trkpt lat="44.07208" lon="6.29571">
        <ele>864.83470010954</ele>
        <time>2021-10-04T20:17:49.085Z</time>
      </trkpt>
      <trkpt lat="44.07202" lon="6.29576">
        <ele>865.98490758558</ele>
        <time>2021-10-04T20:17:54.900Z</time>
      </trkpt>
      <trkpt lat="44.07199" lon="6.29586">
        <ele>867.3278235307</ele>
        <time>2021-10-04T20:18:00.716Z</time>
      </trkpt>
      <trkpt lat="44.07193" lon="6.29594">
        <ele>868.83663544882</ele>
        <time>2021-10-04T20:18:06.534Z</time>
      </trkpt>
      <trkpt lat="44.07181" lon="6.29597">
        <ele>870.53220415197</ele>
        <time>2021-10-04T20:18:12.354Z</time>
      </trkpt>
      <trkpt lat="44.07157" lon="6.29596">
        <ele>872.46212742971</ele>
        <time>2021-10-04T20:18:18.179Z</time>
      </trkpt>
      <trkpt lat="44.07143" lon="6.29592">
        <ele>874.43187056922</ele>
        <time>2021-10-04T20:18:24.007Z</time>
      </trkpt>
      <trkpt lat="44.07132" lon="6.29592">
        <ele>876.46044512594</ele>
        <time>2021-10-04T20:18:29.837Z</time>
      </trkpt>
      <trkpt lat="44.07119" lon="6.29595">
        <ele>878.55953743629</ele>
        <time>2021-10-04T20:18:35.670Z</time>
      </trkpt>
      <trkpt lat="44.07113" lon="6.29585">
        <ele>880.72393804164</ele>
        <time>2021-10-04T20:18:41.505Z</time>
      </trkpt>
      <trkpt lat="44.07102" lon="6.29576">
        <ele>882.95162930851</ele>
        <time>2021-10-04T20:18:47.342Z</time>
      </trkpt>
      <trkpt lat="44.07093" lon="6.29561">
        <ele>885.22314241192</ele>
        <time>2021-10-04T20:18:53.182Z</time>
      </trkpt>
      <trkpt lat="44.07086" lon="6.29544">
        <ele>887.46874924195</ele>
        <time>2021-10-04T20:18:59.025Z</time>
      </trkpt>
      <trkpt lat="44.07078" lon="6.29538">
        <ele>889.71600157519</ele>
        <time>2021-10-04T20:19:04.870Z</time>
      </trkpt>
      <trkpt lat="44.07068" lon="6.29536">
        <ele>891.99011152443</ele>
        <time>2021-10-04T20:19:10.717Z</time>
      </trkpt>
      <trkpt lat="44.07057" lon="6.29523">
        <ele>894.21942472526</ele>
        <time>2021-10-04T20:19:16.567Z</time>
      </trkpt>
      <trkpt lat="44.07019" lon="6.29506">
        <ele>896.63394602089</ele>
        <time>2021-10-04T20:19:22.425Z</time>
      </trkpt>
      <trkpt lat="44.06952" lon="6.29489">
        <ele>898.98923167831</ele>
        <time>2021-10-04T20:19:28.296Z</time>
      </trkpt>
      <trkpt lat="44.0692" lon="6.29494">
        <ele>901.19334955733</ele>
        <time>2021-10-04T20:19:34.174Z</time>
      </trkpt>
      <trkpt lat="44.06897" lon="6.29495">
        <ele>903.19841727752</ele>
        <time>2021-10-04T20:19:40.056Z</time>
      </trkpt>
      <trkpt lat="44.06872" lon="6.29505">
        <ele>905.19947319422</ele>
        <time>2021-10-04T20:19:45.944Z</time>
      </trkpt>
      <trkpt lat="44.06857" lon="6.29493">
        <ele>906.99930193038</ele>
        <time>2021-10-04T20:19:51.835Z</time>
      </trkpt>
      <trkpt lat="44.06839" lon="6.29488">
        <ele>908.80235830637</ele>
        <time>2021-10-04T20:19:57.730Z</time>
      </trkpt>
      <trkpt lat="44.06819" lon="6.29489">
        <ele>910.59847850239</ele>
        <time>2021-10-04T20:20:03.629Z</time>
      </trkpt>
      <trkpt lat="44.06799" lon="6.2948">
        <ele>912.40205108516</ele>
        <time>2021-10-04T20:20:09.532Z</time>
      </trkpt>
      <trkpt lat="44.06783" lon="6.29483">
        <ele>914.22238654715</ele>
        <time>2021-10-04T20:20:15.438Z</time>
      </trkpt>
      <trkpt lat="44.06766" lon="6.29484">
        <ele>916.03039986334</ele>
        <time>2021-10-04T20:20:21.347Z</time>
      </trkpt>
      <trkpt lat="44.06739" lon="6.2948">
        <ele>917.8800983735</ele>
        <time>2021-10-04T20:20:27.262Z</time>
      </trkpt>
      <trkpt lat="44.06726" lon="6.29469">
        <ele>919.71548130968</ele>
        <time>2021-10-04T20:20:33.180Z</time>
      </trkpt>
      <trkpt lat="44.06696" lon="6.29461">
        <ele>921.69786265496</ele>
        <time>2021-10-04T20:20:39.104Z</time>
      </trkpt>
      <trkpt lat="44.06675" lon="6.29452">
        <ele>923.76233843752</ele>
        <time>2021-10-04T20:20:45.032Z</time>
      </trkpt>
      <trkpt lat="44.06654" lon="6.29429">
        <ele>925.94675588718</ele>
        <time>2021-10-04T20:20:50.966Z</time>
      </trkpt>
      <trkpt lat="44.06661" lon="6.29411">
        <ele>928.1307823361</ele>
        <time>2021-10-04T20:20:56.903Z</time>
      </trkpt>
      <trkpt lat="44.067" lon="6.29375">
        <ele>930.59457213565</ele>
        <time>2021-10-04T20:21:02.849Z</time>
      </trkpt>
      <trkpt lat="44.06705" lon="6.29363">
        <ele>932.94529538673</ele>
        <time>2021-10-04T20:21:08.797Z</time>
      </trkpt>
      <trkpt lat="44.06699" lon="6.29325">
        <ele>935.49885215226</ele>
        <time>2021-10-04T20:21:14.751Z</time>
      </trkpt>
      <trkpt lat="44.0672" lon="6.29293">
        <ele>937.88965063412</ele>
        <time>2021-10-04T20:21:20.711Z</time>
      </trkpt>
      <trkpt lat="44.0675" lon="6.29266">
        <ele>940.31265398698</ele>
        <time>2021-10-04T20:21:26.678Z</time>
      </trkpt>
      <trkpt lat="44.06807" lon="6.29253">
        <ele>942.66771688014</ele>
        <time>2021-10-04T20:21:32.657Z</time>
      </trkpt>
      <trkpt lat="44.06829" lon="6.29252">
        <ele>944.92151286137</ele>
        <time>2021-10-04T20:21:38.640Z</time>
      </trkpt>
      <trkpt lat="44.06868" lon="6.29224">
        <ele>947.38798213764</ele>
        <time>2021-10-04T20:21:44.632Z</time>
      </trkpt>
      <trkpt lat="44.06873" lon="6.2922">
        <ele>949.63231860963</ele>
        <time>2021-10-04T20:21:50.625Z</time>
      </trkpt>
      <trkpt lat="44.06873" lon="6.2922">
        <ele>951.78456561531</ele>
        <time>2021-10-04T20:21:56.618Z</time>
      </trkpt>
      <trkpt lat="44.06874" lon="6.29219">
        <ele>953.89239748879</ele>
        <time>2021-10-04T20:22:02.611Z</time>
      </trkpt>
      <trkpt lat="44.0692" lon="6.29199">
        <ele>956.12459802772</ele>
        <time>2021-10-04T20:22:08.614Z</time>
      </trkpt>
      <trkpt lat="44.06929" lon="6.29184">
        <ele>958.21756242032</ele>
        <time>2021-10-04T20:22:14.620Z</time>
      </trkpt>
      <trkpt lat="44.06937" lon="6.29163">
        <ele>960.35641418584</ele>
        <time>2021-10-04T20:22:20.629Z</time>
      </trkpt>
      <trkpt lat="44.06941" lon="6.29158">
        <ele>962.23938778961</ele>
        <time>2021-10-04T20:22:26.639Z</time>
      </trkpt>
      <trkpt lat="44.06961" lon="6.29175">
        <ele>963.84821494781</ele>
        <time>2021-10-04T20:22:32.654Z</time>
      </trkpt>
      <trkpt lat="44.06978" lon="6.2917">
        <ele>965.61986096861</ele>
        <time>2021-10-04T20:22:38.672Z</time>
      </trkpt>
      <trkpt lat="44.07021" lon="6.29139">
        <ele>967.43940057714</ele>
        <time>2021-10-04T20:22:44.700Z</time>
      </trkpt>
      <trkpt lat="44.07027" lon="6.29123">
        <ele>969.15483436811</ele>
        <time>2021-10-04T20:22:50.731Z</time>
      </trkpt>
      <trkpt lat="44.07052" lon="6.29107">
        <ele>970.50404073735</ele>
        <time>2021-10-04T20:22:56.767Z</time>
      </trkpt>
      <trkpt lat="44.07058" lon="6.2909">
        <ele>971.95848042179</ele>
        <time>2021-10-04T20:23:02.806Z</time>
      </trkpt>
      <trkpt lat="44.07052" lon="6.2905">
        <ele>973.742266704</ele>
        <time>2021-10-04T20:23:08.851Z</time>
      </trkpt>
      <trkpt lat="44.07055" lon="6.29033">
        <ele>975.1803036856</ele>
        <time>2021-10-04T20:23:14.898Z</time>
      </trkpt>
      <trkpt lat="44.07064" lon="6.29019">
        <ele>976.44282390454</ele>
        <time>2021-10-04T20:23:20.948Z</time>
      </trkpt>
      <trkpt lat="44.07084" lon="6.28998">
        <ele>977.49103400793</ele>
        <time>2021-10-04T20:23:27.003Z</time>
      </trkpt>
      <trkpt lat="44.07094" lon="6.28974">
        <ele>978.52899285244</ele>
        <time>2021-10-04T20:23:33.062Z</time>
      </trkpt>
      <trkpt lat="44.07112" lon="6.28944">
        <ele>979.36186049155</ele>
        <time>2021-10-04T20:23:39.127Z</time>
      </trkpt>
      <trkpt lat="44.07135" lon="6.28909">
        <ele>980.07356331669</ele>
        <time>2021-10-04T20:23:45.199Z</time>
      </trkpt>
      <trkpt lat="44.07144" lon="6.28896">
        <ele>980.44090099776</ele>
        <time>2021-10-04T20:23:51.273Z</time>
      </trkpt>
      <trkpt lat="44.07161" lon="6.28894">
        <ele>980.4574711309</ele>
        <time>2021-10-04T20:23:57.351Z</time>
      </trkpt>
      <trkpt lat="44.07202" lon="6.28916">
        <ele>979.95120457442</ele>
        <time>2021-10-04T20:24:03.437Z</time>
      </trkpt>
      <trkpt lat="44.0724" lon="6.28901">
        <ele>979.40274848883</ele>
        <time>2021-10-04T20:24:09.531Z</time>
      </trkpt>
      <trkpt lat="44.07278" lon="6.28866">
        <ele>978.75302848546</ele>
        <time>2021-10-04T20:24:15.634Z</time>
      </trkpt>
      <trkpt lat="44.07349" lon="6.28848">
        <ele>977.68056502065</ele>
        <time>2021-10-04T20:24:21.752Z</time>
      </trkpt>
      <trkpt lat="44.07393" lon="6.28831">
        <ele>976.65118603104</ele>
        <time>2021-10-04T20:24:27.879Z</time>
      </trkpt>
      <trkpt lat="44.07438" lon="6.28845">
        <ele>975.05723486895</ele>
        <time>2021-10-04T20:24:34.015Z</time>
      </trkpt>
      <trkpt lat="44.07461" lon="6.28835">
        <ele>973.45941823295</ele>
        <time>2021-10-04T20:24:40.156Z</time>
      </trkpt>
      <trkpt lat="44.07478" lon="6.2882">
        <ele>971.79773950785</ele>
        <time>2021-10-04T20:24:46.301Z</time>
      </trkpt>
      <trkpt lat="44.07512" lon="6.28743">
        <ele>970.24659460723</ele>
        <time>2021-10-04T20:24:52.459Z</time>
      </trkpt>
      <trkpt lat="44.07591" lon="6.28693">
        <ele>968.11203012871</ele>
        <time>2021-10-04T20:24:58.634Z</time>
      </trkpt>
      <trkpt lat="44.07624" lon="6.2868">
        <ele>965.94690239811</ele>
        <time>2021-10-04T20:25:04.816Z</time>
      </trkpt>
      <trkpt lat="44.07647" lon="6.28673">
        <ele>963.72944729693</ele>
        <time>2021-10-04T20:25:11.003Z</time>
      </trkpt>
      <trkpt lat="44.07659" lon="6.28689">
        <ele>961.33243769502</ele>
        <time>2021-10-04T20:25:17.193Z</time>
      </trkpt>
      <trkpt lat="44.07679" lon="6.28698">
        <ele>958.92199907805</ele>
        <time>2021-10-04T20:25:23.387Z</time>
      </trkpt>
      <trkpt lat="44.07711" lon="6.28694">
        <ele>956.57407575332</ele>
        <time>2021-10-04T20:25:29.588Z</time>
      </trkpt>
      <trkpt lat="44.07738" lon="6.28709">
        <ele>954.0254979176</ele>
        <time>2021-10-04T20:25:35.795Z</time>
      </trkpt>
      <trkpt lat="44.07756" lon="6.28701">
        <ele>951.85206140044</ele>
        <time>2021-10-04T20:25:42.005Z</time>
      </trkpt>
      <trkpt lat="44.07763" lon="6.28687">
        <ele>949.92132540829</ele>
        <time>2021-10-04T20:25:48.218Z</time>
      </trkpt>
      <trkpt lat="44.0777" lon="6.28657">
        <ele>948.17734316398</ele>
        <time>2021-10-04T20:25:54.435Z</time>
      </trkpt>
      <trkpt lat="44.07784" lon="6.28631">
        <ele>946.47263666448</ele>
        <time>2021-10-04T20:26:00.657Z</time>
      </trkpt>
      <trkpt lat="44.07804" lon="6.28607">
        <ele>944.76229772178</ele>
        <time>2021-10-04T20:26:06.884Z</time>
      </trkpt>
      <trkpt lat="44.07826" lon="6.28547">
        <ele>943.29926098495</ele>
        <time>2021-10-04T20:26:13.121Z</time>
      </trkpt>
      <trkpt lat="44.07854" lon="6.28538">
        <ele>941.71227161495</ele>
        <time>2021-10-04T20:26:19.364Z</time>
      </trkpt>
      <trkpt lat="44.07879" lon="6.28518">
        <ele>940.47013099221</ele>
        <time>2021-10-04T20:26:25.613Z</time>
      </trkpt>
      <trkpt lat="44.07908" lon="6.28508">
        <ele>939.13139140732</ele>
        <time>2021-10-04T20:26:31.868Z</time>
      </trkpt>
      <trkpt lat="44.0794" lon="6.28487">
        <ele>937.81250199779</ele>
        <time>2021-10-04T20:26:38.130Z</time>
      </trkpt>
      <trkpt lat="44.07957" lon="6.28467">
        <ele>936.37172488019</ele>
        <time>2021-10-04T20:26:44.396Z</time>
      </trkpt>
      <trkpt lat="44.07966" lon="6.28427">
        <ele>935.02578233001</ele>
        <time>2021-10-04T20:26:50.668Z</time>
      </trkpt>
      <trkpt lat="44.0797" lon="6.28365">
        <ele>933.60026415281</ele>
        <time>2021-10-04T20:26:56.949Z</time>
      </trkpt>
      <trkpt lat="44.07975" lon="6.28349">
        <ele>931.91514670649</ele>
        <time>2021-10-04T20:27:03.233Z</time>
      </trkpt>
      <trkpt lat="44.07978" lon="6.28342">
        <ele>930.11538419675</ele>
        <time>2021-10-04T20:27:09.518Z</time>
      </trkpt>
      <trkpt lat="44.08005" lon="6.283">
        <ele>927.94803864186</ele>
        <time>2021-10-04T20:27:15.811Z</time>
      </trkpt>
      <trkpt lat="44.07984" lon="6.28296">
        <ele>925.89399708526</ele>
        <time>2021-10-04T20:27:22.108Z</time>
      </trkpt>
      <trkpt lat="44.08002" lon="6.28283">
        <ele>923.52310041701</ele>
        <time>2021-10-04T20:27:28.409Z</time>
      </trkpt>
      <trkpt lat="44.08002" lon="6.28273">
        <ele>921.1167833742</ele>
        <time>2021-10-04T20:27:34.712Z</time>
      </trkpt>
      <trkpt lat="44.08024" lon="6.28263">
        <ele>918.54022581418</ele>
        <time>2021-10-04T20:27:41.019Z</time>
      </trkpt>
      <trkpt lat="44.08007" lon="6.2824">
        <ele>915.55615767508</ele>
        <time>2021-10-04T20:27:47.331Z</time>
      </trkpt>
      <trkpt lat="44.08009" lon="6.28227">
        <ele>912.6373998927</ele>
        <time>2021-10-04T20:27:53.645Z</time>
      </trkpt>
      <trkpt lat="44.08031" lon="6.28227">
        <ele>909.89944016186</ele>
        <time>2021-10-04T20:27:59.963Z</time>
      </trkpt>
      <trkpt lat="44.08044" lon="6.28222">
        <ele>906.99191992501</ele>
        <time>2021-10-04T20:28:06.284Z</time>
      </trkpt>
      <trkpt lat="44.08032" lon="6.28204">
        <ele>903.74272229227</ele>
        <time>2021-10-04T20:28:12.608Z</time>
      </trkpt>
      <trkpt lat="44.08067" lon="6.28184">
        <ele>900.52379807419</ele>
        <time>2021-10-04T20:28:18.940Z</time>
      </trkpt>
      <trkpt lat="44.08083" lon="6.28163">
        <ele>897.12912526465</ele>
        <time>2021-10-04T20:28:25.276Z</time>
      </trkpt>
      <trkpt lat="44.08082" lon="6.28148">
        <ele>893.83908441002</ele>
        <time>2021-10-04T20:28:31.615Z</time>
      </trkpt>
      <trkpt lat="44.081" lon="6.28136">
        <ele>890.36358611346</ele>
        <time>2021-10-04T20:28:37.958Z</time>
      </trkpt>
      <trkpt lat="44.08109" lon="6.28129">
        <ele>886.89682369814</ele>
        <time>2021-10-04T20:28:44.303Z</time>
      </trkpt>
      <trkpt lat="44.08113" lon="6.28124">
        <ele>883.37539548922</ele>
        <time>2021-10-04T20:28:50.649Z</time>
      </trkpt>
      <trkpt lat="44.08128" lon="6.28106">
        <ele>879.62462494278</ele>
        <time>2021-10-04T20:28:56.999Z</time>
      </trkpt>
      <trkpt lat="44.08128" lon="6.28099">
        <ele>875.85243059371</ele>
        <time>2021-10-04T20:29:03.350Z</time>
      </trkpt>
      <trkpt lat="44.08128" lon="6.28077">
        <ele>871.86159906803</ele>
        <time>2021-10-04T20:29:09.704Z</time>
      </trkpt>
      <trkpt lat="44.0812" lon="6.28054">
        <ele>867.56371964139</ele>
        <time>2021-10-04T20:29:16.062Z</time>
      </trkpt>
      <trkpt lat="44.08117" lon="6.28046">
        <ele>862.97895475388</ele>
        <time>2021-10-04T20:29:22.421Z</time>
      </trkpt>
      <trkpt lat="44.08117" lon="6.28046">
        <ele>858.09286246682</ele>
        <time>2021-10-04T20:29:28.780Z</time>
      </trkpt>
      <trkpt lat="44.08114" lon="6.28036">
        <ele>852.79482453228</ele>
        <time>2021-10-04T20:29:35.140Z</time>
      </trkpt>
      <trkpt lat="44.0809" lon="6.27991">
        <ele>846.92349555059</ele>
        <time>2021-10-04T20:29:41.508Z</time>
      </trkpt>
      <trkpt lat="44.08043" lon="6.27964">
        <ele>840.82142340258</ele>
        <time>2021-10-04T20:29:47.887Z</time>
      </trkpt>
      <trkpt lat="44.08023" lon="6.27957">
        <ele>834.4600586002</ele>
        <time>2021-10-04T20:29:54.270Z</time>
      </trkpt>
      <trkpt lat="44.08005" lon="6.2793">
        <ele>827.72454559953</ele>
        <time>2021-10-04T20:30:00.658Z</time>
      </trkpt>
      <trkpt lat="44.07982" lon="6.27849">
        <ele>820.19706208775</ele>
        <time>2021-10-04T20:30:07.059Z</time>
      </trkpt>
      <trkpt lat="44.07982" lon="6.27849">
        <ele>813.64307484044</ele>
        <time>2021-10-04T20:30:13.460Z</time>
      </trkpt>
      <trkpt lat="44.07982" lon="6.27827">
        <ele>806.90939972339</ele>
        <time>2021-10-04T20:30:19.864Z</time>
      </trkpt>
      <trkpt lat="44.07973" lon="6.27765">
        <ele>799.82994388365</ele>
        <time>2021-10-04T20:30:26.277Z</time>
      </trkpt>
      <trkpt lat="44.07963" lon="6.2773">
        <ele>793.49085031134</ele>
        <time>2021-10-04T20:30:32.695Z</time>
      </trkpt>
      <trkpt lat="44.07953" lon="6.27685">
        <ele>787.67548782888</ele>
        <time>2021-10-04T20:30:39.120Z</time>
      </trkpt>
      <trkpt lat="44.07953" lon="6.27666">
        <ele>782.52681200368</ele>
        <time>2021-10-04T20:30:45.548Z</time>
      </trkpt>
      <trkpt lat="44.07961" lon="6.27633">
        <ele>777.8598950334</ele>
        <time>2021-10-04T20:30:51.981Z</time>
      </trkpt>
      <trkpt lat="44.07969" lon="6.27618">
        <ele>773.70905322997</ele>
        <time>2021-10-04T20:30:58.417Z</time>
      </trkpt>
      <trkpt lat="44.07977" lon="6.27598">
        <ele>770.12302466354</ele>
        <time>2021-10-04T20:31:04.856Z</time>
      </trkpt>
      <trkpt lat="44.07978" lon="6.27573">
        <ele>767.0862305542</ele>
        <time>2021-10-04T20:31:11.299Z</time>
      </trkpt>
      <trkpt lat="44.07972" lon="6.27527">
        <ele>764.65348126412</ele>
        <time>2021-10-04T20:31:17.748Z</time>
      </trkpt>
      <trkpt lat="44.07973" lon="6.27523">
        <ele>762.68749832147</ele>
        <time>2021-10-04T20:31:24.198Z</time>
      </trkpt>
      <trkpt lat="44.07974" lon="6.27515">
        <ele>761.15596195501</ele>
        <time>2021-10-04T20:31:30.649Z</time>
      </trkpt>
      <trkpt lat="44.07974" lon="6.27515">
        <ele>759.98604915187</ele>
        <time>2021-10-04T20:31:37.100Z</time>
      </trkpt>
      <trkpt lat="44.07976" lon="6.27504">
        <ele>759.15586271393</ele>
        <time>2021-10-04T20:31:43.553Z</time>
      </trkpt>
      <trkpt lat="44.07972" lon="6.27461">
        <ele>758.5802698275</ele>
        <time>2021-10-04T20:31:50.012Z</time>
      </trkpt>
      <trkpt lat="44.07976" lon="6.27439">
        <ele>758.20684214842</ele>
        <time>2021-10-04T20:31:56.474Z</time>
      </trkpt>
      <trkpt lat="44.07976" lon="6.27418">
        <ele>757.99528050403</ele>
        <time>2021-10-04T20:32:02.939Z</time>
      </trkpt>
      <trkpt lat="44.07971" lon="6.27391">
        <ele>757.88449909048</ele>
        <time>2021-10-04T20:32:09.408Z</time>
      </trkpt>
      <trkpt lat="44.07972" lon="6.2738">
        <ele>757.85431348664</ele>
        <time>2021-10-04T20:32:15.879Z</time>
      </trkpt>
      <trkpt lat="44.07977" lon="6.27356">
        <ele>757.82310657945</ele>
        <time>2021-10-04T20:32:22.353Z</time>
      </trkpt>
      <trkpt lat="44.07972" lon="6.27315">
        <ele>757.64467569508</ele>
        <time>2021-10-04T20:32:28.833Z</time>
      </trkpt>
      <trkpt lat="44.07972" lon="6.27291">
        <ele>757.54910957937</ele>
        <time>2021-10-04T20:32:35.317Z</time>
      </trkpt>
      <trkpt lat="44.07969" lon="6.27271">
        <ele>757.46829988051</ele>
        <time>2021-10-04T20:32:41.804Z</time>
      </trkpt>
      <trkpt lat="44.07972" lon="6.27255">
        <ele>757.5229412959</ele>
        <time>2021-10-04T20:32:48.293Z</time>
      </trkpt>
      <trkpt lat="44.07992" lon="6.27237">
        <ele>757.51560980564</ele>
        <time>2021-10-04T20:32:54.787Z</time>
      </trkpt>
      <trkpt lat="44.07996" lon="6.27227">
        <ele>757.58271604995</ele>
        <time>2021-10-04T20:33:01.282Z</time>
      </trkpt>
      <trkpt lat="44.07993" lon="6.27214">
        <ele>757.66039832434</ele>
        <time>2021-10-04T20:33:07.779Z</time>
      </trkpt>
      <trkpt lat="44.07993" lon="6.272">
        <ele>757.79091479351</ele>
        <time>2021-10-04T20:33:14.278Z</time>
      </trkpt>
      <trkpt lat="44.0799" lon="6.27197">
        <ele>757.93668260996</ele>
        <time>2021-10-04T20:33:20.778Z</time>
      </trkpt>
      <trkpt lat="44.07985" lon="6.27192">
        <ele>758.07219983867</ele>
        <time>2021-10-04T20:33:27.279Z</time>
      </trkpt>
      <trkpt lat="44.07985" lon="6.27192">
        <ele>758.1696605838</ele>
        <time>2021-10-04T20:33:33.780Z</time>
      </trkpt>
      <trkpt lat="44.07984" lon="6.27191">
        <ele>758.2231885868</ele>
        <time>2021-10-04T20:33:40.282Z</time>
      </trkpt>
      <trkpt lat="44.07977" lon="6.27191">
        <ele>758.21858711956</ele>
        <time>2021-10-04T20:33:46.785Z</time>
      </trkpt>
      <trkpt lat="44.07969" lon="6.2718">
        <ele>758.14711559472</ele>
        <time>2021-10-04T20:33:53.290Z</time>
      </trkpt>
      <trkpt lat="44.07958" lon="6.27178">
        <ele>757.94665849136</ele>
        <time>2021-10-04T20:33:59.797Z</time>
      </trkpt>
      <trkpt lat="44.07922" lon="6.27201">
        <ele>757.62777321233</ele>
        <time>2021-10-04T20:34:06.312Z</time>
      </trkpt>
      <trkpt lat="44.07903" lon="6.27205">
        <ele>757.10051615442</ele>
        <time>2021-10-04T20:34:12.831Z</time>
      </trkpt>
      <trkpt lat="44.07896" lon="6.27207">
        <ele>756.39358873361</ele>
        <time>2021-10-04T20:34:19.352Z</time>
      </trkpt>
      <trkpt lat="44.0789" lon="6.27209">
        <ele>755.46648173971</ele>
        <time>2021-10-04T20:34:25.874Z</time>
      </trkpt>
      <trkpt lat="44.0789" lon="6.27209">
        <ele>754.3530823068</ele>
        <time>2021-10-04T20:34:32.396Z</time>
      </trkpt>
      <trkpt lat="44.07883" lon="6.27211">
        <ele>753.00860955926</ele>
        <time>2021-10-04T20:34:38.919Z</time>
      </trkpt>
      <trkpt lat="44.07869" lon="6.27225">
        <ele>751.40846565166</ele>
        <time>2021-10-04T20:34:45.446Z</time>
      </trkpt>
      <trkpt lat="44.07843" lon="6.27238">
        <ele>749.5274961764</ele>
        <time>2021-10-04T20:34:51.978Z</time>
      </trkpt>
      <trkpt lat="44.07837" lon="6.27242">
        <ele>747.62069984996</ele>
        <time>2021-10-04T20:34:58.512Z</time>
      </trkpt>
      <trkpt lat="44.07807" lon="6.2726">
        <ele>745.53009276083</ele>
        <time>2021-10-04T20:35:05.052Z</time>
      </trkpt>
      <trkpt lat="44.07765" lon="6.27293">
        <ele>743.31326173747</ele>
        <time>2021-10-04T20:35:11.602Z</time>
      </trkpt>
      <trkpt lat="44.07719" lon="6.27317">
        <ele>741.07339314512</ele>
        <time>2021-10-04T20:35:18.162Z</time>
      </trkpt>
      <trkpt lat="44.07683" lon="6.27341">
        <ele>738.60268533849</ele>
        <time>2021-10-04T20:35:24.730Z</time>
      </trkpt>
      <trkpt lat="44.07662" lon="6.2735">
        <ele>736.17676088079</ele>
        <time>2021-10-04T20:35:31.302Z</time>
      </trkpt>
      <trkpt lat="44.07656" lon="6.27352">
        <ele>733.97614271566</ele>
        <time>2021-10-04T20:35:37.875Z</time>
      </trkpt>
      <trkpt lat="44.07656" lon="6.27352">
        <ele>731.96166493898</ele>
        <time>2021-10-04T20:35:44.448Z</time>
      </trkpt>
      <trkpt lat="44.07656" lon="6.27353">
        <ele>730.08290884284</ele>
        <time>2021-10-04T20:35:51.021Z</time>
      </trkpt>
      <trkpt lat="44.07633" lon="6.27365">
        <ele>728.18434564937</ele>
        <time>2021-10-04T20:35:57.599Z</time>
      </trkpt>
      <trkpt lat="44.07619" lon="6.27384">
        <ele>726.58991898022</ele>
        <time>2021-10-04T20:36:04.181Z</time>
      </trkpt>
      <trkpt lat="44.07608" lon="6.27387">
        <ele>725.28004404142</ele>
        <time>2021-10-04T20:36:10.765Z</time>
      </trkpt>
      <trkpt lat="44.07595" lon="6.27382">
        <ele>724.20170369224</ele>
        <time>2021-10-04T20:36:17.352Z</time>
      </trkpt>
      <trkpt lat="44.07593" lon="6.27375">
        <ele>723.34557492574</ele>
        <time>2021-10-04T20:36:23.940Z</time>
      </trkpt>
      <trkpt lat="44.07574" lon="6.27352">
        <ele>722.70288587831</ele>
        <time>2021-10-04T20:36:30.533Z</time>
      </trkpt>
      <trkpt lat="44.07558" lon="6.27339">
        <ele>722.27361549421</ele>
        <time>2021-10-04T20:36:37.130Z</time>
      </trkpt>
      <trkpt lat="44.0754" lon="6.27345">
        <ele>722.14999380773</ele>
        <time>2021-10-04T20:36:43.731Z</time>
      </trkpt>
      <trkpt lat="44.07539" lon="6.27334">
        <ele>721.98903132245</ele>
        <time>2021-10-04T20:36:50.333Z</time>
      </trkpt>
      <trkpt lat="44.07535" lon="6.27328">
        <ele>722.00270301482</ele>
        <time>2021-10-04T20:36:56.936Z</time>
      </trkpt>
      <trkpt lat="44.07523" lon="6.27319">
        <ele>722.18544648013</ele>
        <time>2021-10-04T20:37:03.542Z</time>
      </trkpt>
      <trkpt lat="44.07516" lon="6.27304">
        <ele>722.34049425477</ele>
        <time>2021-10-04T20:37:10.151Z</time>
      </trkpt>
      <trkpt lat="44.07501" lon="6.27289">
        <ele>722.62593423136</ele>
        <time>2021-10-04T20:37:16.763Z</time>
      </trkpt>
      <trkpt lat="44.07492" lon="6.27267">
        <ele>722.7146234698</ele>
        <time>2021-10-04T20:37:23.379Z</time>
      </trkpt>
      <trkpt lat="44.07499" lon="6.27266">
        <ele>722.79211430541</ele>
        <time>2021-10-04T20:37:29.997Z</time>
      </trkpt>
      <trkpt lat="44.07507" lon="6.27269">
        <ele>722.9302281669</ele>
        <time>2021-10-04T20:37:36.616Z</time>
      </trkpt>
      <trkpt lat="44.07516" lon="6.27275">
        <ele>723.07362275533</ele>
        <time>2021-10-04T20:37:43.237Z</time>
      </trkpt>
      <trkpt lat="44.07527" lon="6.27293">
        <ele>723.36421285286</ele>
        <time>2021-10-04T20:37:49.862Z</time>
      </trkpt>
      <trkpt lat="44.07547" lon="6.27308">
        <ele>723.48004382445</ele>
        <time>2021-10-04T20:37:56.491Z</time>
      </trkpt>
      <trkpt lat="44.07562" lon="6.27314">
        <ele>723.67922446924</ele>
        <time>2021-10-04T20:38:03.123Z</time>
      </trkpt>
      <trkpt lat="44.07581" lon="6.27327">
        <ele>723.93487886821</ele>
        <time>2021-10-04T20:38:09.759Z</time>
      </trkpt>
      <trkpt lat="44.07585" lon="6.27324">
        <ele>724.10863703699</ele>
        <time>2021-10-04T20:38:16.396Z</time>
      </trkpt>
      <trkpt lat="44.07573" lon="6.27302">
        <ele>724.12039880061</ele>
        <time>2021-10-04T20:38:23.037Z</time>
      </trkpt>
      <trkpt lat="44.07567" lon="6.27276">
        <ele>724.15510546356</ele>
        <time>2021-10-04T20:38:29.682Z</time>
      </trkpt>
      <trkpt lat="44.07566" lon="6.2727">
        <ele>724.11287106244</ele>
        <time>2021-10-04T20:38:36.328Z</time>
      </trkpt>
      <trkpt lat="44.07564" lon="6.27262">
        <ele>723.97349979812</ele>
        <time>2021-10-04T20:38:42.975Z</time>
      </trkpt>
      <trkpt lat="44.07564" lon="6.27262">
        <ele>723.77443530028</ele>
        <time>2021-10-04T20:38:49.622Z</time>
      </trkpt>
      <trkpt lat="44.07564" lon="6.27257">
        <ele>723.49345380518</ele>
        <time>2021-10-04T20:38:56.270Z</time>
      </trkpt>
      <trkpt lat="44.07564" lon="6.27242">
        <ele>723.17041449494</ele>
        <time>2021-10-04T20:39:02.920Z</time>
      </trkpt>
      <trkpt lat="44.07557" lon="6.27185">
        <ele>722.54147410011</ele>
        <time>2021-10-04T20:39:09.579Z</time>
      </trkpt>
      <trkpt lat="44.07557" lon="6.27166">
        <ele>721.97689376939</ele>
        <time>2021-10-04T20:39:16.240Z</time>
      </trkpt>
      <trkpt lat="44.07564" lon="6.27083">
        <ele>721.1008838682</ele>
        <time>2021-10-04T20:39:22.913Z</time>
      </trkpt>
      <trkpt lat="44.07566" lon="6.2707">
        <ele>720.22248482262</ele>
        <time>2021-10-04T20:39:29.588Z</time>
      </trkpt>
      <trkpt lat="44.07573" lon="6.27051">
        <ele>719.34868832458</ele>
        <time>2021-10-04T20:39:36.266Z</time>
      </trkpt>
      <trkpt lat="44.07575" lon="6.27037">
        <ele>718.24945869866</ele>
        <time>2021-10-04T20:39:42.946Z</time>
      </trkpt>
      <trkpt lat="44.07579" lon="6.27031">
        <ele>717.11694975527</ele>
        <time>2021-10-04T20:39:49.628Z</time>
      </trkpt>
      <trkpt lat="44.07583" lon="6.27006">
        <ele>715.78125995774</ele>
        <time>2021-10-04T20:39:56.313Z</time>
      </trkpt>
      <trkpt lat="44.07578" lon="6.26988">
        <ele>714.21356143931</ele>
        <time>2021-10-04T20:40:03.001Z</time>
      </trkpt>
      <trkpt lat="44.0758" lon="6.26981">
        <ele>712.80787549817</ele>
        <time>2021-10-04T20:40:09.690Z</time>
      </trkpt>
      <trkpt lat="44.07592" lon="6.26966">
        <ele>711.44726239736</ele>
        <time>2021-10-04T20:40:16.382Z</time>
      </trkpt>
      <trkpt lat="44.07597" lon="6.26961">
        <ele>709.99917167923</ele>
        <time>2021-10-04T20:40:23.076Z</time>
      </trkpt>
      <trkpt lat="44.07597" lon="6.26961">
        <ele>708.50185546088</ele>
        <time>2021-10-04T20:40:29.770Z</time>
      </trkpt>
      <trkpt lat="44.07608" lon="6.26948">
        <ele>706.94391844115</ele>
        <time>2021-10-04T20:40:36.466Z</time>
      </trkpt>
      <trkpt lat="44.07608" lon="6.26948">
        <ele>705.43956394889</ele>
        <time>2021-10-04T20:40:43.162Z</time>
      </trkpt>
      <trkpt lat="44.07616" lon="6.26921">
        <ele>703.70029631122</ele>
        <time>2021-10-04T20:40:49.863Z</time>
      </trkpt>
      <trkpt lat="44.07618" lon="6.26897">
        <ele>702.10323663728</ele>
        <time>2021-10-04T20:40:56.567Z</time>
      </trkpt>
      <trkpt lat="44.07623" lon="6.26891">
        <ele>700.73551019728</ele>
        <time>2021-10-04T20:41:03.272Z</time>
      </trkpt>
      <trkpt lat="44.0763" lon="6.26888">
        <ele>699.47651528772</ele>
        <time>2021-10-04T20:41:09.979Z</time>
      </trkpt>
      <trkpt lat="44.07631" lon="6.26887">
        <ele>698.37874232601</ele>
        <time>2021-10-04T20:41:16.686Z</time>
      </trkpt>
      <trkpt lat="44.07636" lon="6.26886">
        <ele>697.39988447604</ele>
        <time>2021-10-04T20:41:23.394Z</time>
      </trkpt>
      <trkpt lat="44.07636" lon="6.26886">
        <ele>696.60638786688</ele>
        <time>2021-10-04T20:41:30.102Z</time>
      </trkpt>
      <trkpt lat="44.07639" lon="6.26886">
        <ele>695.9481430012</ele>
        <time>2021-10-04T20:41:36.811Z</time>
      </trkpt>
      <trkpt lat="44.07652" lon="6.26891">
        <ele>695.43515396255</ele>
        <time>2021-10-04T20:41:43.522Z</time>
      </trkpt>
      <trkpt lat="44.0766" lon="6.26897">
        <ele>695.0603046289</ele>
        <time>2021-10-04T20:41:50.235Z</time>
      </trkpt>
      <trkpt lat="44.07667" lon="6.26904">
        <ele>694.85207173826</ele>
        <time>2021-10-04T20:41:56.950Z</time>
      </trkpt>
      <trkpt lat="44.07694" lon="6.26943">
        <ele>694.63088825058</ele>
        <time>2021-10-04T20:42:03.673Z</time>
      </trkpt>
      <trkpt lat="44.07708" lon="6.26953">
        <ele>694.50165416093</ele>
        <time>2021-10-04T20:42:10.399Z</time>
      </trkpt>
      <trkpt lat="44.07713" lon="6.26961">
        <ele>694.677730718</ele>
        <time>2021-10-04T20:42:17.127Z</time>
      </trkpt>
      <trkpt lat="44.07716" lon="6.26974">
        <ele>695.02546645484</ele>
        <time>2021-10-04T20:42:23.856Z</time>
      </trkpt>
      <trkpt lat="44.07717" lon="6.27017">
        <ele>695.78160062315</ele>
        <time>2021-10-04T20:42:30.592Z</time>
      </trkpt>
      <trkpt lat="44.07719" lon="6.27029">
        <ele>696.07402433016</ele>
        <time>2021-10-04T20:42:37.329Z</time>
      </trkpt>
      <trkpt lat="44.07723" lon="6.27039">
        <ele>696.23892264743</ele>
        <time>2021-10-04T20:42:44.068Z</time>
      </trkpt>
      <trkpt lat="44.0773" lon="6.27047">
        <ele>696.20950462269</ele>
        <time>2021-10-04T20:42:50.809Z</time>
      </trkpt>
      <trkpt lat="44.07737" lon="6.27052">
        <ele>695.96400052497</ele>
        <time>2021-10-04T20:42:57.552Z</time>
      </trkpt>
      <trkpt lat="44.07746" lon="6.27053">
        <ele>695.63092488238</ele>
        <time>2021-10-04T20:43:04.296Z</time>
      </trkpt>
      <trkpt lat="44.07758" lon="6.27047">
        <ele>695.02930818835</ele>
        <time>2021-10-04T20:43:11.043Z</time>
      </trkpt>
      <trkpt lat="44.07745" lon="6.27033">
        <ele>694.07327292293</ele>
        <time>2021-10-04T20:43:17.793Z</time>
      </trkpt>
      <trkpt lat="44.07745" lon="6.27025">
        <ele>693.04938999985</ele>
        <time>2021-10-04T20:43:24.544Z</time>
      </trkpt>
      <trkpt lat="44.07753" lon="6.27012">
        <ele>691.79185202309</ele>
        <time>2021-10-04T20:43:31.298Z</time>
      </trkpt>
      <trkpt lat="44.07765" lon="6.26984">
        <ele>690.19839282851</ele>
        <time>2021-10-04T20:43:38.056Z</time>
      </trkpt>
      <trkpt lat="44.07772" lon="6.26974">
        <ele>688.87436196476</ele>
        <time>2021-10-04T20:43:44.816Z</time>
      </trkpt>
      <trkpt lat="44.07777" lon="6.26969">
        <ele>687.56058594567</ele>
        <time>2021-10-04T20:43:51.578Z</time>
      </trkpt>
      <trkpt lat="44.07785" lon="6.26965">
        <ele>686.29391704817</ele>
        <time>2021-10-04T20:43:58.341Z</time>
      </trkpt>
      <trkpt lat="44.07796" lon="6.26965">
        <ele>685.12262995486</ele>
        <time>2021-10-04T20:44:05.107Z</time>
      </trkpt>
      <trkpt lat="44.07811" lon="6.2696">
        <ele>684.02071198114</ele>
        <time>2021-10-04T20:44:11.876Z</time>
      </trkpt>
      <trkpt lat="44.07835" lon="6.26943">
        <ele>683.00229414637</ele>
        <time>2021-10-04T20:44:18.650Z</time>
      </trkpt>
      <trkpt lat="44.07856" lon="6.26925">
        <ele>682.04935751293</ele>
        <time>2021-10-04T20:44:25.429Z</time>
      </trkpt>
      <trkpt lat="44.07863" lon="6.26912">
        <ele>681.0231171265</ele>
        <time>2021-10-04T20:44:32.210Z</time>
      </trkpt>
      <trkpt lat="44.07867" lon="6.26886">
        <ele>679.98225082429</ele>
        <time>2021-10-04T20:44:38.995Z</time>
      </trkpt>
      <trkpt lat="44.07861" lon="6.26853">
        <ele>678.89337420758</ele>
        <time>2021-10-04T20:44:45.785Z</time>
      </trkpt>
      <trkpt lat="44.0786" lon="6.26839">
        <ele>678.08175158505</ele>
        <time>2021-10-04T20:44:52.577Z</time>
      </trkpt>
      <trkpt lat="44.0786" lon="6.26839">
        <ele>677.37216156553</ele>
        <time>2021-10-04T20:44:59.369Z</time>
      </trkpt>
      <trkpt lat="44.0786" lon="6.26834">
        <ele>676.71284986168</ele>
        <time>2021-10-04T20:45:06.162Z</time>
      </trkpt>
      <trkpt lat="44.07871" lon="6.26816">
        <ele>676.12692136713</ele>
        <time>2021-10-04T20:45:12.958Z</time>
      </trkpt>
      <trkpt lat="44.07898" lon="6.26795">
        <ele>675.73614194512</ele>
        <time>2021-10-04T20:45:19.761Z</time>
      </trkpt>
      <trkpt lat="44.07898" lon="6.26795">
        <ele>675.19380935317</ele>
        <time>2021-10-04T20:45:26.564Z</time>
      </trkpt>
      <trkpt lat="44.07918" lon="6.26772">
        <ele>674.63656208344</ele>
        <time>2021-10-04T20:45:33.372Z</time>
      </trkpt>
      <trkpt lat="44.07923" lon="6.26765">
        <ele>674.0892497879</ele>
        <time>2021-10-04T20:45:40.181Z</time>
      </trkpt>
      <trkpt lat="44.0793" lon="6.2674">
        <ele>673.4176180493</ele>
        <time>2021-10-04T20:45:46.994Z</time>
      </trkpt>
      <trkpt lat="44.07928" lon="6.26729">
        <ele>672.7922796352</ele>
        <time>2021-10-04T20:45:53.809Z</time>
      </trkpt>
      <trkpt lat="44.07917" lon="6.26716">
        <ele>672.12390953099</ele>
        <time>2021-10-04T20:46:00.627Z</time>
      </trkpt>
      <trkpt lat="44.0792" lon="6.26712">
        <ele>671.4770965417</ele>
        <time>2021-10-04T20:46:07.445Z</time>
      </trkpt>
      <trkpt lat="44.0792" lon="6.26707">
        <ele>670.80061601237</ele>
        <time>2021-10-04T20:46:14.264Z</time>
      </trkpt>
      <trkpt lat="44.07917" lon="6.26702">
        <ele>670.11038928732</ele>
        <time>2021-10-04T20:46:21.084Z</time>
      </trkpt>
      <trkpt lat="44.07912" lon="6.26701">
        <ele>669.42617099007</ele>
        <time>2021-10-04T20:46:27.905Z</time>
      </trkpt>
      <trkpt lat="44.07921" lon="6.26657">
        <ele>668.62581233981</ele>
        <time>2021-10-04T20:46:34.733Z</time>
      </trkpt>
      <trkpt lat="44.07926" lon="6.26638">
        <ele>667.92330099029</ele>
        <time>2021-10-04T20:46:41.564Z</time>
      </trkpt>
      <trkpt lat="44.07929" lon="6.26516">
        <ele>667.28714904658</ele>
        <time>2021-10-04T20:46:48.412Z</time>
      </trkpt>
      <trkpt lat="44.07929" lon="6.26508">
        <ele>666.72474479427</ele>
        <time>2021-10-04T20:46:55.261Z</time>
      </trkpt>
      <trkpt lat="44.07929" lon="6.26508">
        <ele>666.1945839624</ele>
        <time>2021-10-04T20:47:02.110Z</time>
      </trkpt>
      <trkpt lat="44.07931" lon="6.26445">
        <ele>665.76419900054</ele>
        <time>2021-10-04T20:47:08.968Z</time>
      </trkpt>
      <trkpt lat="44.07933" lon="6.26352">
        <ele>665.20777829307</ele>
        <time>2021-10-04T20:47:15.840Z</time>
      </trkpt>
      <trkpt lat="44.07933" lon="6.26339">
        <ele>664.82843980294</ele>
        <time>2021-10-04T20:47:22.714Z</time>
      </trkpt>
      <trkpt lat="44.07933" lon="6.26334">
        <ele>664.55318039243</ele>
        <time>2021-10-04T20:47:29.588Z</time>
      </trkpt>
      <trkpt lat="44.07934" lon="6.26312">
        <ele>664.31096121011</ele>
        <time>2021-10-04T20:47:36.466Z</time>
      </trkpt>
      <trkpt lat="44.07937" lon="6.26269">
        <ele>664.08822774584</ele>
        <time>2021-10-04T20:47:43.350Z</time>
      </trkpt>
      <trkpt lat="44.07941" lon="6.26254">
        <ele>664.16125565148</ele>
        <time>2021-10-04T20:47:50.236Z</time>
      </trkpt>
      <trkpt lat="44.0795" lon="6.2623">
        <ele>664.27898123237</ele>
        <time>2021-10-04T20:47:57.126Z</time>
      </trkpt>
      <trkpt lat="44.07952" lon="6.26227">
        <ele>664.3928645809</ele>
        <time>2021-10-04T20:48:04.017Z</time>
      </trkpt>
      <trkpt lat="44.07974" lon="6.26182">
        <ele>664.81840269302</ele>
        <time>2021-10-04T20:48:10.916Z</time>
      </trkpt>
      <trkpt lat="44.08" lon="6.26121">
        <ele>664.58248068424</ele>
        <time>2021-10-04T20:48:17.825Z</time>
      </trkpt>
      <trkpt lat="44.08005" lon="6.2611">
        <ele>664.6266502251</ele>
        <time>2021-10-04T20:48:24.735Z</time>
      </trkpt>
      <trkpt lat="44.08013" lon="6.26076">
        <ele>664.57400032169</ele>
        <time>2021-10-04T20:48:31.651Z</time>
      </trkpt>
      <trkpt lat="44.08013" lon="6.26076">
        <ele>664.60326539267</ele>
        <time>2021-10-04T20:48:38.567Z</time>
      </trkpt>
      <trkpt lat="44.08033" lon="6.26014">
        <ele>664.94334137253</ele>
        <time>2021-10-04T20:48:45.493Z</time>
      </trkpt>
      <trkpt lat="44.08051" lon="6.25925">
        <ele>664.68377337323</ele>
        <time>2021-10-04T20:48:52.432Z</time>
      </trkpt>
      <trkpt lat="44.08055" lon="6.25913">
        <ele>664.38335339916</ele>
        <time>2021-10-04T20:48:59.373Z</time>
      </trkpt>
      <trkpt lat="44.08065" lon="6.25897">
        <ele>663.98383370868</ele>
        <time>2021-10-04T20:49:06.317Z</time>
      </trkpt>
      <trkpt lat="44.0807" lon="6.25881">
        <ele>663.3007128652</ele>
        <time>2021-10-04T20:49:13.263Z</time>
      </trkpt>
      <trkpt lat="44.08075" lon="6.25857">
        <ele>662.4887797086</ele>
        <time>2021-10-04T20:49:20.213Z</time>
      </trkpt>
      <trkpt lat="44.08082" lon="6.25846">
        <ele>661.73900890078</ele>
        <time>2021-10-04T20:49:27.165Z</time>
      </trkpt>
      <trkpt lat="44.08095" lon="6.25831">
        <ele>660.8648689912</ele>
        <time>2021-10-04T20:49:34.120Z</time>
      </trkpt>
      <trkpt lat="44.08114" lon="6.25796">
        <ele>659.7248220011</ele>
        <time>2021-10-04T20:49:41.082Z</time>
      </trkpt>
      <trkpt lat="44.08135" lon="6.25731">
        <ele>658.39169043469</ele>
        <time>2021-10-04T20:49:48.054Z</time>
      </trkpt>
      <trkpt lat="44.08147" lon="6.257">
        <ele>657.20556740751</ele>
        <time>2021-10-04T20:49:55.031Z</time>
      </trkpt>
      <trkpt lat="44.08161" lon="6.25677">
        <ele>656.13807236992</ele>
        <time>2021-10-04T20:50:02.012Z</time>
      </trkpt>
      <trkpt lat="44.08201" lon="6.25613">
        <ele>654.96689964866</ele>
        <time>2021-10-04T20:50:09.005Z</time>
      </trkpt>
      <trkpt lat="44.08212" lon="6.2559">
        <ele>653.77389344949</ele>
        <time>2021-10-04T20:50:16.003Z</time>
      </trkpt>
      <trkpt lat="44.08221" lon="6.25569">
        <ele>652.80875749841</ele>
        <time>2021-10-04T20:50:23.004Z</time>
      </trkpt>
      <trkpt lat="44.08236" lon="6.25549">
        <ele>651.93946691644</ele>
        <time>2021-10-04T20:50:30.009Z</time>
      </trkpt>
      <trkpt lat="44.08241" lon="6.25543">
        <ele>651.12057304625</ele>
        <time>2021-10-04T20:50:37.015Z</time>
      </trkpt>
      <trkpt lat="44.08241" lon="6.25543">
        <ele>650.43587332642</ele>
        <time>2021-10-04T20:50:44.021Z</time>
      </trkpt>
      <trkpt lat="44.08249" lon="6.25532">
        <ele>649.78652464529</ele>
        <time>2021-10-04T20:50:51.030Z</time>
      </trkpt>
      <trkpt lat="44.08265" lon="6.25516">
        <ele>649.33004226408</ele>
        <time>2021-10-04T20:50:58.043Z</time>
      </trkpt>
      <trkpt lat="44.08273" lon="6.25509">
        <ele>648.8144884889</ele>
        <time>2021-10-04T20:51:05.058Z</time>
      </trkpt>
      <trkpt lat="44.08279" lon="6.25505">
        <ele>648.35315448844</ele>
        <time>2021-10-04T20:51:12.074Z</time>
      </trkpt>
      <trkpt lat="44.08279" lon="6.25505">
        <ele>647.9286703931</ele>
        <time>2021-10-04T20:51:19.090Z</time>
      </trkpt>
      <trkpt lat="44.08308" lon="6.25481">
        <ele>647.62091600451</ele>
        <time>2021-10-04T20:51:26.113Z</time>
      </trkpt>
      <trkpt lat="44.08326" lon="6.25461">
        <ele>646.95909825581</ele>
        <time>2021-10-04T20:51:33.140Z</time>
      </trkpt>
      <trkpt lat="44.08351" lon="6.25427">
        <ele>646.41037746294</ele>
        <time>2021-10-04T20:51:40.174Z</time>
      </trkpt>
      <trkpt lat="44.08363" lon="6.25405">
        <ele>645.76076585184</ele>
        <time>2021-10-04T20:51:47.212Z</time>
      </trkpt>
      <trkpt lat="44.0838" lon="6.25363">
        <ele>644.9116631389</ele>
        <time>2021-10-04T20:51:54.257Z</time>
      </trkpt>
      <trkpt lat="44.08423" lon="6.25306">
        <ele>643.99155517383</ele>
        <time>2021-10-04T20:52:01.314Z</time>
      </trkpt>
      <trkpt lat="44.08434" lon="6.25294">
        <ele>642.91836380962</ele>
        <time>2021-10-04T20:52:08.374Z</time>
      </trkpt>
      <trkpt lat="44.08434" lon="6.25294">
        <ele>641.72857438819</ele>
        <time>2021-10-04T20:52:15.434Z</time>
      </trkpt>
      <trkpt lat="44.08453" lon="6.25277">
        <ele>640.62045231526</ele>
        <time>2021-10-04T20:52:22.499Z</time>
      </trkpt>
      <trkpt lat="44.08521" lon="6.25232">
        <ele>638.58109827536</ele>
        <time>2021-10-04T20:52:29.579Z</time>
      </trkpt>
      <trkpt lat="44.08603" lon="6.25152">
        <ele>636.50248828412</ele>
        <time>2021-10-04T20:52:36.679Z</time>
      </trkpt>
      <trkpt lat="44.08669" lon="6.25096">
        <ele>635.37527601854</ele>
        <time>2021-10-04T20:52:43.794Z</time>
      </trkpt>
      <trkpt lat="44.08724" lon="6.25052">
        <ele>633.35343058301</ele>
        <time>2021-10-04T20:52:50.922Z</time>
      </trkpt>
      <trkpt lat="44.08735" lon="6.25038">
        <ele>631.55867098728</ele>
        <time>2021-10-04T20:52:58.053Z</time>
      </trkpt>
      <trkpt lat="44.08739" lon="6.25032">
        <ele>629.7020778545</ele>
        <time>2021-10-04T20:53:05.185Z</time>
      </trkpt>
      <trkpt lat="44.08744" lon="6.25024">
        <ele>627.82652683945</ele>
        <time>2021-10-04T20:53:12.318Z</time>
      </trkpt>
      <trkpt lat="44.08757" lon="6.25002">
        <ele>625.90964991567</ele>
        <time>2021-10-04T20:53:19.456Z</time>
      </trkpt>
      <trkpt lat="44.08759" lon="6.24998">
        <ele>624.17907507835</ele>
        <time>2021-10-04T20:53:26.594Z</time>
      </trkpt>
      <trkpt lat="44.08786" lon="6.24984">
        <ele>622.41035104798</ele>
        <time>2021-10-04T20:53:33.738Z</time>
      </trkpt>
      <trkpt lat="44.08786" lon="6.24984">
        <ele>620.8724246762</ele>
        <time>2021-10-04T20:53:40.882Z</time>
      </trkpt>
      <trkpt lat="44.08819" lon="6.24967">
        <ele>619.40359774385</ele>
        <time>2021-10-04T20:53:48.033Z</time>
      </trkpt>
      <trkpt lat="44.08836" lon="6.24957">
        <ele>617.97064863675</ele>
        <time>2021-10-04T20:53:55.188Z</time>
      </trkpt>
      <trkpt lat="44.08875" lon="6.24936">
        <ele>616.60459568203</ele>
        <time>2021-10-04T20:54:02.351Z</time>
      </trkpt>
      <trkpt lat="44.08894" lon="6.24927">
        <ele>615.49583551822</ele>
        <time>2021-10-04T20:54:09.518Z</time>
      </trkpt>
      <trkpt lat="44.08951" lon="6.24897">
        <ele>614.4180602618</ele>
        <time>2021-10-04T20:54:16.697Z</time>
      </trkpt>
      <trkpt lat="44.08965" lon="6.24884">
        <ele>613.45111312946</ele>
        <time>2021-10-04T20:54:23.880Z</time>
      </trkpt>
      <trkpt lat="44.08965" lon="6.24884">
        <ele>612.69831118802</ele>
        <time>2021-10-04T20:54:31.063Z</time>
      </trkpt>
      <trkpt lat="44.08973" lon="6.24871">
        <ele>612.00696089951</ele>
        <time>2021-10-04T20:54:38.248Z</time>
      </trkpt>
      <trkpt lat="44.08983" lon="6.24848">
        <ele>611.5354289154</ele>
        <time>2021-10-04T20:54:45.437Z</time>
      </trkpt>
      <trkpt lat="44.08986" lon="6.24838">
        <ele>611.09778813435</ele>
        <time>2021-10-04T20:54:52.628Z</time>
      </trkpt>
      <trkpt lat="44.08987" lon="6.24814">
        <ele>610.74105559986</ele>
        <time>2021-10-04T20:54:59.822Z</time>
      </trkpt>
      <trkpt lat="44.08986" lon="6.24778">
        <ele>610.46165889712</ele>
        <time>2021-10-04T20:55:07.021Z</time>
      </trkpt>
      <trkpt lat="44.08992" lon="6.24748">
        <ele>610.26717284755</ele>
        <time>2021-10-04T20:55:14.225Z</time>
      </trkpt>
      <trkpt lat="44.09" lon="6.24715">
        <ele>610.08939889862</ele>
        <time>2021-10-04T20:55:21.434Z</time>
      </trkpt>
      <trkpt lat="44.09009" lon="6.24697">
        <ele>610.08076649293</ele>
        <time>2021-10-04T20:55:28.646Z</time>
      </trkpt>
      <trkpt lat="44.09012" lon="6.2469">
        <ele>610.17992280411</ele>
        <time>2021-10-04T20:55:35.859Z</time>
      </trkpt>
      <trkpt lat="44.09012" lon="6.2469">
        <ele>610.38175828558</ele>
        <time>2021-10-04T20:55:43.072Z</time>
      </trkpt>
      <trkpt lat="44.0903" lon="6.24651">
        <ele>610.66148531209</ele>
        <time>2021-10-04T20:55:50.292Z</time>
      </trkpt>
      <trkpt lat="44.09063" lon="6.2458">
        <ele>611.02986413731</ele>
        <time>2021-10-04T20:55:57.524Z</time>
      </trkpt>
      <trkpt lat="44.09067" lon="6.24572">
        <ele>611.55493789739</ele>
        <time>2021-10-04T20:56:04.757Z</time>
      </trkpt>
      <trkpt lat="44.09071" lon="6.24552">
        <ele>612.17719172917</ele>
        <time>2021-10-04T20:56:11.993Z</time>
      </trkpt>
      <trkpt lat="44.0907" lon="6.24494">
        <ele>612.99681928727</ele>
        <time>2021-10-04T20:56:19.238Z</time>
      </trkpt>
      <trkpt lat="44.09072" lon="6.24484">
        <ele>613.72031804046</ele>
        <time>2021-10-04T20:56:26.484Z</time>
      </trkpt>
      <trkpt lat="44.09085" lon="6.24456">
        <ele>614.44163336261</ele>
        <time>2021-10-04T20:56:33.735Z</time>
      </trkpt>
      <trkpt lat="44.09102" lon="6.24429">
        <ele>615.10396670999</ele>
        <time>2021-10-04T20:56:40.991Z</time>
      </trkpt>
      <trkpt lat="44.09112" lon="6.2441">
        <ele>620.67331292164</ele>
        <time>2021-10-04T20:56:48.251Z</time>
      </trkpt>
      <trkpt lat="44.09119" lon="6.24344">
        <ele>619.06189406515</ele>
        <time>2021-10-04T20:56:55.520Z</time>
      </trkpt>
      <trkpt lat="44.09119" lon="6.24338">
        <ele>617.23817223499</ele>
        <time>2021-10-04T20:57:02.790Z</time>
      </trkpt>
      <trkpt lat="44.09117" lon="6.24323">
        <ele>615.25669434709</ele>
        <time>2021-10-04T20:57:10.062Z</time>
      </trkpt>
      <trkpt lat="44.09112" lon="6.24309">
        <ele>613.22141546626</ele>
        <time>2021-10-04T20:57:17.337Z</time>
      </trkpt>
      <trkpt lat="44.09086" lon="6.24256">
        <ele>611.18467884507</ele>
        <time>2021-10-04T20:57:24.621Z</time>
      </trkpt>
      <trkpt lat="44.08991" lon="6.24072">
        <ele>605.93576290275</ele>
        <time>2021-10-04T20:57:31.937Z</time>
      </trkpt>
      <trkpt lat="44.08979" lon="6.24037">
        <ele>604.83870303368</ele>
        <time>2021-10-04T20:57:39.259Z</time>
      </trkpt>
      <trkpt lat="44.0897" lon="6.23982">
        <ele>603.75500984258</ele>
        <time>2021-10-04T20:57:46.589Z</time>
      </trkpt>
      <trkpt lat="44.08969" lon="6.23974">
        <ele>602.74019882764</ele>
        <time>2021-10-04T20:57:53.920Z</time>
      </trkpt>
      <trkpt lat="44.08969" lon="6.23974">
        <ele>601.78753200854</ele>
        <time>2021-10-04T20:58:01.251Z</time>
      </trkpt>
      <trkpt lat="44.08967" lon="6.23931">
        <ele>605.15342510937</ele>
        <time>2021-10-04T20:58:08.588Z</time>
      </trkpt>
      <trkpt lat="44.08964" lon="6.23931">
        <ele>600.17996691188</ele>
        <time>2021-10-04T20:58:15.926Z</time>
      </trkpt>
      <trkpt lat="44.08956" lon="6.23938">
        <ele>603.31481129749</ele>
        <time>2021-10-04T20:58:23.266Z</time>
      </trkpt>
      <trkpt lat="44.08956" lon="6.2392">
        <ele>599.09634564894</ele>
        <time>2021-10-04T20:58:30.608Z</time>
      </trkpt>
      <trkpt lat="44.08962" lon="6.23905">
        <ele>598.76048562693</ele>
        <time>2021-10-04T20:58:37.953Z</time>
      </trkpt>
      <trkpt lat="44.08972" lon="6.23824">
        <ele>598.59025614638</ele>
        <time>2021-10-04T20:58:45.310Z</time>
      </trkpt>
      <trkpt lat="44.08975" lon="6.23807">
        <ele>598.67150559006</ele>
        <time>2021-10-04T20:58:52.669Z</time>
      </trkpt>
      <trkpt lat="44.08981" lon="6.23787">
        <ele>598.90104707052</ele>
        <time>2021-10-04T20:59:00.031Z</time>
      </trkpt>
      <trkpt lat="44.08984" lon="6.23769">
        <ele>599.25927949885</ele>
        <time>2021-10-04T20:59:07.396Z</time>
      </trkpt>
      <trkpt lat="44.08984" lon="6.23769">
        <ele>599.76133160895</ele>
        <time>2021-10-04T20:59:14.761Z</time>
      </trkpt>
      <trkpt lat="44.08987" lon="6.23749">
        <ele>599.10442740777</ele>
        <time>2021-10-04T20:59:22.129Z</time>
      </trkpt>
      <trkpt lat="44.08989" lon="6.23734">
        <ele>598.91700547978</ele>
        <time>2021-10-04T20:59:29.499Z</time>
      </trkpt>
    </trkseg>
  </trk>
</gpx>